GFSGL_700_spd_000.txt.gz
Wind_Speed
42 43 47 52 56 57 56 56 53 47 39 30 30 32 35 30 31 33 35 36 36 36 36 37 39 39 40 41 42 44 46 47 52 53 53 51 50 51 50 46 43 43 45
42 47 51 56 56 58 55 51 46 38 31 32 35 36 35 31 31 33 34 33 35 38 40 41 41 40 39 39 40 41 43 43 47 50 50 50 48 48 50 48 47 45 45
45 51 52 57 56 55 51 43 35 31 32 36 35 36 34 33 33 33 34 34 36 39 39 39 39 39 38 38 39 41 42 43 45 48 49 50 50 48 48 48 46 47 46
50 53 57 58 56 49 42 33 30 32 32 32 32 34 34 34 34 33 33 36 38 39 39 38 38 38 39 39 39 39 40 43 45 47 48 49 50 48 48 48 47 46 47
52 55 57 55 47 39 32 31 28 28 30 30 31 30 35 35 37 39 40 41 40 39 37 37 36 37 38 40 42 43 45 47 48 49 50 50 51 51 49 46 47 43 44
54 54 51 45 38 35 34 31 32 32 28 30 35 36 37 38 39 41 42 42 41 41 40 37 37 38 39 41 43 44 45 46 46 47 48 48 48 50 49 46 45 45 44
53 48 40 39 34 34 31 31 34 36 36 36 37 37 38 39 40 41 41 42 42 41 39 38 39 39 41 42 40 38 38 37 39 39 40 39 38 36 37 38 39 39 39
44 40 38 33 31 34 38 37 35 34 35 36 37 37 36 36 38 39 41 42 41 39 37 39 39 39 36 36 36 35 34 33 33 36 39 39 38 35 34 33 32 33 33
38 36 34 36 36 33 31 32 32 32 34 35 36 36 36 37 39 39 41 40 38 35 36 35 37 33 33 33 34 33 32 30 29 30 32 34 36 35 34 34 32 31 31
39 38 35 33 33 33 32 31 33 36 37 37 35 36 37 37 37 37 38 37 34 34 32 31 29 30 29 31 31 31 30 26 25 23 22 24 26 28 29 32 30 30 29
35 35 30 31 34 33 32 35 37 38 36 36 36 35 35 36 36 36 35 34 35 32 29 25 24 25 27 28 29 29 26 25 23 22 20 20 19 20 23 25 28 29 28
38 29 32 35 33 33 35 38 38 37 36 36 34 33 33 33 34 34 33 34 31 29 25 24 23 25 27 26 24 24 23 23 21 19 18 18 18 19 19 22 23 26 27
27 31 34 32 33 36 39 39 36 35 34 34 35 35 33 30 29 30 31 29 26 23 23 22 22 24 21 17 15 12 10 10 10 12 14 15 17 18 18 20 22 22 21
29 32 33 33 35 38 38 35 34 33 34 36 36 35 32 29 28 28 24 22 19 18 16 16 18 21 19 12 11 11 9 9 9 10 10 10 11 12 14 16 17 16 19
30 31 32 35 37 37 33 31 32 34 36 38 37 34 32 29 27 21 19 16 13 11 11 12 15 19 17 15 12 10 10 10 9 8 9 10 10 7 7 11 12 14 14
28 30 33 35 35 33 29 29 31 33 36 35 33 32 29 27 23 18 15 13 10 9 9 10 13 17 19 15 12 11 10 9 7 6 6 6 7 8 6 4 4 6 5
29 32 33 33 30 28 28 31 32 33 33 32 31 28 27 26 19 15 12 10 8 8 9 10 10 13 18 20 17 13 10 8 5 4 3 4 5 7 7 6 6 8 5
29 31 31 28 27 26 29 30 33 35 31 29 27 28 26 19 16 13 10 8 8 9 9 9 9 10 13 15 16 17 17 13 9 5 3 4 4 4 4 2 1 0 1
28 27 25 24 24 27 29 30 34 33 31 30 26 24 23 17 14 11 7 6 7 8 8 9 10 10 11 12 13 15 16 17 18 15 7 7 6 5 5 4 4 4 5
22 23 22 22 25 27 27 30 32 30 30 29 26 25 20 14 11 10 7 6 6 7 7 8 9 10 11 11 12 13 15 16 17 18 17 8 7 8 7 6 7 9 10
21 21 22 23 25 25 26 30 30 29 29 27 26 26 21 14 9 8 7 5 5 6 6 7 8 9 11 11 12 13 13 14 15 15 16 17 14 5 6 7 6 5 6
20 22 23 23 22 22 25 29 29 28 27 27 26 25 20 13 9 8 7 6 5 5 5 5 6 7 7 9 10 12 13 14 14 13 14 15 17 17 11 6 6 8 8
19 21 22 21 21 21 24 27 28 27 26 26 26 25 21 14 10 8 8 6 5 5 5 3 4 5 6 8 9 10 11 11 11 12 14 15 15 15 14 13 10 6 6
19 21 22 21 20 20 22 25 27 27 25 24 24 24 22 18 12 8 8 7 6 5 3 2 3 5 6 7 8 9 10 10 10 11 12 13 13 12 12 12 11 10 9
19 21 21 21 20 20 22 24 25 25 24 23 22 21 21 20 15 9 7 8 7 4 1 3 3 5 7 7 8 9 9 10 10 11 11 11 11 11 11 11 11 10 9
17 20 19 19 19 19 21 22 23 23 23 22 21 20 19 18 18 15 11 9 8 5 2 2 4 5 7 8 9 9 10 10 10 11 11 11 11 11 11 11 10 10 10

GFSGL_700_spd_003.txt.gz
Wind_Speed
43 43 44 45 46 52 55 56 56 51 40 32 29 28 32 33 41 29 30 34 32 36 36 35 33 32 33 34 35 37 39 41 44 44 46 47 46 46 47 48 50 48 46
47 47 44 49 54 55 57 57 52 43 34 29 29 29 34 35 39 35 34 33 32 32 32 33 33 34 35 35 35 37 39 41 43 45 45 46 47 45 45 46 48 49 46
43 41 46 51 55 56 54 48 39 33 32 30 28 32 33 33 35 37 37 36 32 30 33 34 33 34 34 34 35 36 38 40 42 45 46 45 47 45 44 44 46 47 45
44 48 51 54 53 50 45 40 37 34 32 31 31 34 36 37 36 37 37 36 36 36 35 34 33 33 34 35 36 37 38 40 42 44 46 46 46 47 46 46 46 46 45
46 50 53 52 47 43 41 38 36 32 32 36 37 36 37 39 39 38 37 38 38 36 34 33 33 33 33 35 38 37 39 40 42 45 48 48 47 48 48 46 48 46 46
49 51 49 45 40 40 37 36 35 36 38 38 35 34 34 35 36 36 35 35 35 36 36 34 35 34 34 36 36 38 38 40 42 43 42 42 41 42 42 43 44 45 45
48 46 44 40 39 39 39 35 33 33 32 31 31 34 35 35 36 35 35 36 36 36 36 37 36 35 34 35 35 36 37 36 37 37 38 37 35 33 34 35 36 36 35
46 43 40 38 37 36 33 31 30 30 31 34 37 37 37 35 36 36 36 37 36 35 35 35 35 34 33 33 33 32 32 32 33 35 35 33 31 31 34 34 34 34 33
43 42 37 36 36 34 33 31 30 33 37 39 38 37 37 36 35 35 35 35 33 33 33 33 33 32 29 28 29 30 30 29 29 30 29 29 29 29 30 32 34 34 32
40 39 35 35 33 34 32 33 36 39 39 37 35 36 35 34 34 34 35 35 34 33 32 30 28 27 25 25 28 29 32 30 28 26 26 27 25 24 23 25 27 30 30
36 38 34 32 34 33 34 37 40 39 35 35 35 35 36 36 35 35 35 34 34 32 30 26 23 21 21 23 27 30 29 26 24 24 23 23 22 22 21 21 22 24 25
33 30 29 31 32 34 37 38 37 34 34 35 36 36 35 33 31 30 30 29 30 29 24 22 20 18 20 24 25 22 19 16 14 13 13 14 16 18 18 20 21 22 24
29 27 29 31 33 36 38 36 33 33 36 37 37 37 33 30 28 27 27 26 24 23 21 20 18 18 21 19 15 11 7 5 4 4 5 7 11 14 17 18 19 22 24
28 27 29 31 34 36 35 33 32 34 36 38 38 35 32 29 27 25 20 18 17 15 15 13 13 14 17 11 7 4 4 4 4 4 3 4 7 8 8 10 12 14 17
26 28 29 32 35 34 32 30 32 34 38 39 37 35 33 28 26 21 18 15 13 11 10 10 9 12 14 10 7 7 7 5 3 3 3 5 5 6 6 8 9 11 12
25 27 30 32 32 30 27 29 30 33 37 35 34 34 30 28 22 17 15 13 11 10 9 7 7 9 12 17 17 13 10 8 4 2 3 2 3 5 7 7 7 5 6
25 28 29 29 27 25 26 29 31 32 32 34 33 30 28 24 17 15 14 12 10 10 10 8 7 8 11 16 17 18 18 12 6 3 3 4 2 3 4 5 7 6 5
26 27 26 25 23 24 26 28 32 33 31 30 30 28 27 21 16 13 11 11 12 12 10 9 8 10 12 13 13 14 15 16 14 7 4 5 4 3 3 2 1 2 2
21 22 22 21 22 24 24 27 32 32 31 31 28 27 25 19 14 13 11 10 10 10 10 10 10 11 12 13 13 12 12 13 15 16 11 4 6 4 3 2 3 3 3
19 20 20 20 21 21 23 26 30 31 30 30 28 27 23 16 12 11 10 9 9 9 8 8 9 10 12 11 11 12 13 13 13 14 15 13 3 6 6 4 4 6 7
18 19 20 21 20 20 21 25 28 31 29 29 29 28 25 16 12 10 9 8 8 8 8 8 8 9 9 10 11 12 12 13 13 12 13 14 12 4 0 3 5 5 5
16 19 20 21 20 20 21 23 26 29 29 27 27 27 26 19 15 10 10 8 8 7 6 5 6 8 8 9 10 10 11 11 11 12 12 12 11 11 10 6 3 4 6
15 18 20 21 20 19 20 22 24 26 27 27 25 25 25 23 16 10 9 9 8 7 5 2 3 5 7 9 9 9 9 9 9 9 11 11 11 11 10 10 9 8 7
15 17 20 20 19 19 19 21 23 23 24 25 25 23 23 23 20 14 10 8 7 6 5 2 1 4 6 8 8 9 9 9 9 9 9 9 9 9 9 9 9 8 8
15 17 19 19 19 19 19 20 22 23 22 21 22 23 22 21 20 17 13 10 8 7 5 3 1 2 5 7 7 8 8 9 9 9 9 8 8 8 9 9 9 8 8
16 17 17 19 19 20 20 20 21 22 22 20 19 20 20 19 18 17 15 13 10 8 6 4 2 2 4 6 7 8 8 8 8 8 8 9 9 9 9 9 9 9 9

GFSGL_700_spd_006.txt.gz
Wind_Speed
45 43 44 43 43 45 48 52 53 49 42 37 33 31 31 31 35 37 36 37 35 33 31 32 31 32 35 34 34 33 32 30 33 33 32 33 36 40 42 45 47 47 48
38 36 35 39 45 49 53 51 44 39 36 33 32 31 30 35 39 39 38 35 36 34 34 34 35 33 34 35 35 35 36 36 36 38 34 34 38 39 41 42 42 44 45
31 36 42 45 50 51 49 44 39 35 33 31 30 32 33 34 35 36 35 36 36 37 36 35 35 34 35 35 36 37 38 39 39 40 41 39 40 39 40 42 40 41 42
39 40 44 48 49 48 44 40 36 35 31 31 33 37 39 39 39 39 37 38 38 39 37 35 34 33 33 34 35 37 38 39 40 41 42 42 41 40 41 42 42 40 41
40 45 47 48 47 44 40 37 37 37 35 35 35 35 33 33 35 34 35 37 38 36 35 34 33 34 33 35 37 37 37 38 39 39 37 39 39 37 37 39 42 42 42
43 46 48 47 44 40 37 36 36 33 32 31 30 31 34 36 39 38 37 36 36 36 36 34 34 35 35 36 36 37 37 38 39 39 40 42 41 42 41 41 40 41 43
45 47 47 45 42 37 35 32 31 30 30 32 35 37 38 37 38 36 36 35 35 33 33 33 32 32 34 35 34 34 33 34 36 37 39 39 38 37 37 38 39 39 39
45 45 44 42 38 35 32 31 29 32 35 37 37 35 34 34 36 35 35 34 34 33 33 32 33 32 31 31 32 31 31 32 32 33 34 34 35 34 34 34 35 36 37
45 43 39 38 39 32 32 32 34 37 37 35 33 34 35 36 39 39 38 37 36 33 32 31 31 30 29 30 30 30 30 29 29 31 31 31 29 29 29 31 33 34 35
44 40 36 35 33 32 32 34 37 37 35 34 34 35 37 37 37 38 37 36 34 31 29 28 28 27 26 26 27 29 28 28 31 32 32 29 27 25 25 28 26 30 30
41 37 34 32 30 31 33 35 36 34 34 33 36 37 38 38 35 32 32 31 30 29 27 26 23 23 21 22 24 26 28 29 27 25 24 24 24 23 23 24 25 26 25
37 34 32 28 29 31 34 34 33 33 33 36 37 39 38 35 32 30 28 28 28 27 23 21 20 20 19 20 22 23 22 18 14 10 9 10 13 15 17 20 23 24 23
36 33 28 27 29 31 34 32 32 31 35 36 39 40 36 34 31 28 27 24 22 21 20 19 18 17 17 18 19 15 10 7 5 3 3 4 6 8 12 15 19 20 20
36 30 25 28 29 30 31 30 30 33 34 38 40 37 36 31 29 26 21 18 17 16 15 14 13 12 14 14 9 6 6 6 5 4 4 3 4 5 7 8 10 13 15
30 23 25 27 29 28 27 26 27 31 35 37 36 36 35 31 27 22 20 17 14 12 10 10 8 9 12 11 3 1 1 1 3 3 3 2 1 3 5 6 7 8 10
20 21 25 26 26 25 23 25 28 30 34 35 34 34 32 29 23 18 17 15 13 11 10 9 7 7 7 9 10 8 5 3 1 1 3 2 1 2 4 6 7 7 5
18 22 23 23 22 21 22 23 25 31 33 30 32 33 31 27 19 15 14 13 12 12 12 10 8 7 7 10 12 14 14 12 5 1 3 3 3 3 3 1 3 5 6
19 19 20 20 19 20 20 21 25 29 31 30 32 32 30 24 18 13 12 12 13 12 11 10 9 8 10 11 11 12 13 13 12 8 2 5 4 4 3 3 2 1 2
16 17 18 18 19 18 18 20 24 28 30 30 30 31 31 23 18 13 12 11 11 10 10 9 9 9 12 11 11 11 11 10 11 12 10 2 5 5 4 5 5 4 4
15 16 17 18 19 18 19 20 23 26 28 29 29 29 30 23 18 14 12 11 10 10 9 9 8 10 10 10 11 11 10 10 10 11 11 10 2 3 6 6 6 7 8
15 15 17 18 19 18 18 19 22 24 26 27 28 28 28 27 20 14 12 11 10 10 9 8 7 7 8 9 10 10 9 10 11 11 10 10 9 5 1 4 7 9 7
15 15 16 18 19 18 18 18 20 23 24 25 26 27 26 27 24 17 13 12 10 9 8 6 5 6 7 8 9 10 10 10 10 9 8 9 8 7 7 5 3 4 6
15 15 15 18 19 18 17 18 19 22 23 23 24 24 25 25 24 21 16 14 11 9 7 5 3 4 6 7 8 8 8 8 8 7 7 7 7 7 6 6 5 5 5
15 15 16 18 18 18 18 18 19 21 22 23 22 22 22 22 22 21 19 15 12 9 9 9 6 4 5 6 7 7 7 7 7 7 6 7 7 6 6 6 6 6 6
15 16 16 17 18 18 19 20 20 20 21 21 21 20 20 21 20 19 18 17 14 12 10 10 9 7 4 5 6 6 7 7 7 7 7 7 7 7 8 7 7 7 7
15 15 15 15 17 18 19 20 20 20 20 20 20 19 18 19 19 18 17 16 15 13 12 10 9 8 7 6 6 7 8 8 8 8 8 8 7 8 8 9 9 9 9

GFSGL_700_spd_009.txt.gz
Wind_Speed
41 47 43 40 40 43 47 50 51 51 49 44 40 34 32 33 33 34 36 38 38 35 33 31 31 30 30 29 28 27 27 27 31 30 26 29 33 36 38 39 41 44 44
36 36 36 40 43 47 49 50 51 47 41 30 32 30 30 33 33 31 30 31 36 34 31 31 33 31 34 34 33 33 31 31 32 33 30 32 32 33 33 34 32 30 34
33 34 38 41 43 47 49 50 49 46 41 37 37 31 34 37 38 39 36 33 33 32 34 35 38 38 38 37 37 36 33 30 31 32 33 30 31 31 32 32 33 34 32
35 38 41 44 47 49 49 46 43 41 39 38 35 33 33 33 33 33 33 35 36 34 33 35 34 33 33 34 34 35 36 37 37 38 38 36 34 31 32 32 33 33 34
37 40 43 46 48 45 44 44 41 39 37 34 32 31 32 34 32 39 37 37 37 36 37 35 31 31 36 34 35 37 37 38 38 39 39 36 29 27 28 28 31 31 31
38 35 39 41 43 42 43 41 38 34 30 30 32 32 31 28 34 36 34 36 36 35 35 36 34 33 34 36 34 35 36 37 38 39 39 41 38 36 38 38 38 39 41
35 34 33 42 42 40 38 31 28 29 28 28 27 27 29 31 36 37 37 37 38 37 36 35 34 32 33 34 34 35 35 33 34 35 38 37 38 36 38 39 39 39 40
34 38 34 43 40 34 28 26 27 25 27 27 28 31 34 34 40 42 41 40 40 37 35 33 32 32 30 31 31 32 33 32 32 32 32 32 35 34 35 36 38 39 39
34 31 39 39 28 29 26 27 25 26 28 29 32 34 37 38 40 41 40 38 36 33 31 29 28 28 28 28 31 31 31 30 28 29 30 31 30 30 30 33 35 36 36
25 44 42 34 32 27 28 25 25 27 30 36 33 37 39 40 39 37 35 35 34 32 29 27 25 25 25 26 27 27 28 27 28 28 29 31 32 31 30 32 29 30 30
32 30 40 32 30 32 25 25 27 28 33 34 37 38 40 39 37 38 34 32 32 30 28 23 19 21 22 22 23 25 26 26 26 27 27 26 25 25 24 24 24 25 26
23 40 40 29 31 26 23 25 29 28 31 35 37 39 38 37 37 36 32 30 27 26 24 21 18 21 22 22 22 22 23 22 18 14 11 8 8 10 13 17 21 20 22
38 39 34 31 27 21 24 24 28 28 32 35 38 39 37 37 35 33 29 24 22 22 22 21 20 18 18 17 18 18 14 10 8 6 5 4 4 5 6 9 14 17 19
31 34 31 25 22 25 21 23 25 29 30 34 37 36 37 36 33 29 23 21 20 19 17 16 15 13 11 14 12 6 5 5 6 6 6 5 4 4 4 7 9 10 12
29 28 24 20 23 24 25 25 25 27 29 33 34 34 37 35 31 25 22 20 19 17 15 13 10 9 10 13 11 5 3 5 6 6 7 6 3 2 2 4 6 7 8
24 18 18 19 20 22 22 24 25 24 28 31 31 32 34 34 26 21 19 18 17 15 13 11 10 9 9 10 10 5 1 1 4 6 7 6 4 2 3 4 4 6 7
17 17 17 18 19 21 23 22 22 27 30 31 31 31 32 32 24 19 17 16 15 14 13 12 10 9 7 7 7 8 9 7 1 3 6 6 6 5 3 3 4 3 4
17 17 15 17 18 21 22 22 22 25 27 30 32 30 30 32 25 19 16 15 14 14 12 11 10 7 11 10 9 8 9 9 9 6 3 8 8 7 5 5 5 5 5
18 16 16 16 18 20 21 21 22 24 26 27 28 29 30 31 27 21 17 15 13 13 12 11 8 8 11 10 9 10 9 9 9 10 8 1 7 8 7 6 7 7 8
19 16 16 16 18 19 20 20 21 23 25 26 26 27 28 29 29 23 18 16 14 12 11 10 8 9 8 9 9 9 10 10 9 9 9 9 4 4 8 8 8 8 9
18 17 16 16 17 19 20 20 21 22 24 25 25 25 26 27 27 26 20 18 16 13 11 9 8 6 7 8 9 9 8 8 7 7 8 9 8 5 3 5 7 9 10
18 17 16 16 17 19 19 20 21 22 23 24 25 25 23 25 25 24 23 20 17 14 12 10 8 7 7 8 8 8 8 7 7 7 7 7 6 6 5 5 5 5 6
16 16 16 15 16 18 19 20 21 22 23 24 24 24 23 23 23 22 22 21 19 16 13 11 10 9 8 8 8 9 9 8 8 7 7 6 6 6 6 6 6 6 6
15 15 16 16 15 16 18 20 21 21 22 22 23 23 23 22 21 21 20 19 18 17 14 12 12 11 10 8 8 8 9 9 9 9 8 7 7 7 7 7 8 8 8
16 15 16 15 14 15 17 19 20 21 22 22 22 23 23 22 21 20 19 18 17 16 15 14 13 12 12 11 9 9 9 10 10 9 9 9 8 8 8 8 8 9 10
17 16 15 14 14 15 17 19 20 21 21 22 22 22 22 22 21 20 19 18 17 16 15 14 14 13 12 12 11 11 10 10 11 11 10 10 10 10 10 10 10 11 11

GFSGL_700_spd_012.txt.gz
Wind_Speed
48 44 39 40 40 41 41 44 46 49 48 48 45 41 37 37 36 38 38 35 33 31 27 27 28 29 28 29 30 29 30 30 33 34 32 29 25 24 22 31 35 38 38
42 41 37 37 39 39 41 45 48 50 48 46 43 41 39 37 35 33 34 34 35 37 38 28 31 31 35 35 37 39 39 39 36 37 37 37 34 31 32 29 30 35 38
41 41 40 37 41 41 44 47 47 46 46 41 39 36 34 33 33 33 33 34 35 34 34 37 37 35 38 37 36 37 39 37 38 40 41 38 36 33 31 34 36 37 38
44 39 41 48 49 46 46 44 44 44 42 39 34 33 33 34 34 34 33 32 32 34 35 35 35 36 35 34 34 33 34 34 33 35 36 36 34 32 31 30 32 31 34
38 29 42 43 42 52 43 47 44 43 40 38 35 33 33 32 30 33 33 33 34 37 37 36 35 34 35 37 36 37 42 37 37 36 37 36 36 33 29 25 26 27 29
48 39 45 50 33 42 35 47 41 38 39 36 35 35 33 33 36 38 38 38 39 40 41 38 36 36 34 31 31 32 37 36 33 33 34 36 35 34 34 34 36 37 38
41 47 52 59 48 44 43 44 40 37 34 37 34 36 37 36 38 42 42 42 43 42 40 37 35 34 33 32 33 34 34 33 32 29 31 31 33 31 32 34 35 40 42
37 43 53 44 46 34 42 39 43 37 38 32 34 37 41 37 39 42 44 41 38 38 36 33 31 29 28 30 32 33 32 31 32 34 34 30 31 30 32 32 35 38 39
33 43 49 44 43 34 42 38 40 38 31 32 35 39 39 40 42 42 41 39 37 35 32 29 27 25 24 25 28 29 29 28 30 31 31 30 29 28 28 31 32 33 34
39 41 45 42 33 37 40 33 36 33 29 37 41 33 36 41 40 39 40 38 37 35 31 25 22 21 22 20 22 22 25 25 26 26 27 27 28 28 28 30 32 34 31
44 46 41 42 32 41 37 37 34 32 36 37 31 35 39 39 39 40 40 37 34 31 27 23 19 17 20 22 23 23 25 26 24 24 24 24 24 24 24 25 26 27 24
37 36 32 32 33 34 34 31 27 35 33 29 32 36 39 38 38 38 36 30 27 28 27 24 22 20 20 21 22 21 21 20 20 19 15 11 9 6 5 7 10 14 17
39 34 29 28 28 28 25 26 27 30 28 29 32 37 38 36 38 35 28 25 24 24 23 21 20 18 16 15 15 17 16 12 9 7 6 4 3 3 3 4 7 10 14
37 32 29 26 23 20 22 25 27 26 25 28 32 36 37 35 38 30 24 21 21 21 20 18 17 14 13 12 14 8 4 4 4 5 5 5 4 3 4 5 5 10 11
32 27 22 19 19 19 20 23 25 25 25 28 31 34 36 36 35 29 24 22 21 21 19 17 14 13 12 11 11 7 3 3 4 5 5 6 5 3 2 3 3 6 7
28 22 19 19 17 18 20 23 24 24 25 27 28 30 32 33 34 28 22 20 19 19 17 16 15 14 13 13 14 13 8 4 3 5 6 7 6 5 3 3 0 3 7
24 21 20 18 18 18 20 22 24 24 25 26 28 29 31 32 34 29 21 19 17 17 17 16 15 11 12 13 12 11 10 7 2 6 8 9 9 8 5 3 3 3 3
21 20 19 17 17 18 20 22 23 24 24 27 28 29 30 32 32 30 22 19 17 16 16 15 13 9 12 11 10 10 9 8 7 5 4 9 10 9 7 5 5 5 5
22 18 18 17 17 18 19 21 22 23 24 25 26 27 28 29 30 30 26 21 18 16 15 14 9 7 11 12 12 11 10 9 8 8 8 2 8 10 9 7 6 7 8
22 20 19 18 17 17 19 20 21 22 24 26 26 26 26 26 28 28 27 23 19 16 14 13 10 7 8 11 11 11 11 10 10 10 9 8 5 3 7 8 9 9 10
20 20 19 18 17 17 18 19 21 22 24 25 26 26 25 24 25 26 27 25 22 18 15 12 10 9 9 9 10 11 10 10 9 9 9 8 7 6 5 4 5 7 8
20 19 18 17 16 17 17 18 19 21 23 24 25 25 24 23 23 24 25 24 23 20 17 14 12 10 9 9 9 9 9 9 9 8 8 8 7 6 6 5 5 5 6
20 19 18 16 16 16 15 16 18 20 22 23 24 24 25 25 23 21 22 23 22 20 18 16 14 12 11 11 10 9 9 9 8 8 8 8 8 7 7 7 7 7 7
20 19 18 17 16 15 14 15 17 20 21 22 23 23 24 24 24 22 20 21 21 20 18 17 15 13 12 12 11 10 9 10 10 9 9 8 8 8 8 8 8 8 8
18 19 18 17 16 14 14 15 17 19 20 21 22 22 22 23 24 23 21 20 20 20 19 17 16 15 14 13 12 12 12 11 10 10 10 10 9 9 9 9 9 9 9
20 21 19 18 16 15 15 16 17 18 19 20 20 20 21 22 23 23 23 21 19 19 19 18 17 15 14 14 13 13 12 12 11 11 11 10 10 10 10 10 10 11 11

GFSGL_700_spd_018.txt.gz
Wind_Speed
44 41 40 41 42 43 41 46 48 52 50 46 53 50 33 35 36 37 37 36 36 34 31 29 29 31 33 33 34 35 38 42 43 39 36 35 37 36 31 28 28 28 25
41 39 40 42 43 44 47 51 53 45 48 48 47 32 26 32 37 35 33 31 30 29 31 34 35 36 37 38 39 39 40 41 43 45 45 44 39 38 39 42 36 31 29
38 38 39 42 44 48 51 55 45 45 46 49 34 26 29 35 38 34 28 30 32 33 35 37 39 40 41 41 41 42 42 41 41 42 42 41 37 36 40 41 38 35 33
38 38 41 42 47 52 54 50 44 49 41 42 41 33 34 37 38 31 32 34 36 38 40 42 44 44 43 42 42 42 43 42 41 41 41 41 41 37 35 33 34 37 35
43 43 45 49 53 40 40 45 48 47 40 24 27 31 35 38 34 34 36 37 39 42 44 43 43 43 43 42 40 38 37 38 38 38 39 39 38 35 34 32 32 34 32
44 47 50 45 41 38 41 42 40 31 36 26 31 34 32 38 34 36 37 39 44 45 43 43 43 42 40 38 36 33 35 36 36 36 38 38 38 32 28 28 30 32 33
47 48 41 40 40 41 40 38 34 28 26 27 30 32 35 35 36 36 40 43 44 43 45 43 40 36 33 31 30 29 29 31 33 34 37 37 35 32 30 28 28 31 33
43 41 39 39 39 40 40 34 30 21 24 26 31 29 31 33 34 37 40 43 42 43 38 33 34 32 29 27 25 23 23 24 27 29 32 31 32 30 29 27 29 31 32
40 40 40 41 39 37 37 31 25 23 24 24 26 29 30 30 34 37 42 42 42 36 30 29 31 30 27 25 23 23 22 20 22 23 25 27 27 27 26 26 26 29 30
40 41 42 40 38 37 33 30 28 26 24 24 27 30 29 31 35 38 42 43 39 31 27 27 27 25 23 21 21 23 21 18 20 22 23 25 24 23 24 24 23 26 26
40 41 39 37 37 33 30 27 23 20 22 24 27 27 28 31 33 36 39 40 35 29 29 28 26 23 20 18 17 19 18 16 14 16 18 19 20 21 20 20 20 21 22
38 38 36 35 33 28 25 20 18 19 21 24 25 24 27 30 31 34 37 37 30 28 27 27 25 23 21 18 17 16 16 15 13 10 9 10 11 12 12 11 11 11 9
37 36 35 32 27 24 20 19 18 19 22 23 23 23 25 27 28 31 33 32 26 26 26 26 24 23 20 18 17 16 14 9 6 5 3 3 4 3 5 6 5 2 1
35 33 32 28 23 21 20 18 18 19 21 22 21 22 25 26 27 28 29 29 25 24 23 24 23 21 19 17 17 16 11 6 3 1 1 2 3 3 3 3 5 5 8
33 31 29 26 22 21 19 18 17 18 20 21 22 23 25 25 27 28 30 31 29 26 24 23 21 18 17 18 17 16 14 8 4 1 1 2 4 3 3 3 2 1 4
30 29 27 24 22 21 20 18 18 18 20 20 22 23 25 25 25 25 26 28 29 26 24 22 20 15 16 17 17 16 14 12 6 2 1 3 4 4 4 3 2 2 2
28 28 25 21 22 20 20 18 16 17 20 20 21 23 24 24 24 23 24 26 27 27 23 21 19 16 14 17 18 17 16 14 12 8 2 4 6 7 7 6 5 6 4
28 26 22 18 20 20 20 18 17 16 17 18 19 21 22 23 23 23 22 23 24 24 24 20 18 16 15 15 16 15 15 14 12 10 7 3 8 10 10 9 9 9 8
25 23 20 19 19 19 19 18 16 16 17 17 18 20 22 22 22 22 22 21 21 21 21 21 18 17 16 15 15 16 15 13 11 10 9 7 4 5 9 10 11 11 11
23 22 19 18 19 18 18 17 16 16 15 16 18 19 21 21 21 21 21 21 20 20 20 20 20 18 16 15 15 14 14 15 13 11 9 8 7 5 2 4 8 10 11
22 22 20 19 19 18 17 16 16 16 14 15 16 17 19 19 19 19 19 20 20 18 18 18 18 18 17 16 15 14 13 11 12 11 10 8 7 6 4 3 2 3 4
22 21 19 19 18 19 18 17 17 16 15 15 15 16 17 17 17 18 19 19 20 19 18 17 17 17 16 15 15 14 13 12 11 11 11 10 8 7 6 5 5 5 4
21 19 19 18 18 19 18 17 17 16 15 15 15 15 15 16 16 17 18 19 19 20 20 18 17 17 17 16 15 14 14 13 12 12 11 10 10 9 7 6 7 7 6
19 18 18 17 19 20 18 17 17 16 16 16 16 15 15 15 15 16 17 18 19 20 20 21 19 18 17 17 16 16 15 14 14 13 12 12 10 9 9 8 8 7 7
18 18 18 18 19 20 19 18 17 17 17 17 17 16 15 15 15 16 16 17 18 20 21 22 22 21 19 18 17 16 16 15 14 14 13 12 11 10 9 9 9 9 8
19 18 18 18 18 18 18 18 18 18 19 19 18 18 17 17 16 17 17 18 19 21 22 22 23 22 21 20 18 17 16 15 14 13 13 12 11 10 10 9 9 9 9

GFSGL_700_spd_021.txt.gz
Wind_Speed
42 42 43 42 40 40 42 45 49 52 54 55 49 45 41 31 30 31 31 38 39 35 31 33 33 35 37 39 39 39 40 39 44 44 44 44 43 40 35 34 35 36 34
41 42 41 40 42 44 47 49 53 59 58 53 48 42 34 41 31 30 35 41 36 32 34 36 36 38 41 43 44 44 44 43 44 45 42 42 43 42 42 40 37 38 38
42 43 43 44 45 46 50 54 53 49 47 45 44 37 29 25 28 34 36 38 36 36 36 38 42 44 44 44 43 43 43 42 43 45 44 42 42 41 39 37 37 42 44
43 43 43 44 47 49 50 49 45 42 41 38 32 27 28 27 31 35 38 37 36 36 39 43 45 45 46 47 46 43 41 40 39 39 40 40 39 39 38 36 35 36 37
43 42 44 46 46 46 45 43 40 37 36 31 31 28 30 33 34 37 38 36 36 40 42 44 45 47 46 43 41 39 37 37 35 36 35 35 35 36 35 34 34 32 33
42 44 45 44 44 44 44 41 38 36 30 29 25 26 27 31 35 36 35 36 39 42 44 45 44 41 38 35 35 33 31 32 33 32 32 31 31 32 32 32 32 30 30
44 45 45 45 44 44 42 39 37 33 26 22 25 25 28 30 32 33 34 37 39 42 44 43 39 36 36 35 33 31 29 27 28 28 28 28 29 30 30 29 28 29 29
45 45 46 45 44 43 39 36 35 30 25 25 24 24 26 29 31 33 35 37 40 42 41 36 34 34 33 32 30 28 24 22 22 23 24 24 24 25 28 28 28 29 28
43 44 43 44 43 39 37 35 33 28 24 23 23 24 27 29 30 33 36 37 40 41 34 30 31 31 30 28 27 26 23 20 21 22 22 21 21 22 21 22 23 25 25
42 41 42 42 40 37 35 33 29 25 23 21 23 26 28 28 30 33 35 37 40 39 30 27 29 29 28 26 25 24 22 19 18 19 21 21 21 20 19 19 20 21 22
40 40 39 39 37 36 34 30 25 21 21 22 24 25 27 28 30 32 34 36 40 37 30 27 27 28 27 25 23 21 18 16 15 14 13 14 16 16 16 17 18 19 19
38 36 37 38 35 34 30 25 23 22 21 22 24 25 26 28 30 32 33 34 37 35 29 27 27 28 26 23 21 20 17 14 12 8 8 7 7 8 9 10 11 10 10
36 37 38 37 33 32 27 24 24 22 21 22 23 24 25 27 30 31 31 31 32 31 28 25 25 25 23 20 20 21 16 11 8 5 4 3 2 1 1 1 2 2 1
36 37 36 34 31 29 26 23 23 21 20 21 22 23 25 27 29 29 29 28 28 29 27 24 22 20 22 23 22 20 17 11 7 4 3 2 1 2 1 2 2 3 6
38 35 32 32 30 26 24 23 22 21 20 20 21 22 24 26 28 28 28 26 26 28 27 24 21 17 17 20 20 20 17 13 7 4 1 1 1 1 2 2 3 4 6
38 34 31 31 27 25 23 22 21 21 20 19 20 22 24 26 26 26 26 25 25 26 27 25 22 19 17 17 19 20 17 15 11 4 1 2 2 2 2 3 2 3 2
37 32 30 27 24 23 23 21 21 21 19 20 19 21 23 24 25 25 25 24 24 24 25 25 23 20 18 17 17 18 18 16 14 11 5 4 5 5 5 5 5 5 2
35 32 29 26 24 22 22 22 21 20 17 17 19 20 21 22 23 23 24 24 23 22 23 23 22 21 19 18 17 16 16 18 16 14 11 8 6 8 9 9 9 8 6
32 31 28 26 24 23 22 22 21 19 18 16 17 18 19 20 21 21 22 22 23 22 21 21 22 21 21 19 18 17 16 13 15 14 12 11 8 4 8 10 10 10 10
31 30 27 26 23 22 22 21 21 19 18 17 16 17 18 18 19 20 20 21 22 22 21 20 21 21 20 20 19 18 16 15 13 13 13 11 9 7 5 4 7 10 11
30 29 28 25 23 21 21 21 20 19 18 17 16 16 17 17 17 18 19 19 20 21 22 21 20 20 20 20 19 19 18 16 13 13 11 12 11 9 7 5 4 4 5
29 28 27 23 22 21 21 20 20 19 19 18 17 17 17 17 17 16 17 18 18 19 21 22 21 20 20 19 19 19 18 17 16 15 13 12 11 10 9 8 7 5 5
28 26 25 21 22 21 20 21 21 20 19 18 17 18 18 17 17 16 16 17 17 18 20 22 22 22 21 20 19 19 18 17 16 16 15 14 13 12 10 9 8 7 6
26 24 23 21 22 21 21 21 22 21 19 18 19 19 18 18 18 18 17 17 18 19 20 21 22 23 24 23 21 20 19 18 17 16 15 14 13 13 12 10 9 8 8
25 23 23 22 22 22 21 22 21 21 20 19 20 21 21 20 19 19 19 19 19 19 20 20 22 23 24 25 24 22 20 19 18 16 15 14 14 13 12 12 11 10 10
24 23 23 24 25 24 24 23 22 20 20 21 22 22 23 23 21 21 21 20 20 20 20 21 23 24 24 25 26 24 21 19 18 16 15 14 13 12 12 12 12 12 11

GFSGL_700_spd_024.txt.gz
Wind_Speed
40 39 41 42 43 46 47 47 49 50 48 47 47 46 43 40 31 38 35 30 32 36 40 40 38 38 38 38 40 42 43 42 46 46 45 41 40 41 41 39 38 40 36
38 40 41 43 45 47 49 51 50 49 46 46 43 39 36 31 25 27 30 32 36 38 41 38 37 39 41 43 45 44 43 43 45 46 42 40 39 41 41 42 36 34 41
39 40 42 44 46 48 49 48 47 46 45 41 37 36 30 28 32 29 34 36 38 40 37 37 40 43 45 45 46 45 42 41 40 41 40 37 37 36 39 40 38 33 34
40 42 45 47 48 48 47 46 46 44 41 38 35 30 28 25 27 32 34 37 37 36 37 40 42 45 46 45 42 39 37 36 36 35 33 33 34 32 34 36 35 34 33
42 45 47 48 48 47 47 46 45 42 39 35 33 28 24 27 30 31 34 33 34 35 38 40 43 45 42 38 37 37 37 37 35 33 30 29 31 28 28 28 31 30 30
44 46 47 48 47 47 48 46 44 39 36 33 28 26 28 28 30 30 31 32 34 37 39 41 44 40 34 34 35 35 34 32 31 29 28 26 25 27 26 21 25 28 28
43 45 46 47 47 47 46 44 41 37 34 30 27 25 27 27 27 29 29 31 34 36 38 42 41 34 33 35 33 32 30 27 26 26 24 25 23 20 22 25 28 26 25
43 45 45 45 45 44 42 40 37 34 31 28 25 25 24 25 27 28 30 32 34 36 38 41 37 32 32 33 33 31 29 26 23 22 24 22 22 19 17 21 24 27 26
44 44 44 44 42 40 40 38 35 32 29 26 24 23 23 25 27 28 30 32 34 35 37 39 35 31 31 31 32 30 27 24 20 19 21 23 20 19 19 19 18 20 20
43 42 42 41 40 40 39 35 33 30 26 24 23 23 24 25 26 28 31 33 34 35 35 36 32 29 30 29 28 27 26 22 19 16 16 17 16 14 16 18 16 17 16
41 39 40 40 40 39 36 34 31 28 26 25 23 22 24 25 26 28 32 34 35 34 36 35 30 26 25 25 24 24 25 22 17 15 11 10 10 10 10 13 15 16 16
39 38 38 39 39 36 34 33 30 27 26 24 23 23 24 25 26 29 31 33 33 33 33 33 29 24 21 23 23 26 24 19 15 11 8 8 7 6 5 5 7 9 9
37 37 38 39 37 33 33 32 28 26 24 23 22 22 24 24 26 28 30 31 30 30 30 31 29 23 20 21 23 25 23 19 13 9 7 6 5 5 5 5 3 4 5
37 36 37 38 35 32 31 29 26 25 24 22 21 21 23 23 25 28 29 29 28 27 26 27 28 24 22 21 21 23 22 20 12 8 6 5 5 5 5 6 5 3 4
37 36 36 37 34 32 29 27 25 24 23 21 20 21 21 21 24 26 28 27 26 25 24 25 26 23 20 20 19 20 21 18 16 10 6 3 2 3 2 2 2 2 5
36 36 36 35 33 30 28 27 25 23 22 21 19 20 20 20 22 25 26 26 25 24 23 23 24 24 22 19 19 18 18 19 16 14 8 5 3 2 1 3 4 4 3
35 34 33 32 31 29 27 26 24 23 22 21 20 19 19 19 21 23 23 24 24 24 24 23 23 23 22 21 19 18 17 16 17 15 12 8 7 7 5 5 4 4 3
34 32 30 30 29 28 26 24 23 23 21 20 20 19 18 18 19 20 21 22 23 23 23 22 21 22 22 21 20 19 17 17 15 16 15 13 11 7 9 8 8 7 6
33 31 29 29 28 27 25 24 23 23 22 21 19 19 18 17 18 19 19 19 20 20 22 22 22 21 21 22 21 20 19 17 16 14 14 14 13 11 9 7 9 10 9
32 30 29 29 28 26 23 23 22 22 21 20 19 19 18 17 18 18 18 18 18 18 19 21 22 22 21 20 21 21 20 19 17 16 15 13 13 12 10 9 8 8 9
30 29 28 28 27 25 22 22 22 22 21 20 19 19 18 18 18 17 18 17 17 17 18 20 21 22 22 21 21 21 20 20 18 16 15 14 12 11 11 9 8 7 6
29 29 27 27 26 24 22 22 22 22 21 21 20 20 20 18 18 18 18 18 17 17 17 19 20 21 22 22 22 21 20 20 20 18 16 14 13 12 10 10 9 7 6
30 28 27 26 24 23 22 22 22 22 21 21 20 19 20 19 19 19 19 19 18 18 18 18 19 20 21 22 23 23 22 20 19 18 17 16 14 13 12 11 10 9 8
29 28 27 26 24 23 23 23 23 23 22 20 20 20 20 21 21 20 20 20 20 19 19 19 19 20 21 22 23 23 24 22 19 18 17 16 15 13 12 11 11 10 10
29 28 27 26 25 24 24 25 26 26 25 24 21 19 20 21 22 22 23 22 21 20 20 20 20 20 22 22 22 23 24 24 21 18 17 16 14 13 13 12 11 11 11
28 28 27 26 25 25 25 25 26 28 29 28 27 26 24 24 24 24 25 24 23 22 22 21 21 21 21 22 22 23 24 24 22 19 17 16 15 13 12 12 11 11 12

GFSGL_700_spd_027.txt.gz
Wind_Speed
39 42 35 40 39 41 42 43 44 45 45 45 45 43 40 37 34 30 25 29 28 30 35 38 40 40 37 38 40 43 45 45 49 45 44 42 40 41 39 37 38 38 39
40 36 37 39 41 41 42 43 44 46 46 46 44 40 37 34 31 27 27 29 30 34 36 39 38 38 39 40 43 45 46 44 43 42 38 37 36 35 37 37 36 37 38
33 35 39 40 40 42 44 45 45 46 46 45 41 38 34 31 30 26 26 29 33 34 36 36 37 38 39 42 44 43 40 38 38 40 38 36 35 33 33 34 35 34 36
35 36 38 40 42 44 45 46 46 46 45 42 38 33 31 28 24 25 29 30 31 33 33 35 37 38 41 43 39 35 35 37 37 36 35 33 31 28 26 27 28 30 31
34 37 39 42 43 44 45 45 45 44 44 40 35 31 28 26 27 26 28 28 30 30 32 34 35 37 40 37 34 34 35 35 35 33 32 30 27 24 25 25 24 22 23
35 38 40 42 43 44 44 45 44 44 42 37 33 29 26 26 26 27 25 27 28 31 33 34 35 37 38 33 31 33 34 34 32 30 29 26 26 22 22 21 22 20 25
36 38 40 42 43 44 44 43 42 41 38 34 30 28 24 24 23 24 25 26 28 31 34 35 34 36 36 33 31 33 32 29 27 27 27 26 24 22 20 17 18 22 24
37 39 41 43 43 43 42 41 39 38 35 32 28 25 23 22 23 24 24 26 29 32 34 34 34 36 34 31 31 32 28 26 25 24 21 20 20 23 23 18 17 19 28
38 40 42 43 43 41 39 39 37 36 33 30 26 24 23 22 23 24 24 27 29 31 31 31 33 34 32 29 28 27 27 26 24 22 20 18 18 17 17 19 19 15 15
39 40 42 42 41 38 38 38 35 34 32 28 25 24 22 22 22 23 25 28 29 30 30 30 31 32 29 25 25 26 27 27 23 19 15 15 13 11 11 14 15 17 16
39 41 42 40 38 37 38 37 34 34 30 26 25 24 22 21 22 22 25 28 30 30 30 28 29 29 26 22 23 25 26 26 21 17 13 10 10 9 7 7 9 12 14
40 41 40 38 36 36 35 34 32 31 27 24 24 23 22 21 21 21 24 27 29 29 28 27 27 27 25 22 21 23 24 24 19 15 12 10 8 7 7 6 5 6 6
41 41 38 36 35 35 34 32 30 29 25 24 23 22 21 20 20 20 23 26 27 27 26 26 26 26 24 22 20 21 22 21 18 12 10 8 7 7 8 10 4 3 4
40 38 37 35 34 33 32 31 28 27 25 23 23 22 21 19 19 19 21 23 24 25 25 24 24 24 25 24 21 20 20 20 18 12 8 6 4 4 5 8 6 5 5
36 34 33 32 32 31 30 29 26 25 23 23 22 21 20 18 17 17 20 21 22 23 24 23 22 22 22 22 21 20 19 18 18 16 10 6 5 3 1 0 4 2 4
31 31 31 32 31 29 28 26 24 24 23 22 21 21 20 17 16 16 18 19 20 22 22 22 22 21 21 21 20 20 18 16 16 15 14 10 6 6 5 4 2 2 3
31 32 32 31 29 28 28 26 23 23 22 21 22 20 19 17 15 15 16 17 18 19 20 21 21 20 20 20 20 20 19 17 15 14 13 12 11 7 8 8 6 4 3
32 31 32 30 28 27 27 25 23 22 21 21 22 21 19 17 16 14 15 15 16 16 18 20 20 20 20 19 19 19 19 19 18 16 14 14 12 11 7 7 8 7 5
33 31 31 29 27 26 26 25 23 21 20 20 21 21 20 19 17 15 14 14 14 14 15 18 19 20 20 20 20 19 18 19 18 17 16 14 13 12 11 9 6 6 7
33 31 29 28 28 27 26 25 22 20 19 19 20 20 20 19 18 17 15 15 14 14 14 15 17 18 19 20 20 20 20 18 18 18 17 16 14 12 11 10 8 7 5
33 32 30 29 27 26 25 23 21 19 19 19 19 20 20 19 19 18 17 16 15 15 14 14 16 16 17 19 20 20 21 20 18 17 17 16 15 14 12 11 9 8 6
33 32 31 29 28 26 24 22 21 20 19 19 19 19 20 19 18 19 18 17 17 16 16 15 16 16 17 17 18 20 21 21 20 18 16 16 16 14 13 12 10 8 8
34 33 31 30 28 26 24 22 21 21 20 20 19 19 19 19 18 18 19 19 19 18 18 17 17 17 17 17 17 18 20 21 21 20 18 16 15 15 14 13 12 10 9
34 33 31 29 27 25 24 23 22 22 22 22 22 22 21 20 17 17 19 21 21 20 20 19 19 18 18 18 18 18 18 19 21 21 18 16 15 14 14 13 12 11 10
35 33 30 28 26 24 23 23 23 23 23 24 25 25 24 23 23 22 21 21 22 23 23 22 21 19 18 18 18 18 18 19 20 21 19 16 15 14 13 13 12 12 11
33 31 29 27 25 23 22 22 22 23 24 26 27 28 30 30 30 29 27 26 25 24 25 24 23 22 22 20 19 19 18 18 19 20 19 17 14 14 13 13 12 11 11

GFSGL_700_spd_030.txt.gz
Wind_Speed
38 36 41 40 33 34 35 37 39 41 41 42 42 42 42 39 36 31 28 27 29 28 30 32 37 36 36 34 34 34 33 34 40 44 38 36 37 38 38 37 37 36 35
36 40 41 34 33 35 36 38 40 42 43 43 43 43 41 38 33 28 31 29 27 29 32 34 35 36 36 38 38 40 42 44 43 41 38 39 40 39 38 38 36 35 32
39 40 34 33 33 35 37 40 42 43 43 43 43 42 39 35 31 31 27 25 27 31 32 32 34 35 36 37 39 41 43 39 37 39 40 39 38 35 34 32 27 24 29
38 31 32 32 34 37 39 41 43 43 42 42 42 42 37 32 29 26 26 26 27 28 30 30 32 34 36 37 38 40 39 35 35 38 39 37 33 30 25 25 24 23 20
32 31 32 34 36 38 40 42 42 42 41 42 42 39 33 29 26 26 25 24 25 27 28 30 33 34 34 35 37 36 33 33 35 36 35 31 28 23 22 22 24 22 22
32 31 32 34 37 39 39 41 41 41 42 41 39 35 32 28 25 23 21 24 25 26 28 30 33 34 34 34 34 31 30 32 32 31 32 31 28 25 23 20 22 19 20
30 30 33 35 37 38 39 40 41 41 40 38 35 34 30 27 24 22 22 23 24 26 29 31 32 32 32 33 32 27 26 26 28 29 30 25 24 21 19 21 21 20 19
28 31 33 37 38 39 40 40 39 39 37 35 34 32 27 26 24 22 21 22 23 26 29 31 31 29 30 31 29 25 25 26 28 27 26 26 23 19 19 23 22 20 20
29 31 36 37 38 40 40 39 37 36 35 34 33 28 25 26 22 21 21 22 23 26 28 30 28 27 28 29 26 24 25 26 27 25 23 20 16 16 16 18 18 19 19
30 35 36 37 39 40 40 37 34 34 33 32 31 26 24 24 21 20 21 22 24 26 27 27 27 25 27 27 25 24 25 26 25 21 18 15 12 11 12 13 14 14 15
32 35 36 38 40 40 38 36 34 32 32 31 28 25 24 22 21 19 20 21 24 26 25 25 25 25 25 25 24 22 23 25 23 18 15 12 10 8 7 9 10 14 12
33 36 38 40 40 38 36 34 33 30 30 28 26 24 23 21 19 18 19 21 23 24 24 24 23 23 23 23 23 21 21 22 22 17 12 10 8 6 6 9 9 9 9
34 36 38 39 36 33 32 32 30 29 28 27 25 23 22 21 20 17 18 19 21 22 22 23 22 22 21 22 22 22 21 20 21 18 12 9 6 4 5 9 5 5 5
33 36 36 33 32 32 32 29 27 28 27 25 23 22 21 20 19 18 17 18 19 19 20 21 21 21 21 21 22 22 21 19 18 17 13 8 7 5 3 3 4 3 4
33 33 32 32 33 32 30 27 27 26 25 24 22 21 21 20 19 17 17 17 17 18 18 20 20 21 20 20 21 21 21 20 18 17 16 13 9 7 6 6 5 3 3
32 32 32 32 31 29 28 28 27 25 25 22 21 21 21 20 19 17 17 16 16 16 16 17 18 19 20 19 19 19 20 19 19 17 15 15 12 9 9 8 7 5 4
32 33 32 32 30 28 28 27 26 26 24 22 21 21 21 20 19 18 17 16 15 15 14 15 16 17 18 19 19 18 18 18 18 17 16 14 14 12 8 9 9 8 5
32 32 32 30 29 28 28 28 27 26 25 23 20 20 20 19 18 18 18 18 16 14 14 14 15 15 16 17 18 18 18 18 17 18 17 16 14 13 11 9 6 8 8
32 33 31 30 30 29 29 28 26 26 25 23 21 20 19 20 19 18 19 19 18 16 15 14 14 14 15 15 17 18 18 18 17 16 17 16 15 14 12 11 8 6 6
35 32 32 32 31 30 29 28 27 26 25 23 21 20 20 20 19 19 19 18 19 18 17 16 16 15 14 15 15 16 17 18 19 18 16 16 16 15 13 11 10 8 6
37 35 34 34 32 31 30 29 27 25 24 22 21 20 20 20 19 19 19 18 19 19 19 18 17 16 16 15 15 16 16 17 18 19 18 16 15 15 14 13 11 9 7
38 37 36 35 34 32 31 29 27 25 24 23 21 21 21 20 19 19 18 18 19 20 20 20 19 18 17 17 16 16 16 16 17 18 19 18 16 15 15 14 12 10 8
39 38 38 36 35 33 31 29 27 25 24 24 23 23 23 22 20 20 19 18 19 20 20 21 21 21 20 18 18 17 17 16 16 17 18 19 18 16 14 14 13 12 10
39 38 38 37 34 32 30 28 27 25 24 24 24 24 24 24 24 22 21 19 19 21 22 22 22 22 23 21 19 19 18 17 17 16 17 18 18 17 15 14 13 12 11
34 32 33 33 30 29 30 28 25 24 23 22 22 23 25 26 27 26 26 27 27 26 24 24 24 24 25 24 22 21 20 18 18 17 16 17 17 17 16 14 14 13 12
32 34 35 32 28 28 29 27 24 23 23 23 23 24 25 26 27 28 28 28 29 31 32 29 27 26 26 26 24 24 22 20 19 18 17 17 17 17 17 15 14 13 12

GFSGL_700_spd_033.txt.gz
Wind_Speed
34 38 41 42 38 36 35 34 35 35 36 38 40 41 40 40 40 35 27 23 28 33 34 31 28 32 35 30 30 32 33 33 41 46 43 42 38 38 39 39 40 39 38
38 42 44 37 34 34 34 34 35 36 38 40 41 41 41 39 37 36 31 32 32 30 30 30 33 34 30 32 33 37 38 39 42 45 44 40 39 39 41 41 37 33 33
40 44 43 34 34 33 33 35 36 38 39 40 41 41 40 40 39 35 30 29 28 29 29 30 29 30 32 34 36 38 39 40 42 44 41 39 40 40 36 33 31 28 26
42 45 34 32 31 33 33 35 37 38 40 41 41 41 41 38 36 33 29 27 26 28 26 27 29 30 33 35 36 37 38 40 40 37 36 37 35 32 26 28 24 25 26
43 40 30 33 33 33 33 35 39 40 41 41 41 40 38 37 35 30 27 26 26 26 27 27 29 33 34 34 34 33 35 36 34 33 32 32 32 29 27 26 28 27 22
44 33 32 32 31 31 35 39 38 40 40 39 40 38 36 37 34 29 26 26 25 25 26 27 29 33 35 35 34 31 33 32 29 30 31 32 30 24 22 24 23 23 24
37 34 32 30 28 33 37 37 38 39 39 38 38 36 35 36 31 27 26 25 24 24 26 27 29 31 33 31 32 33 31 28 28 29 30 30 29 27 28 26 22 23 24
39 31 27 29 32 33 35 38 39 39 38 36 35 34 34 35 30 27 25 24 23 24 26 27 29 30 31 29 30 30 29 26 27 27 28 28 25 22 20 20 21 22 22
35 28 25 29 32 33 37 38 39 39 36 33 32 33 33 32 30 24 24 23 23 23 25 27 28 27 28 28 29 28 27 25 24 26 26 22 20 16 14 15 14 16 17
24 23 28 30 32 36 38 38 38 37 35 34 31 30 32 30 29 24 24 23 22 22 24 26 28 25 26 26 27 27 26 24 24 24 22 17 15 13 12 13 14 17 20
22 28 25 30 35 37 38 36 34 34 33 32 32 30 30 29 27 25 22 22 21 21 22 24 25 26 26 25 25 25 25 23 22 22 21 15 13 11 8 7 10 13 15
25 23 27 32 35 37 36 34 33 33 33 32 31 30 26 27 26 23 22 20 20 20 21 22 22 24 24 23 23 23 23 22 21 20 20 15 11 10 8 9 10 9 11
20 23 29 33 35 35 35 34 33 31 33 31 30 28 27 26 26 23 20 20 19 19 20 20 21 22 22 21 21 21 21 21 20 19 19 17 13 10 9 7 7 5 8
22 27 31 34 34 33 32 33 35 33 32 30 28 26 25 25 24 25 22 19 18 18 19 18 18 20 20 20 20 20 21 21 21 19 18 17 15 12 11 10 8 8 9
25 29 31 33 33 34 34 34 34 31 29 27 26 26 26 25 23 22 22 22 20 19 19 18 18 18 19 20 20 19 20 20 21 20 19 17 17 15 12 12 12 12 12
28 30 32 34 35 34 35 33 32 30 27 26 25 26 26 25 24 22 21 21 21 21 20 19 17 17 17 18 19 19 19 19 20 20 19 18 17 17 15 12 12 11 10
30 32 34 35 35 35 35 35 32 30 28 26 25 25 25 23 23 22 22 21 21 21 20 19 18 16 16 16 17 18 19 19 19 19 19 18 17 16 15 14 10 11 10
33 34 36 36 36 36 34 34 32 31 30 28 27 24 23 22 22 22 22 22 21 21 21 20 19 18 16 15 16 16 17 18 19 19 18 18 18 16 15 14 12 9 9
36 38 38 38 36 36 35 34 32 31 30 28 27 26 23 22 22 21 21 22 21 22 22 21 20 18 18 17 16 16 16 17 18 18 19 18 17 16 16 14 13 11 9
40 42 42 41 39 37 35 34 32 31 30 29 27 25 23 25 22 21 21 21 21 21 22 22 21 20 19 18 17 17 17 17 17 18 18 19 18 16 15 14 14 12 11
41 34 37 41 39 39 38 36 34 32 31 30 28 26 24 24 24 23 22 21 20 20 21 22 22 21 21 20 19 18 18 18 17 17 17 18 18 17 15 14 14 13 11
41 42 41 38 37 35 36 36 34 33 32 30 28 26 25 25 24 23 23 22 21 20 20 21 22 22 22 22 21 20 19 18 18 18 17 17 17 18 17 15 13 13 12
43 42 41 40 37 35 34 33 32 31 31 28 27 26 25 26 25 24 24 23 23 22 20 20 21 23 23 23 22 22 21 20 19 19 18 18 17 17 17 17 15 13 13
41 38 37 35 33 33 34 33 28 29 31 30 26 25 24 25 26 27 26 25 25 24 24 24 23 23 24 25 24 23 23 22 21 20 19 18 18 17 17 16 16 14 13
39 38 36 33 33 35 34 30 28 30 29 29 26 24 23 24 25 26 26 26 26 27 29 30 30 29 28 28 26 25 25 24 23 21 20 19 18 18 17 17 15 15 14
37 35 30 31 34 35 32 30 29 29 30 30 27 25 24 25 26 26 26 26 26 27 29 27 27 28 30 31 30 29 26 25 25 23 21 20 19 18 17 17 16 15 14

GFSGL_700_spd_036.txt.gz
Wind_Speed
32 33 36 38 40 41 45 45 34 32 30 33 36 37 38 38 39 37 36 35 34 31 31 34 36 36 36 35 37 39 38 41 44 45 44 45 46 44 42 37 36 39 40
36 39 40 40 45 41 46 39 33 31 31 34 37 38 39 40 38 39 36 35 32 29 29 31 32 33 33 36 33 34 36 38 41 47 45 43 44 42 38 37 36 34 33
42 43 40 44 47 38 44 33 33 31 32 36 38 39 39 41 37 38 35 33 30 29 29 30 30 29 29 31 32 35 37 39 40 42 43 41 39 35 35 34 32 29 26
44 40 43 46 44 41 37 29 29 30 34 36 38 40 41 37 34 33 32 30 30 30 30 30 29 30 30 31 33 35 37 37 37 38 38 36 33 32 33 33 31 25 28
43 41 41 48 39 38 28 28 27 33 33 35 38 38 40 37 37 32 31 29 29 29 28 28 28 30 31 33 34 35 33 33 34 35 34 32 31 32 32 27 25 25 20
40 40 42 43 44 32 26 26 33 34 33 36 36 36 38 34 32 28 30 28 28 28 28 28 27 28 32 35 35 34 32 33 34 34 32 31 30 31 30 30 30 31 29
39 41 45 48 39 26 27 33 30 32 36 36 36 36 35 32 31 28 28 28 28 28 27 26 26 28 31 31 31 31 31 31 32 33 32 31 31 29 29 27 23 22 21
42 45 41 31 29 26 27 25 27 34 38 37 34 32 33 31 30 29 28 29 29 28 26 26 26 28 30 30 30 29 29 29 29 28 28 27 27 24 24 21 18 17 13
47 46 38 28 23 30 24 24 30 34 36 35 34 30 29 32 30 29 29 30 30 26 24 24 25 27 27 28 28 28 27 27 27 26 26 26 24 20 19 17 12 14 17
51 43 32 23 24 23 26 29 33 35 34 35 34 30 29 30 30 30 29 29 29 25 23 23 24 24 25 27 27 27 26 26 26 23 21 22 19 17 15 14 13 13 16
39 31 24 26 19 25 30 33 35 34 33 33 33 29 28 28 30 29 29 28 26 24 22 21 24 23 24 25 26 26 26 25 25 24 21 20 18 14 11 10 13 16 15
34 31 21 19 22 26 30 34 36 35 34 32 32 32 29 29 29 30 26 23 24 23 21 20 21 22 22 23 24 24 24 24 24 22 21 19 19 15 13 11 11 11 10
28 22 19 21 25 28 32 35 35 35 34 29 31 32 31 29 30 30 26 22 22 22 21 20 20 20 20 20 22 23 22 21 21 22 21 19 18 18 14 13 12 11 11
24 26 24 25 28 31 33 34 35 35 34 32 31 30 29 30 29 27 26 25 23 21 21 21 19 19 18 19 19 20 21 22 21 21 21 21 19 17 17 15 14 15 15
21 22 26 29 31 33 34 36 35 34 32 33 31 30 30 30 28 26 26 26 26 24 21 20 19 18 18 18 18 19 19 20 21 21 21 21 20 18 17 17 14 14 15
24 27 30 33 34 36 37 37 36 36 35 33 32 30 29 28 27 26 26 25 25 26 24 21 20 19 18 18 17 17 18 19 20 21 21 20 20 19 18 17 16 12 12
29 32 34 36 38 39 39 39 39 36 35 34 33 30 27 26 26 25 25 24 24 25 23 22 22 20 19 18 17 17 17 17 18 20 21 21 20 19 18 17 16 14 10
33 35 37 39 41 42 40 38 38 38 37 33 30 31 27 25 25 25 25 24 23 23 23 22 21 21 19 18 18 17 17 17 17 18 20 20 20 19 18 17 16 14 13
41 42 42 43 44 41 39 40 39 36 35 34 31 29 28 26 25 24 24 24 23 22 22 21 21 21 20 18 18 17 17 17 17 17 18 18 19 19 18 17 16 15 13
43 43 43 37 36 38 41 44 39 38 36 33 32 29 28 28 25 23 23 23 22 21 21 20 19 20 20 19 19 18 17 17 17 17 17 17 18 19 18 17 16 15 14
47 45 43 40 36 39 42 39 37 36 35 35 33 29 28 26 25 25 25 24 21 21 19 19 19 20 20 20 19 19 19 18 18 18 17 17 17 17 18 17 16 15 14
50 49 47 44 42 40 35 33 32 32 32 34 31 28 27 25 24 24 24 26 25 22 21 20 18 18 19 20 20 20 20 20 19 18 18 17 17 16 16 17 16 15 14
51 49 46 38 37 35 32 33 32 33 33 30 28 29 29 28 24 24 24 23 22 22 22 22 21 18 18 19 20 20 21 21 21 19 19 18 17 16 15 15 15 15 14
45 42 40 37 35 38 35 30 30 32 31 26 25 28 30 27 24 23 25 24 23 23 23 23 24 24 24 24 23 23 23 23 23 22 21 20 18 17 16 15 14 14 13
42 39 35 30 29 30 28 29 29 29 29 27 25 24 26 30 26 25 23 23 25 26 26 26 26 25 25 25 26 27 26 26 26 24 22 21 20 19 17 16 15 14 13
39 34 24 30 27 26 32 32 34 30 31 30 28 28 30 29 27 19 23 23 25 25 25 25 26 26 27 26 24 24 25 26 25 26 25 22 21 20 18 17 16 15 14

GFSGL_700_spd_039.txt.gz
Wind_Speed
33 32 33 33 35 35 42 44 50 49 40 34 30 30 31 32 33 35 36 34 35 35 33 31 30 31 33 34 36 36 35 36 38 41 40 42 43 42 39 39 39 37 35
37 39 39 39 39 40 44 48 48 47 36 30 27 30 31 34 34 35 37 36 34 32 30 29 29 30 30 29 29 29 29 32 37 41 41 41 39 38 38 35 33 33 34
37 40 43 43 44 46 45 47 50 41 33 26 29 32 37 32 35 35 36 33 32 31 30 28 28 30 30 28 28 29 31 33 36 39 40 37 37 35 33 31 33 33 33
38 39 41 43 45 46 50 46 39 32 28 30 31 33 33 36 37 33 32 32 30 28 28 28 29 30 29 29 28 29 33 34 34 34 34 34 33 31 31 32 33 31 29
39 39 41 43 46 48 44 43 37 31 26 31 27 28 34 37 37 29 28 29 29 27 27 27 28 28 29 29 28 30 32 32 32 32 32 32 30 28 29 30 32 31 23
39 40 43 46 46 48 49 47 35 28 29 31 25 30 33 37 36 30 27 28 29 27 27 27 27 28 28 27 29 31 32 33 32 33 33 32 28 27 28 29 28 26 22
42 44 47 49 51 56 46 37 30 31 34 23 27 30 32 34 33 29 27 28 29 28 27 28 28 29 26 24 28 29 30 30 31 31 31 30 28 27 29 25 22 22 17
42 46 49 52 55 46 44 33 31 26 23 28 31 32 32 32 31 29 28 29 29 28 28 28 29 28 24 24 26 27 27 27 27 28 30 28 27 26 25 23 21 20 16
44 49 54 56 57 48 31 27 27 22 25 28 32 33 32 30 30 29 29 29 29 28 28 28 28 26 23 23 23 25 25 24 25 26 26 26 25 25 23 20 18 16 15
50 55 54 55 39 28 42 28 23 25 27 32 32 33 31 29 30 30 30 28 28 27 27 28 27 24 22 22 22 23 24 24 23 23 23 23 22 22 20 18 16 15 11
50 51 45 38 39 34 28 26 24 28 32 31 31 31 31 29 29 30 28 27 26 26 26 26 26 22 21 20 21 22 23 23 23 23 22 22 20 19 18 16 16 14 12
42 37 33 24 27 22 19 23 29 31 32 33 33 31 31 30 29 29 28 26 25 25 26 26 24 22 20 19 20 20 21 22 22 21 21 21 20 18 17 16 16 16 16
22 21 22 17 18 21 27 30 31 32 33 34 34 32 30 31 31 29 27 27 26 25 24 25 23 22 20 19 19 18 18 19 20 20 21 20 21 21 19 17 16 17 17
17 18 19 21 24 28 30 32 33 35 36 36 35 32 31 31 31 31 29 28 26 26 25 24 24 23 21 19 18 17 16 17 19 20 20 21 21 21 20 18 18 14 16
20 22 24 27 29 32 33 35 36 37 37 37 35 34 33 32 32 32 31 29 28 27 27 24 22 22 22 19 17 16 15 16 17 18 19 20 21 20 21 20 18 17 12
23 26 29 32 34 36 38 39 38 39 36 35 35 36 34 32 31 31 30 28 27 27 27 24 22 21 21 19 17 16 15 15 15 16 18 19 21 21 20 20 18 17 15
30 30 33 36 38 41 43 43 43 41 38 36 37 35 34 33 31 30 28 27 26 28 25 23 23 22 21 20 18 17 15 14 15 15 15 17 19 21 20 19 18 17 15
38 41 44 45 44 44 44 42 38 35 41 42 41 35 33 31 29 28 27 27 29 25 23 22 22 22 21 20 18 18 16 15 15 14 15 16 17 19 20 19 18 17 15
41 44 45 47 48 47 43 40 39 40 37 47 42 35 31 32 30 27 26 26 26 24 23 22 20 20 20 19 18 18 16 16 14 14 14 15 16 16 18 19 18 17 16
48 49 49 49 48 46 44 42 39 39 42 45 41 36 33 32 30 26 25 24 24 23 22 21 19 18 18 17 17 17 16 15 15 14 14 14 15 15 15 16 17 16 14
52 53 52 51 48 45 42 39 37 37 37 38 37 33 30 31 27 26 24 24 23 23 23 22 20 17 16 16 15 15 16 16 15 15 15 14 14 14 14 15 15 15 14
53 52 49 46 43 40 37 32 35 32 31 34 36 31 29 26 25 26 25 24 23 21 21 21 19 17 16 15 15 15 16 16 16 16 16 16 14 14 14 13 13 13 13
51 48 44 42 39 37 32 28 29 32 32 29 26 27 24 21 21 26 26 22 22 19 20 21 20 19 18 17 16 14 15 16 18 18 17 18 16 15 14 13 13 12 12
45 44 43 42 39 32 27 28 28 27 26 28 27 23 24 21 21 20 23 23 22 22 20 21 22 21 21 21 21 21 21 20 20 18 19 19 18 17 15 14 13 12 12
44 45 44 40 35 30 25 27 24 26 30 31 27 26 25 26 27 27 29 23 20 21 23 23 24 24 24 23 22 21 21 21 21 23 21 21 21 19 17 15 14 13 12
44 43 40 38 34 31 33 28 28 25 24 24 27 28 25 26 26 26 26 24 22 19 20 22 23 24 23 23 24 25 24 22 20 19 21 21 21 22 20 17 15 14 12

GFSGL_700_spd_042.txt.gz
Wind_Speed
27 29 32 34 35 37 38 39 41 57 46 47 53 50 43 35 35 37 38 34 34 37 36 34 33 33 33 31 30 30 31 33 35 35 36 38 41 44 42 39 40 40 38
21 23 26 31 32 36 38 44 50 46 51 52 51 48 40 39 37 31 30 35 35 36 35 32 32 32 30 29 29 29 30 31 32 37 39 40 39 39 39 37 35 34 34
30 30 31 33 34 37 40 42 44 46 51 53 49 43 39 35 31 30 32 33 36 35 33 32 31 30 29 28 28 28 28 29 33 38 40 38 37 35 36 34 32 30 31
29 30 33 36 36 39 41 43 46 48 53 55 49 39 38 42 30 30 30 32 35 34 33 32 32 31 30 30 28 27 28 31 34 36 36 35 34 31 32 33 30 29 28
29 31 30 35 40 43 43 48 51 53 55 51 40 36 41 36 29 28 32 32 33 34 32 31 31 31 30 29 27 27 29 32 34 35 33 33 31 30 30 28 30 30 22
32 33 37 39 39 44 49 56 59 54 55 43 40 45 33 26 26 30 33 32 31 32 32 32 32 31 29 27 26 26 29 32 33 34 33 32 30 30 28 27 29 27 22
34 35 36 41 44 48 53 57 58 49 33 40 37 27 25 26 30 32 33 32 32 32 33 33 33 31 29 26 24 25 28 30 32 32 31 29 29 29 27 26 25 24 20
37 38 40 44 48 51 58 50 34 40 38 26 27 25 27 31 32 32 33 32 32 33 33 32 33 31 29 25 23 24 26 27 29 29 29 28 29 28 27 26 24 18 15
36 40 46 51 51 53 33 40 35 26 24 23 24 28 32 32 32 32 33 33 33 34 32 31 31 29 27 24 23 23 23 24 25 26 27 27 27 27 27 26 23 18 12
37 43 50 40 40 39 37 23 24 21 23 25 29 30 31 32 32 31 32 33 32 32 31 30 28 27 26 24 23 23 22 22 22 23 24 25 25 25 25 25 25 20 15
38 42 33 34 28 26 25 24 24 24 28 30 32 33 33 34 34 34 33 34 32 31 29 28 28 26 25 24 23 22 21 20 20 21 23 24 23 23 24 23 23 23 19
34 33 31 28 26 28 25 27 28 30 33 33 35 36 36 36 36 35 33 32 31 31 27 27 26 26 25 24 23 22 20 19 19 19 20 21 22 22 21 21 21 22 22
26 27 25 25 25 28 30 31 32 34 36 38 39 40 39 39 37 35 34 32 31 30 26 26 25 25 26 25 23 22 19 18 18 18 18 19 21 22 22 21 21 20 22
24 23 24 27 29 30 32 35 38 39 39 40 42 42 41 40 38 35 35 33 30 27 30 27 28 26 25 26 24 22 21 18 18 17 17 17 19 21 23 22 20 19 19
21 24 27 30 32 34 36 39 41 42 42 42 42 42 40 39 36 37 36 33 31 29 29 29 28 25 24 25 25 23 22 19 17 16 16 16 17 19 22 22 21 20 18
26 28 31 35 37 39 42 43 43 44 44 42 39 36 37 40 37 38 36 33 31 31 30 28 26 24 23 24 25 23 22 19 18 16 16 16 16 17 19 21 21 19 18
33 36 39 42 45 46 47 47 49 47 44 41 37 34 37 40 35 37 37 33 30 29 31 28 25 23 23 23 22 21 21 20 18 17 16 16 15 15 18 19 20 19 17
38 41 43 45 47 49 50 51 51 51 49 45 41 36 35 37 34 37 37 34 31 28 29 28 25 23 23 23 21 21 21 20 19 17 16 15 14 14 16 17 18 19 17
42 44 46 47 49 50 50 50 49 47 46 42 38 39 38 38 39 37 34 34 29 28 27 26 23 23 22 22 21 20 20 20 19 18 16 14 14 14 15 15 15 17 17
45 47 49 51 50 49 47 45 42 40 39 36 34 32 31 32 33 32 31 32 26 26 27 26 22 23 22 21 20 19 19 20 19 18 16 15 14 14 15 14 13 13 15
49 51 52 51 49 47 44 41 39 36 32 28 30 28 28 30 32 31 30 25 24 23 23 23 24 22 24 21 19 18 17 19 19 18 16 16 15 14 15 14 12 12 12
51 51 50 48 46 45 45 42 39 35 29 25 22 25 26 23 25 25 22 21 21 25 23 20 20 20 21 21 19 17 16 17 17 17 17 17 16 15 15 14 13 12 11
50 48 46 45 45 43 42 39 35 31 28 27 26 25 25 22 21 19 19 19 23 21 19 18 19 18 20 20 20 19 16 14 15 17 17 17 18 17 16 16 14 13 11
47 46 45 45 43 41 39 36 33 30 28 26 25 29 28 27 23 21 21 24 23 22 22 19 20 20 20 22 22 22 21 20 19 19 18 18 18 19 18 18 15 14 12
45 44 43 42 41 39 38 36 33 31 30 25 25 25 25 28 23 22 21 22 27 32 31 22 21 23 24 23 22 22 21 22 22 22 21 21 21 20 19 19 18 16 13
42 41 39 38 37 36 36 36 33 30 29 31 34 29 25 22 23 22 21 22 23 24 24 24 22 20 20 23 23 22 23 23 22 21 21 20 20 20 20 20 19 19 14

GFSGL_700_spd_045.txt.gz
Wind_Speed
17 18 20 21 22 26 28 29 32 34 43 44 41 47 51 53 56 54 48 46 46 45 45 41 38 38 37 36 35 34 33 34 35 33 34 35 37 39 42 42 41 41 39
17 18 21 23 25 30 33 32 36 37 43 42 43 47 51 53 54 53 47 44 43 42 40 33 36 36 36 34 32 32 33 33 34 34 33 34 37 39 41 41 39 38 38
21 23 25 25 26 26 29 33 36 43 45 41 44 50 54 54 46 40 46 42 38 33 33 34 36 35 33 32 32 32 33 32 33 32 33 35 36 36 38 37 36 34 32
26 30 28 27 31 29 29 33 33 42 46 48 54 57 55 41 43 45 40 34 32 32 35 36 35 34 33 33 33 34 33 32 32 31 32 34 34 34 35 36 31 31 28
31 32 29 32 31 32 34 43 37 47 47 53 55 41 35 41 36 31 31 32 34 36 37 35 35 35 36 35 33 34 33 32 30 31 30 32 33 33 33 32 32 28 25
31 30 32 31 31 34 42 44 48 53 54 37 36 41 38 29 28 27 30 34 36 38 37 36 35 36 36 35 33 33 33 31 29 30 29 32 32 32 31 31 30 28 24
28 31 32 33 36 40 44 47 54 46 37 40 42 28 25 26 26 30 34 36 37 37 37 37 37 35 35 35 34 33 31 29 28 28 28 30 30 31 30 29 28 26 24
28 31 33 34 37 41 46 49 40 37 44 35 28 25 26 28 31 33 35 37 38 38 38 38 38 36 34 33 33 31 29 26 27 26 27 28 29 28 29 28 27 25 21
29 32 36 39 41 45 46 34 44 38 32 30 28 30 32 33 34 35 37 38 39 38 37 37 36 33 32 31 29 29 26 24 25 25 26 26 27 27 29 28 27 26 21
31 37 44 47 44 32 39 43 33 31 32 34 35 36 37 38 38 39 40 40 40 39 38 37 35 33 31 30 29 28 24 23 23 23 25 25 25 26 27 28 28 27 24
33 33 29 36 41 40 34 34 34 32 35 38 40 40 40 42 42 42 41 41 40 39 38 36 33 33 31 28 28 26 23 22 22 23 23 22 22 24 24 25 26 26 26
29 36 36 34 32 33 34 33 35 38 40 42 43 44 44 44 45 44 43 42 40 39 37 34 32 31 29 26 27 26 24 22 22 22 22 21 21 22 22 23 23 24 25
33 29 28 30 32 32 34 36 39 41 43 45 47 47 46 47 47 45 42 41 38 38 36 33 30 28 29 27 26 27 25 23 22 21 22 21 20 21 21 21 22 23 23
25 27 29 29 31 34 38 41 43 45 47 49 50 51 50 50 48 43 41 39 36 35 33 31 29 31 35 32 28 27 26 24 23 21 22 21 20 20 20 20 22 22 20
26 26 29 32 36 38 40 43 46 47 49 51 52 53 52 51 46 39 38 42 39 35 32 32 29 28 33 31 27 26 27 25 23 22 23 21 20 19 19 19 21 22 22
27 30 33 37 40 44 47 49 49 50 50 52 52 52 52 49 42 39 39 46 34 31 32 31 29 34 28 25 25 26 27 25 23 24 23 21 21 19 18 17 19 21 22
33 36 40 43 46 49 50 52 55 54 53 52 51 47 45 45 42 41 38 33 30 31 34 32 29 29 28 25 27 26 25 25 25 24 23 21 21 19 18 16 16 19 20
37 40 43 46 48 50 52 54 55 55 54 50 45 43 40 34 33 34 38 38 35 34 32 33 29 28 27 27 28 25 23 23 24 23 23 21 20 19 17 15 15 17 18
40 43 46 48 50 52 53 53 52 50 48 46 42 38 36 30 32 30 29 30 37 32 30 30 28 26 26 22 23 26 23 21 21 22 22 21 21 18 15 13 13 16 16
43 45 48 50 52 53 52 51 50 49 47 44 40 36 33 24 26 27 26 27 31 32 30 26 25 25 24 23 23 26 23 21 20 21 21 21 21 19 16 13 12 15 15
45 47 50 51 52 51 50 49 48 47 45 42 36 31 27 24 24 25 24 23 26 26 21 21 24 24 22 23 24 24 23 20 20 20 21 21 21 19 17 15 12 14 14
46 49 50 50 49 48 47 46 45 43 41 39 36 30 29 28 29 25 24 22 20 19 18 21 23 21 19 21 20 21 22 21 19 20 21 21 21 19 17 16 14 14 13
47 47 47 47 46 45 44 43 40 39 38 37 35 32 29 26 30 31 25 23 22 24 24 20 19 19 19 21 20 19 20 19 18 20 20 20 20 19 18 17 16 14 14
46 46 45 44 44 43 41 39 37 35 37 38 34 30 30 26 26 28 27 28 29 24 23 22 22 20 20 20 21 18 19 21 20 18 18 17 17 18 17 17 18 16 16
44 43 42 42 41 39 36 34 34 34 34 34 32 31 28 33 33 25 25 25 26 24 24 23 25 28 24 20 25 23 21 21 21 22 23 22 21 21 21 20 20 19 18
43 42 40 39 37 35 33 32 31 31 32 31 30 30 28 26 23 24 25 22 22 22 21 21 20 21 22 19 22 23 24 24 23 22 22 22 22 22 20 19 19 19 19

GFSGL_700_spd_048.txt.gz
Wind_Speed
16 18 19 19 19 20 23 23 25 26 27 32 32 31 39 48 48 45 55 46 40 46 45 43 41 40 36 37 38 38 37 38 39 37 36 35 35 35 36 39 40 40 40
15 17 19 19 19 21 21 25 24 24 30 32 30 39 42 47 46 53 41 43 45 41 36 36 36 37 38 38 37 35 35 36 36 37 35 34 33 34 36 38 38 37 38
20 21 21 21 24 23 24 27 28 30 34 38 42 36 40 49 47 36 44 42 37 33 33 34 35 38 38 39 37 36 35 36 36 36 35 33 32 33 35 35 34 33 33
26 27 26 27 25 28 29 30 29 34 40 41 41 47 48 33 41 42 40 35 32 32 33 36 38 39 38 37 38 37 37 36 36 36 34 32 31 32 33 34 31 31 31
26 25 28 27 28 30 32 33 37 37 37 46 47 41 35 40 35 34 31 33 32 34 36 37 39 39 39 38 38 37 37 36 36 36 33 31 30 31 31 31 33 30 28
25 25 26 27 30 33 32 39 38 40 44 45 36 35 42 33 32 33 33 33 35 37 37 39 39 40 39 40 37 37 36 35 35 35 31 29 29 29 28 30 32 32 28
23 26 26 28 32 33 37 38 39 45 44 34 39 39 30 30 32 32 34 35 37 38 40 40 40 40 39 39 39 38 35 34 34 33 29 27 28 27 27 28 29 30 28
25 24 25 29 32 36 40 44 45 42 30 39 34 31 30 31 33 34 36 38 40 40 41 41 41 40 40 39 38 36 33 32 32 31 28 26 26 25 25 26 28 29 27
23 25 27 30 33 36 44 45 34 39 39 33 33 31 33 36 37 39 40 42 43 43 42 42 41 40 38 38 37 33 31 30 30 29 26 25 25 24 24 25 26 29 27
23 25 28 30 35 32 31 40 41 35 34 36 33 37 40 41 42 44 45 46 47 45 45 43 42 40 38 36 35 33 31 28 29 27 26 25 24 23 23 24 25 28 29
25 29 31 30 30 35 35 34 33 35 36 37 40 42 44 46 47 48 49 50 49 48 47 44 40 38 36 34 33 31 29 28 27 26 25 24 24 22 22 22 23 26 27
31 30 30 33 35 31 31 34 34 36 39 43 46 48 49 50 50 51 51 52 50 49 47 42 37 35 34 31 33 27 27 28 27 26 25 23 23 22 21 21 21 23 25
33 28 27 27 29 32 32 34 37 40 44 48 50 52 53 53 53 52 51 50 49 48 43 39 36 34 32 31 30 35 32 28 29 26 25 24 23 21 21 20 20 22 23
24 26 27 28 29 32 35 38 42 45 48 51 53 56 58 58 57 55 53 49 47 44 40 39 44 39 30 29 30 33 34 31 33 27 24 24 23 21 21 21 20 21 21
24 26 28 30 33 36 38 41 44 47 50 54 56 59 60 60 57 54 52 50 44 37 42 41 45 30 25 25 26 28 30 33 32 27 25 23 22 21 20 20 20 20 20
26 28 31 34 37 40 43 45 47 49 52 54 55 55 55 53 49 45 42 40 39 36 38 40 30 24 24 24 24 30 26 26 28 27 26 23 23 22 20 19 20 20 19
29 32 35 38 40 43 46 49 51 51 53 53 52 51 49 49 46 42 38 33 30 27 30 29 31 25 24 26 27 28 28 31 30 27 25 22 23 21 19 18 18 18 17
33 35 37 40 42 45 47 50 54 57 58 57 51 47 46 44 43 40 34 25 28 26 30 29 33 30 26 26 24 24 25 26 28 26 24 23 22 21 19 17 17 16 15
34 36 39 41 43 46 49 52 53 53 53 51 49 45 43 39 35 30 25 26 24 27 24 25 28 29 27 24 23 23 24 25 27 25 21 23 21 20 18 16 16 15 13
36 38 41 43 45 48 50 51 51 50 49 48 47 46 45 40 33 25 20 16 21 23 24 27 26 23 19 22 23 23 24 26 25 23 20 21 20 19 17 16 16 15 13
38 40 41 43 46 48 49 50 49 47 46 45 43 40 41 40 36 27 26 26 26 23 22 25 19 18 15 19 24 21 23 24 23 21 19 19 19 18 18 16 16 15 13
39 40 42 44 47 48 48 47 46 44 42 40 38 36 38 36 33 28 27 26 26 26 27 21 15 16 18 19 19 19 22 22 20 18 19 18 19 18 18 16 16 15 14
39 41 43 45 46 46 46 45 43 41 38 36 35 35 35 35 33 28 29 26 24 26 26 25 24 19 19 17 17 20 20 20 18 17 18 19 18 18 17 16 16 15 15
40 41 43 44 46 45 44 42 40 38 36 34 33 33 34 33 32 31 28 29 24 22 24 24 27 25 20 22 18 20 20 17 17 16 17 16 18 18 18 17 16 16 15
40 42 43 44 44 43 42 40 37 35 34 34 33 33 33 33 31 29 28 25 24 24 21 20 23 24 23 22 23 21 17 21 18 15 17 18 18 17 17 17 17 17 17
41 42 42 42 42 41 40 37 35 35 35 36 35 36 35 34 32 28 27 25 22 22 22 19 19 19 21 20 18 19 17 19 18 17 17 18 20 20 20 18 16 16 16

GFSGL_700_spd_054.txt.gz
Wind_Speed
25 25 25 27 26 26 27 29 36 35 26 27 31 27 28 24 34 47 39 35 35 36 35 32 34 31 32 33 33 35 36 36 38 37 30 28 38 39 37 39 38 38 35
25 22 21 22 23 25 25 25 26 26 19 23 24 26 25 34 37 32 41 37 32 30 32 34 34 33 34 34 36 37 37 37 37 38 35 31 30 36 38 38 36 35 33
17 19 20 23 24 25 26 26 29 25 28 31 28 25 30 30 31 31 36 34 32 32 32 35 34 34 36 38 38 39 38 37 36 36 37 31 31 32 38 38 35 34 31
21 22 24 27 28 28 28 27 27 29 29 29 25 31 35 33 37 37 35 35 36 33 34 33 34 37 39 39 39 40 40 40 35 34 38 36 32 31 37 36 34 32 30
24 26 28 30 31 30 29 28 29 28 31 33 31 32 33 37 34 33 36 39 33 32 33 36 39 40 40 39 39 41 39 41 41 41 39 39 39 36 29 28 34 32 29
27 29 30 30 31 30 28 27 31 31 30 37 34 32 33 30 33 36 33 32 32 34 37 39 41 44 44 41 42 43 42 42 38 34 41 40 38 34 30 32 33 30 28
26 27 27 27 28 29 32 32 27 29 31 29 32 33 31 34 32 31 31 33 36 38 40 42 44 45 45 46 45 44 43 43 41 36 38 39 36 33 34 33 31 29 28
25 24 26 28 29 30 31 30 30 30 22 32 28 31 32 30 29 30 33 36 40 42 45 46 48 48 47 47 49 45 46 42 39 37 38 36 34 32 33 31 30 28 26
22 23 25 26 28 30 29 29 26 22 24 27 29 29 29 28 30 33 37 41 44 46 49 51 52 53 52 49 46 45 42 39 37 38 36 35 30 30 29 30 28 28 25
22 23 23 24 24 23 25 22 22 23 25 25 26 27 30 32 35 38 41 45 48 51 54 55 56 55 53 46 45 42 41 37 35 36 33 30 31 30 27 28 27 26 25
22 22 22 23 22 20 19 20 20 22 23 25 28 31 34 37 39 42 45 48 52 55 57 57 56 53 51 45 39 39 38 34 36 33 31 31 31 26 27 27 25 24 23
22 23 23 20 18 19 19 20 22 24 27 30 34 36 38 40 42 45 47 50 52 55 56 55 53 49 44 42 38 36 33 33 38 32 31 35 35 31 27 28 26 24 23
22 20 18 19 19 20 21 23 26 29 31 34 36 38 41 43 46 49 52 54 55 55 53 50 47 44 38 35 34 35 36 30 32 32 31 31 32 33 32 29 28 25 23
22 19 20 19 20 22 23 26 29 31 32 35 37 40 42 45 49 53 55 56 57 56 53 50 44 39 35 29 28 36 31 32 29 27 31 30 31 34 36 32 30 25 22
20 20 20 20 22 24 26 28 30 32 34 37 39 41 44 48 52 55 57 57 56 54 51 46 39 31 23 25 24 23 26 25 27 23 27 25 27 28 29 31 27 23 22
20 20 21 22 24 26 28 31 30 33 36 37 40 43 46 50 53 54 54 52 50 48 43 37 26 22 21 24 24 18 21 24 24 24 24 26 26 22 22 24 24 22 20
21 21 22 25 26 28 29 31 33 37 36 37 40 43 47 51 52 51 49 46 44 41 38 32 25 20 21 20 24 24 20 19 21 26 27 29 27 27 25 23 24 21 19
21 23 25 27 28 30 31 33 35 36 37 39 42 44 47 49 48 46 44 42 38 35 34 29 25 24 26 25 23 20 23 24 24 23 23 23 24 26 25 23 22 20 19
23 25 27 28 30 31 33 35 36 37 38 40 43 46 47 46 43 41 39 37 36 34 33 29 26 25 22 25 26 23 24 23 22 22 20 21 22 22 23 23 20 20 18
25 26 28 29 31 33 35 36 37 38 40 42 44 46 46 44 42 39 38 35 34 33 32 33 26 27 25 23 22 21 20 20 21 21 20 22 22 23 23 23 20 19 18
26 28 29 31 33 34 35 37 38 39 41 43 44 45 44 43 41 39 38 36 35 34 33 32 30 24 24 21 20 20 19 19 17 17 18 19 21 21 21 22 19 19 18
27 29 30 32 33 35 36 38 39 41 42 43 43 43 42 40 39 39 37 36 35 34 34 31 30 24 24 23 19 20 17 15 14 15 17 20 20 20 20 21 19 20 19
28 30 31 32 34 35 37 39 40 41 42 43 42 41 40 39 38 37 35 35 34 33 31 30 28 26 22 23 25 22 17 16 16 17 16 17 19 18 17 19 19 19 19
29 30 31 33 34 36 38 40 41 42 42 41 40 39 38 37 37 35 35 35 33 32 30 28 26 25 21 21 20 20 24 22 21 19 20 16 18 19 17 18 19 19 19
31 32 34 35 37 38 39 40 41 41 40 40 39 37 36 36 35 34 35 34 31 30 29 26 25 23 21 20 19 19 20 21 19 23 23 20 18 20 17 17 20 19 19
34 35 37 38 39 40 40 40 40 40 39 38 36 35 34 34 33 34 34 33 32 29 28 25 23 22 21 20 19 18 18 18 18 19 19 18 19 20 18 13 14 18 17

GFSGL_700_spd_057.txt.gz
Wind_Speed
28 27 27 27 26 28 30 29 29 31 31 34 33 31 29 30 33 30 34 33 33 44 43 41 39 35 33 33 37 38 39 41 44 44 39 35 34 37 41 45 45 41 41
26 28 31 28 27 28 28 27 27 29 29 31 31 26 24 31 31 25 36 38 38 36 39 39 37 38 33 37 36 38 42 43 44 44 43 38 35 37 39 41 44 42 40
27 31 26 23 23 25 26 28 28 29 31 32 31 29 28 34 39 33 33 37 35 42 40 41 42 36 36 35 38 41 43 41 41 39 41 40 39 37 36 38 42 44 40
23 21 23 24 25 27 30 31 31 31 30 31 31 31 36 33 33 38 40 41 38 38 42 40 34 34 35 38 41 43 44 46 44 41 48 44 37 42 36 38 43 36 30
21 21 23 25 28 31 33 34 32 33 32 32 32 34 32 35 36 33 37 38 38 40 37 33 33 36 40 42 43 44 44 47 48 48 49 49 48 44 42 41 39 39 36
24 25 29 30 32 33 32 32 30 30 29 33 33 32 31 33 35 34 36 38 37 36 34 35 38 41 44 46 49 49 50 50 50 49 48 49 48 46 43 43 39 37 40
30 28 28 29 28 28 28 30 31 34 34 33 35 33 31 33 32 34 35 36 35 36 38 40 43 44 46 48 50 52 53 53 49 48 47 44 45 43 41 42 37 39 37
25 27 28 28 27 29 31 32 33 35 34 31 30 29 30 31 31 32 33 35 37 39 41 43 45 47 49 51 53 54 52 45 48 48 47 43 40 35 42 39 37 36 35
26 27 26 27 27 30 31 32 31 29 28 27 26 26 27 27 33 31 33 37 39 40 42 44 47 50 51 52 53 54 52 45 44 46 46 43 40 37 39 33 33 34 32
25 25 25 26 27 27 27 27 26 24 24 23 23 25 27 28 35 34 34 38 40 43 46 48 50 52 53 54 54 53 44 40 39 39 41 39 35 38 35 31 32 28 28
24 25 25 26 26 27 25 23 23 22 23 23 24 26 29 31 34 36 37 38 43 47 49 52 54 55 56 56 52 49 46 40 39 36 36 36 39 39 35 31 32 28 24
24 25 25 26 26 24 23 22 22 22 23 26 28 29 31 32 36 39 39 41 45 50 52 54 55 54 52 50 49 45 40 38 37 34 35 35 37 32 36 36 31 27 27
25 26 26 25 23 22 22 22 23 24 26 29 30 31 33 35 38 41 42 45 48 51 53 54 53 50 46 44 40 35 32 33 36 35 34 31 32 31 26 27 29 29 31
26 26 25 23 23 23 23 23 25 26 29 31 32 33 35 37 40 42 45 48 51 52 53 51 48 45 40 33 26 23 25 29 30 33 26 32 29 28 24 27 27 30 33
28 27 25 24 24 24 24 26 27 28 30 31 33 35 37 38 41 44 47 50 52 52 52 49 45 40 37 27 22 24 25 23 22 19 20 28 23 22 23 24 26 26 27
29 28 26 25 24 25 26 27 27 30 30 32 34 36 38 40 42 45 48 50 50 49 48 46 41 38 34 27 24 22 21 23 19 17 20 24 22 20 22 25 23 22 24
30 27 26 24 24 25 26 28 32 29 30 33 34 37 38 41 44 46 48 49 48 46 43 41 38 36 33 26 23 18 14 16 20 19 18 20 22 25 26 23 25 24 24
28 25 24 24 25 26 27 28 29 31 34 37 39 37 38 41 44 46 47 47 46 42 41 38 35 33 31 28 25 28 23 25 20 23 23 23 22 23 20 22 24 24 23
24 22 25 26 26 26 27 28 30 32 33 35 37 40 42 43 45 46 46 46 44 41 40 37 34 33 30 29 26 26 26 27 27 25 24 22 22 19 21 21 23 23 22
24 26 24 24 26 27 28 29 30 32 33 35 38 40 42 43 44 45 46 44 43 41 39 36 34 32 30 29 26 25 25 23 22 20 18 21 22 21 21 21 20 22 23
22 19 22 26 27 28 29 30 31 32 34 36 39 41 42 44 45 45 45 43 41 40 38 36 33 30 29 27 27 24 23 21 21 20 24 26 19 19 19 20 22 22 23
20 21 24 27 29 30 30 31 32 34 36 38 40 42 43 44 45 44 43 41 39 37 37 35 33 30 28 25 25 23 23 20 22 24 20 17 18 20 20 20 19 20 21
21 23 26 29 31 31 32 33 35 36 38 39 41 42 43 44 43 43 41 40 38 36 36 34 31 29 27 24 24 23 22 22 20 17 15 14 13 14 15 17 17 18 19
25 27 29 31 32 34 35 36 38 39 40 41 42 43 43 43 42 41 39 38 36 35 35 33 32 29 27 23 22 22 22 20 22 23 20 20 19 16 15 18 17 17 19
30 31 32 34 36 37 38 39 40 41 42 42 43 43 42 42 41 39 38 36 35 35 34 33 31 28 25 22 21 21 20 21 21 21 22 22 22 22 18 20 19 17 20
35 36 38 39 40 40 41 41 42 42 42 43 43 42 41 40 38 37 36 34 34 33 32 29 27 25 23 20 20 20 20 19 19 19 21 20 19 19 19 19 20 17 20

GFSGL_700_spd_060.txt.gz
Wind_Speed
29 31 30 29 22 24 22 24 26 26 29 29 28 29 30 32 24 28 23 27 32 36 36 35 34 43 42 40 41 39 35 36 39 40 42 42 42 42 43 44 46 49 50
30 32 30 29 23 23 21 24 26 26 28 27 29 30 30 27 31 24 28 31 31 36 37 43 42 39 40 42 37 35 34 36 40 45 44 45 45 43 41 44 46 47 48
28 27 27 21 23 22 23 22 24 27 29 30 29 29 30 30 31 32 31 34 34 36 38 41 36 39 39 37 35 36 38 40 42 41 46 45 45 46 47 48 48 48 44
25 24 21 22 21 21 22 24 26 29 31 31 30 29 32 28 32 34 33 35 39 39 36 40 39 37 36 34 35 37 39 42 43 43 47 48 50 50 50 51 52 49 48
18 20 19 21 21 23 25 28 31 33 33 33 32 34 32 34 33 34 36 37 39 35 35 36 35 34 35 37 40 42 43 45 47 49 52 52 51 51 51 53 53 50 49
22 22 22 24 27 28 30 32 33 33 33 32 31 32 34 35 37 34 33 35 33 33 34 33 34 35 37 38 41 44 46 50 54 54 55 53 50 47 46 47 49 48 43
25 25 28 30 32 32 32 33 32 31 31 32 33 34 35 34 32 29 31 32 32 32 34 36 37 38 40 42 45 48 50 52 54 56 55 53 51 49 47 45 43 39 36
31 32 32 28 28 30 30 29 29 30 32 33 33 32 31 31 27 26 28 30 33 35 36 37 39 42 43 46 50 53 55 56 56 55 54 50 49 51 48 46 41 38 37
27 26 26 28 28 27 26 28 30 31 32 32 30 28 30 30 29 26 29 33 35 35 36 38 40 43 46 49 53 57 59 59 57 53 50 47 43 44 46 40 38 31 36
24 25 26 26 25 26 28 29 31 31 29 27 27 27 29 30 30 29 31 33 35 37 38 40 42 46 48 51 54 56 58 55 53 51 47 41 40 38 36 34 41 34 34
25 25 25 25 27 27 29 30 31 29 28 27 27 27 28 31 32 31 31 34 38 39 40 42 44 47 50 51 51 52 52 51 50 46 41 37 35 36 34 31 31 31 30
25 26 26 27 28 29 29 30 29 28 28 26 26 27 29 31 33 31 32 36 38 41 43 45 47 48 49 49 48 46 46 44 40 37 36 35 29 33 31 31 32 26 27
28 27 27 28 29 30 29 29 28 26 27 26 27 28 30 30 34 33 35 37 39 41 44 46 47 48 48 47 44 41 39 34 29 29 31 29 25 25 32 30 24 25 22
28 28 29 30 31 31 29 28 26 25 26 27 28 29 29 32 34 36 37 38 40 42 45 46 48 48 47 45 41 38 34 29 24 27 28 24 19 20 22 25 26 25 22
31 32 32 32 31 32 28 27 26 26 27 29 29 30 30 33 35 36 38 40 42 44 46 47 48 48 46 42 38 35 31 28 25 21 21 22 19 16 21 22 19 19 19
33 33 33 33 33 31 28 29 27 26 27 27 28 30 32 33 35 36 39 41 44 44 46 47 48 47 45 42 38 35 30 25 22 16 16 21 14 17 20 19 19 21 20
35 34 35 35 32 30 30 28 27 27 26 26 28 30 31 33 36 38 39 41 43 45 46 47 46 45 42 39 36 34 31 25 23 16 14 16 19 17 17 21 23 22 20
37 40 39 34 30 28 26 26 28 27 27 28 29 30 31 30 35 37 39 41 43 44 45 45 44 41 39 37 35 32 30 27 28 33 30 23 21 19 20 21 21 18 18
46 45 36 29 25 25 26 24 23 26 28 30 32 34 34 33 36 39 40 43 44 45 46 45 43 39 37 35 33 32 30 28 25 27 25 22 23 20 18 21 19 19 19
45 35 25 25 27 26 23 23 24 26 29 31 31 33 34 35 38 39 41 43 44 45 45 44 42 38 36 34 33 31 29 26 24 23 22 20 15 16 15 19 20 19 20
32 25 24 25 26 23 23 24 26 28 30 32 33 35 36 37 39 41 42 44 44 44 44 43 40 38 36 34 31 29 28 25 23 21 21 22 22 20 21 21 20 19 20
25 25 25 24 24 23 25 27 28 31 32 34 36 37 39 41 41 42 44 44 44 43 42 40 38 37 35 34 31 28 26 24 22 21 20 20 22 22 22 20 19 19 20
22 23 23 24 25 26 29 30 32 34 36 37 38 40 41 42 42 43 44 43 43 41 40 38 36 35 35 33 30 28 25 22 21 20 20 17 19 19 13 12 17 17 19
22 24 26 28 29 31 34 36 38 39 40 40 40 41 42 42 42 43 43 42 41 39 37 36 35 35 33 30 27 25 23 21 21 19 20 20 18 17 15 12 12 17 17
25 27 29 32 34 35 37 39 40 42 42 43 43 42 42 42 42 41 41 39 38 36 35 33 33 33 30 27 24 23 21 20 20 19 19 20 19 20 19 17 14 18 19
31 33 34 37 38 40 41 42 43 44 44 43 42 41 41 41 40 39 38 37 35 34 32 31 31 30 27 25 23 20 18 18 19 18 18 19 18 19 18 19 18 19 20

GFSGL_700_spd_066.txt.gz
Wind_Speed
24 25 26 27 28 28 33 33 34 41 20 13 17 19 19 22 24 23 23 26 27 25 28 26 28 29 33 31 37 42 43 39 45 44 42 37 37 38 39 41 43 46 47
22 22 25 29 29 29 35 37 32 12 12 17 18 18 20 24 26 25 27 30 28 31 29 20 34 30 39 34 40 43 37 40 42 43 41 41 40 40 42 45 46 48 50
31 19 31 34 33 29 19 20 10 10 13 16 19 21 24 25 27 27 28 28 30 27 26 32 36 32 37 44 40 37 37 38 39 42 44 43 44 44 46 47 50 51 52
29 24 18 12 16 21 17 15 14 16 18 19 20 22 25 28 30 32 27 33 30 30 32 35 31 38 40 38 36 35 35 37 38 42 45 47 48 48 50 52 54 54 56
22 23 18 15 15 16 20 17 17 19 21 21 23 26 29 30 29 28 28 33 25 34 36 34 39 36 33 33 33 35 37 38 40 44 47 50 51 52 54 57 60 60 60
25 26 23 19 16 19 20 19 20 21 22 25 28 28 29 28 27 26 25 30 34 35 34 33 28 30 32 34 35 36 38 40 42 46 49 52 53 54 56 57 59 60 61
25 26 24 22 22 24 23 24 24 24 26 29 28 30 29 28 26 26 28 30 30 29 26 27 28 31 33 33 34 36 38 40 45 49 52 52 54 55 57 58 58 58 58
25 26 27 27 28 28 27 26 28 30 30 30 31 29 27 26 26 27 26 27 27 27 28 29 30 32 33 35 37 38 40 42 44 46 49 50 51 53 54 55 55 53 50
28 27 28 31 33 32 31 32 32 29 30 30 28 26 27 27 27 27 26 27 27 29 30 31 32 33 35 37 39 42 43 45 47 48 48 50 51 52 50 51 47 45 44
31 34 34 31 31 33 33 29 29 30 31 29 28 28 29 29 27 27 28 28 29 30 30 33 34 35 36 38 41 43 45 48 49 49 49 50 50 48 46 41 36 39 38
32 33 33 32 31 29 26 28 30 30 30 29 29 30 30 29 29 29 29 30 31 31 32 33 35 35 36 38 41 43 45 47 49 50 50 50 49 47 44 39 33 36 35
31 31 30 28 26 26 28 29 30 30 29 30 32 32 31 30 30 30 31 32 32 32 32 33 34 35 36 38 40 41 43 45 47 49 51 50 48 44 40 36 29 33 28
27 28 28 28 28 30 30 31 31 31 32 33 33 32 32 32 32 32 33 33 33 33 32 33 34 35 36 37 39 40 42 45 46 49 51 49 46 42 37 30 26 28 22
27 29 31 32 32 33 32 33 33 33 35 35 34 34 33 33 34 34 33 33 32 32 33 35 36 36 37 39 40 41 44 45 47 49 49 47 43 38 31 23 26 22 25
31 34 35 36 36 35 35 35 36 36 36 35 35 35 35 34 33 33 30 33 33 34 35 36 36 37 40 41 42 43 45 46 47 47 47 44 39 35 27 20 17 13 15
35 37 39 39 39 39 39 38 38 37 36 35 34 33 33 33 31 31 38 34 34 34 36 37 39 42 43 43 45 46 46 47 47 47 45 42 38 33 28 24 23 21 16
38 41 42 42 42 42 42 42 42 41 38 36 32 30 29 30 36 38 35 33 35 37 38 39 41 44 45 45 47 47 47 47 47 46 44 41 37 31 26 26 23 20 23
40 43 44 44 45 45 45 46 45 42 38 33 30 32 38 39 40 40 38 37 37 37 38 42 44 45 46 47 47 47 46 46 46 44 41 38 35 31 26 25 28 24 21
42 44 46 46 46 47 47 47 44 38 37 38 36 36 38 40 39 37 38 38 38 39 42 43 45 45 46 46 46 46 46 45 44 42 39 36 33 30 25 24 24 25 25
46 46 45 45 45 46 44 40 35 34 31 32 34 36 36 36 36 38 41 42 42 44 45 46 46 45 45 45 45 45 45 44 41 39 36 34 32 28 25 23 25 24 27
37 37 37 36 36 33 32 32 30 29 31 33 35 36 37 39 41 43 43 43 45 45 45 45 45 45 45 45 45 45 44 42 40 37 34 31 28 25 24 22 25 21 20
33 32 30 28 26 25 25 26 27 30 32 34 36 38 40 42 42 43 44 45 45 46 46 46 46 45 44 44 45 43 42 38 36 34 31 28 25 23 22 21 22 23 23
22 19 19 19 21 23 25 27 29 32 35 37 40 42 43 44 44 46 46 47 47 46 46 45 44 44 43 43 42 40 39 35 33 31 28 24 22 21 21 20 20 21 21
15 17 19 21 23 26 29 32 35 38 40 42 43 44 45 46 47 47 47 47 47 46 44 43 43 43 42 40 38 36 34 32 30 28 25 23 20 19 19 20 19 18 19
18 20 23 27 30 33 36 38 41 42 44 45 46 47 48 48 48 48 49 48 47 45 43 43 42 40 38 36 34 33 30 29 26 25 23 20 17 17 18 19 20 18 18
25 28 31 34 37 39 41 43 45 46 47 48 49 49 49 49 49 48 47 46 44 42 41 39 38 36 34 32 31 29 27 25 23 23 21 17 15 15 17 18 20 19 20

GFSGL_700_spd_072.txt.gz
Wind_Speed
25 25 24 23 23 23 24 26 27 26 29 32 34 38 40 37 44 45 39 26 22 28 32 31 31 35 34 33 35 36 37 43 41 40 41 37 38 37 36 37 40 42 43
20 20 24 27 28 28 30 29 29 31 33 33 34 27 24 32 43 42 35 34 34 35 34 36 37 33 42 39 36 37 40 41 47 50 41 42 39 38 39 41 41 42 44
25 25 27 26 31 28 18 32 40 36 36 35 23 24 19 15 6 18 32 36 36 35 38 38 35 37 40 39 38 37 39 42 49 51 44 45 41 40 43 43 45 46 47
18 23 25 24 21 23 24 23 28 30 42 44 20 22 22 22 27 31 34 33 35 39 35 41 39 40 46 41 41 35 41 44 48 45 45 44 44 44 45 47 48 46 48
14 19 22 22 22 25 24 22 22 24 26 20 33 37 31 30 32 32 35 36 37 37 35 44 43 45 38 41 42 36 44 48 50 45 44 44 45 45 47 48 49 50 49
12 12 15 20 22 24 23 21 21 21 22 22 23 28 32 31 31 33 36 36 39 39 44 42 44 37 47 47 42 41 46 50 45 43 43 45 44 45 46 47 48 48 51
11 12 14 16 21 24 25 23 22 23 25 26 27 29 31 33 34 35 37 37 37 41 37 45 43 46 41 42 46 49 48 45 44 44 44 44 44 43 45 46 44 47 49
17 16 20 22 21 23 25 27 27 27 28 29 31 33 33 35 38 39 39 39 37 40 41 45 42 42 41 48 48 46 45 45 45 45 43 42 42 42 44 44 45 49 51
22 21 21 25 23 22 24 27 27 30 32 34 35 36 36 38 42 39 34 37 38 40 41 41 43 42 47 47 46 45 45 46 45 43 42 41 41 42 42 44 45 49 52
27 23 24 29 25 23 26 27 30 33 34 35 40 41 39 40 41 36 36 36 37 40 41 42 44 46 46 46 46 47 46 45 42 41 40 41 42 40 40 43 46 49 50
29 27 27 26 29 30 31 32 33 35 35 34 35 37 39 40 35 35 36 37 40 41 42 44 44 45 47 47 47 46 45 41 41 41 44 41 39 39 40 41 45 47 47
29 28 29 30 31 33 33 32 32 31 26 31 34 40 36 37 36 37 38 39 41 42 43 45 46 47 47 47 46 44 42 46 44 47 43 40 43 42 40 43 43 44 44
26 27 29 30 31 30 27 31 24 25 33 36 37 37 36 36 38 39 40 41 42 43 44 45 45 45 46 46 45 44 50 49 52 48 43 45 44 42 44 43 43 44 43
24 25 27 28 29 29 31 27 27 31 36 37 36 36 37 38 40 41 41 42 43 44 45 46 46 47 49 48 50 53 52 55 49 46 45 46 44 44 43 42 43 44 43
25 24 26 27 28 29 27 26 29 33 35 35 37 38 41 42 42 43 46 47 48 48 49 49 49 48 47 50 53 54 57 51 48 48 48 47 45 43 41 41 43 43 43
27 26 27 26 23 22 23 27 30 32 34 36 39 41 41 43 45 45 46 48 50 50 48 45 45 47 49 51 51 52 51 49 49 48 47 45 44 42 41 41 42 43 42
27 28 30 32 26 23 24 26 29 31 34 36 38 39 41 42 44 46 48 47 43 43 43 44 46 46 47 50 50 49 48 48 47 46 45 44 43 42 41 41 41 42 40
26 26 29 27 21 18 22 24 26 27 29 30 32 35 37 38 39 41 40 39 40 42 42 43 45 47 48 48 48 48 47 47 46 45 44 42 41 41 40 41 41 41 39
24 23 21 20 22 25 28 28 26 26 27 29 31 34 37 38 39 38 39 39 40 40 42 45 46 46 46 47 47 47 47 46 45 44 43 41 40 41 41 41 41 40 37
20 23 25 26 26 27 27 27 28 28 30 33 35 36 36 36 36 36 36 38 40 42 43 44 46 47 47 48 48 48 47 45 44 43 41 40 40 40 40 40 39 37 33
25 28 28 28 28 27 26 28 30 32 33 33 32 32 32 32 34 36 38 40 42 44 45 47 48 49 50 50 50 49 47 45 44 42 41 40 40 40 38 37 36 33 29
27 26 24 23 24 26 27 28 28 27 26 26 27 29 31 34 37 39 42 44 47 49 50 51 52 52 52 51 51 49 47 44 42 41 40 39 38 37 35 34 31 29 26
17 19 21 22 22 22 22 22 22 23 25 27 30 33 36 39 42 44 47 49 51 52 53 53 53 53 52 51 50 48 46 42 40 39 38 36 34 32 32 29 27 25 23
15 15 16 16 17 19 21 23 27 30 32 35 38 40 42 44 45 47 48 49 50 51 51 52 53 52 51 48 44 42 40 37 36 35 34 33 30 28 26 25 24 22 20
12 15 17 20 23 26 29 32 34 36 37 39 40 41 42 43 43 44 45 46 46 46 46 46 45 44 42 39 36 34 32 31 31 30 29 28 26 23 22 22 20 19 18
21 24 26 28 30 31 33 34 35 35 36 36 37 37 37 38 38 39 39 38 38 37 36 35 34 33 31 30 28 28 27 26 25 25 24 23 21 19 19 18 17 17 16

GFSGL_700_spd_075.txt.gz
Wind_Speed
19 19 19 19 19 21 22 22 23 25 27 29 29 32 37 40 42 45 46 46 46 45 41 28 25 29 31 29 30 32 37 37 39 36 36 37 32 41 40 39 39 38 39
18 16 18 21 24 23 21 22 23 28 30 31 34 37 38 41 44 39 39 45 51 51 41 29 27 33 31 33 34 36 34 38 37 37 35 39 37 46 44 42 40 40 41
22 21 24 23 24 25 25 32 30 29 32 33 38 38 39 34 34 32 34 32 28 45 25 31 38 34 31 39 35 33 44 44 39 40 38 42 44 47 45 42 41 41 41
22 21 25 28 27 25 26 28 30 28 27 36 37 39 45 41 33 28 26 22 15 20 30 39 38 33 39 36 42 43 42 40 39 39 38 45 45 52 48 44 44 45 43
17 17 18 23 27 25 29 26 29 35 28 28 31 37 44 35 32 30 34 36 34 36 38 39 39 36 39 38 43 48 45 43 44 40 40 46 49 50 47 47 48 48 45
15 14 14 17 22 23 28 27 29 28 29 30 30 31 30 35 34 37 38 40 39 38 39 40 40 32 35 44 43 50 46 45 45 42 43 52 51 48 49 48 48 48 49
12 12 16 18 17 18 22 26 30 30 27 28 30 30 30 28 32 38 41 40 41 40 41 39 40 35 39 45 47 47 51 45 42 47 51 50 48 48 48 47 46 50 54
16 16 16 19 20 21 21 25 28 30 29 30 31 32 34 35 35 36 38 41 43 45 42 37 36 41 42 46 50 50 46 44 49 51 49 48 47 46 46 44 52 57 48
25 22 19 20 22 24 24 24 29 31 34 34 34 35 37 37 37 38 40 43 47 41 38 38 39 43 47 49 47 48 46 50 53 50 47 47 46 44 43 53 58 50 50
29 25 24 24 25 28 29 28 28 30 32 36 38 39 38 41 43 44 43 44 40 39 36 39 45 44 46 46 47 48 51 51 49 48 47 46 44 44 55 60 51 50 50
31 29 27 30 30 33 33 30 31 33 34 36 39 40 41 44 45 46 43 39 41 35 42 43 44 45 46 47 49 50 48 48 47 46 45 45 46 54 60 53 52 49 47
31 31 33 33 31 32 34 35 36 38 38 38 39 41 43 39 33 36 39 41 37 38 40 42 44 46 48 49 49 49 48 48 48 46 48 52 59 56 54 55 48 46 43
30 32 33 32 33 34 34 36 37 40 38 34 34 30 30 32 39 43 35 34 38 41 42 44 47 49 50 53 53 51 48 48 50 54 54 54 54 54 56 48 44 42 41
26 28 29 34 32 30 30 32 31 30 32 32 28 34 37 32 34 31 38 42 42 44 47 49 51 54 57 57 55 54 52 52 49 48 50 54 55 50 46 44 43 42 40
29 28 28 29 28 29 29 29 29 27 25 29 31 32 33 34 33 40 43 44 46 49 52 54 54 53 51 51 50 48 46 45 48 50 49 49 47 45 44 43 42 41 40
25 25 27 30 28 30 28 27 27 26 28 31 30 30 32 36 40 43 44 47 48 48 47 47 46 47 47 47 45 44 45 46 47 48 47 45 45 44 43 42 41 40 40
29 30 28 26 27 25 24 24 25 26 26 29 31 33 35 37 38 39 39 38 38 39 42 46 47 45 44 43 43 44 46 47 46 46 45 45 44 44 43 41 40 40 39
30 26 22 24 19 16 15 16 18 18 21 25 28 28 29 31 33 35 37 40 41 43 43 43 42 41 41 42 44 45 45 46 46 46 46 46 45 44 43 41 41 40 38
17 15 15 20 18 17 18 20 23 25 28 30 29 28 28 32 35 37 39 39 39 39 38 38 38 40 42 43 44 46 47 47 47 47 47 46 44 43 42 40 39 38 37
23 22 18 21 22 21 23 27 29 29 27 27 28 30 32 34 34 34 34 33 34 35 37 38 40 42 45 47 48 49 49 49 49 49 48 46 44 42 40 39 38 38 37
23 23 21 23 26 24 24 25 25 25 27 29 30 30 29 28 29 30 31 33 36 38 41 43 46 48 50 51 52 53 53 52 51 50 48 46 44 41 39 39 38 37 35
17 16 15 18 19 19 21 23 24 25 25 25 24 24 26 28 30 33 37 40 42 44 46 48 49 51 52 52 53 53 53 52 50 48 45 42 40 38 37 36 34 32 31
11 12 14 15 16 17 18 18 18 18 19 22 25 28 31 34 36 38 40 42 44 44 45 46 47 47 48 49 49 49 48 46 43 40 38 36 34 33 32 30 29 28 27
9 9 9 10 11 13 16 19 22 24 27 28 30 32 33 35 36 37 37 38 39 40 41 41 42 41 41 40 39 38 37 35 33 31 30 29 27 26 25 25 25 25 24
10 13 15 18 20 22 24 25 26 27 28 29 29 30 30 31 32 33 34 34 34 34 34 34 34 33 32 31 30 29 27 26 25 24 23 22 21 21 21 21 21 21 20
19 20 21 22 23 24 24 24 25 25 25 26 26 27 28 28 29 29 29 29 29 29 29 29 29 29 28 28 27 25 24 23 21 21 20 19 18 17 18 17 17 17 16

GFSGL_700_spd_078.txt.gz
Wind_Speed
19 18 18 16 16 17 17 16 17 19 21 24 26 27 29 30 33 36 38 41 43 44 46 49 48 48 47 38 29 24 31 32 32 35 34 33 34 36 39 40 38 40 43
18 19 22 22 23 23 22 20 21 22 24 25 28 30 32 34 36 39 39 40 45 50 45 46 49 51 50 34 31 28 27 35 35 32 34 36 39 40 37 41 47 45 44
26 24 23 26 28 30 28 27 28 29 28 30 31 32 35 37 39 40 39 41 43 40 38 40 47 50 48 27 33 45 38 38 33 34 36 41 36 40 39 41 47 47 48
31 30 28 28 29 29 29 32 34 33 33 33 32 31 37 38 42 42 43 43 45 39 34 31 25 23 22 29 39 41 39 40 33 37 39 41 39 44 42 40 47 49 47
27 29 30 28 28 32 34 32 33 35 32 33 33 32 34 41 43 43 49 53 49 40 34 36 40 37 36 39 41 39 42 38 36 39 42 44 42 47 42 44 46 52 47
21 23 24 26 27 29 36 36 34 35 33 37 42 41 39 39 38 36 43 46 42 44 42 42 41 41 41 41 38 42 34 43 42 47 49 47 47 45 43 50 51 49 47
20 20 24 25 24 24 27 31 34 36 36 38 39 40 42 40 38 39 35 39 42 43 43 44 43 44 45 39 39 38 42 42 48 48 51 48 46 47 50 52 50 49 47
28 26 26 24 21 21 23 25 26 30 34 37 40 40 40 39 39 39 37 39 41 43 43 43 47 48 45 42 49 42 44 40 47 49 54 48 47 51 54 52 48 48 49
34 32 30 27 24 22 23 24 25 27 28 34 37 40 41 40 39 40 41 41 43 45 44 46 51 47 43 47 45 39 42 44 52 53 47 51 50 54 51 49 48 50 55
34 37 37 34 31 29 28 29 31 32 30 32 36 38 40 42 42 43 43 44 46 48 49 49 44 41 48 46 43 37 46 50 51 49 51 53 55 53 50 47 51 53 54
39 36 40 41 39 33 34 35 36 34 33 32 35 37 38 40 43 45 46 48 49 50 49 48 46 45 39 39 38 43 47 52 52 53 54 56 55 53 53 52 51 53 54
43 46 43 41 41 41 38 38 37 36 37 38 39 40 41 43 43 45 46 47 46 45 46 45 45 41 38 40 44 48 52 53 54 56 55 51 52 51 50 51 49 49 50
39 44 46 42 43 45 44 39 38 38 40 41 42 43 44 44 42 42 44 44 42 50 48 42 38 35 38 44 47 51 53 56 56 50 49 50 51 49 46 46 48 48 48
37 40 41 40 41 46 43 37 36 37 40 41 43 42 41 37 34 36 38 40 47 45 36 35 36 40 45 47 49 48 45 45 49 50 50 49 48 48 47 47 48 47 46
31 32 33 34 36 38 34 33 33 36 36 36 36 38 38 36 35 35 36 34 34 34 34 38 38 38 39 41 43 46 48 49 49 50 50 49 47 47 48 48 47 45 44
28 29 32 35 38 40 45 41 35 33 31 31 31 31 34 36 32 29 29 31 33 35 36 34 34 38 42 44 46 48 50 51 51 48 47 47 48 48 47 46 46 45 45
27 29 29 32 34 33 36 33 34 32 31 27 28 29 27 27 30 33 35 34 33 32 33 36 39 43 45 48 49 49 49 49 46 47 47 47 48 48 48 48 48 48 46
21 22 25 25 28 28 23 21 22 22 22 24 25 25 27 28 29 30 31 32 33 35 39 42 45 46 46 45 45 44 45 46 47 48 49 51 51 51 51 50 49 49 47
30 27 21 16 22 23 21 23 21 20 21 22 24 27 28 29 29 28 29 33 37 40 41 42 42 42 42 42 43 45 47 49 51 52 53 54 54 54 52 51 50 48 46
32 26 25 28 30 25 23 24 23 24 26 27 26 24 24 25 28 32 35 37 38 38 38 38 39 41 43 46 48 50 51 53 54 54 55 55 54 53 52 50 47 45 43
22 23 26 26 26 26 25 24 19 19 21 22 23 25 27 29 31 32 32 32 33 35 38 41 44 45 47 47 48 49 50 50 51 51 51 51 50 48 46 44 42 40 38
13 11 13 13 13 13 13 16 18 20 21 22 24 25 25 25 27 29 32 35 37 39 40 41 42 43 43 43 45 45 45 45 45 45 44 43 41 38 36 34 33 32 32
7 9 10 11 12 14 15 17 17 17 18 20 22 25 28 30 32 33 34 35 35 36 36 37 38 38 39 39 39 39 38 38 37 36 35 33 31 29 27 26 25 25 25
4 5 6 7 9 11 13 16 18 21 23 25 26 27 28 29 29 30 31 31 32 33 33 33 33 33 33 33 33 32 32 32 31 30 29 27 25 24 23 23 22 22 22
8 11 13 15 16 18 19 20 21 22 23 23 24 25 25 26 27 28 29 29 29 30 30 30 30 29 29 28 29 29 29 29 27 26 25 23 22 21 20 20 20 19 18
16 16 17 18 18 19 19 19 20 20 21 21 22 23 24 25 25 26 26 26 26 26 26 26 26 26 27 27 27 27 26 25 24 23 21 20 19 18 18 17 16 15 15

GFSGL_700_spd_081.txt.gz
Wind_Speed
19 17 16 14 13 13 12 12 12 16 21 23 24 27 28 30 29 31 34 37 39 40 38 39 38 38 44 48 46 51 52 51 45 39 32 29 33 35 38 37 37 37 40
21 20 20 20 19 18 17 16 17 17 19 21 22 24 25 25 28 30 32 34 36 38 37 41 39 41 48 41 46 55 56 53 37 30 32 36 35 34 36 36 38 40 42
22 22 22 23 25 24 24 23 23 24 24 25 26 26 26 27 30 31 33 35 37 38 37 42 43 45 38 40 40 44 46 46 31 39 32 38 42 37 40 41 41 41 39
29 29 29 28 26 26 29 30 30 30 31 31 31 29 29 30 33 35 37 38 39 40 41 42 45 42 38 41 40 31 27 25 36 41 41 41 44 38 38 40 44 39 45
34 36 36 35 34 32 34 34 34 35 36 35 35 35 34 35 34 35 36 38 39 41 43 46 51 49 40 41 40 38 38 38 39 47 47 41 47 45 38 41 44 44 47
29 30 31 31 34 35 35 35 36 38 38 38 39 39 38 39 39 38 36 37 38 41 44 48 51 51 43 48 44 43 43 43 43 43 41 43 49 45 43 43 45 46 47
28 25 24 27 30 30 32 34 35 38 40 40 39 41 40 41 43 44 42 42 43 43 40 45 46 43 46 50 51 48 51 41 47 46 48 51 52 47 48 44 46 50 48
34 33 30 28 27 29 31 32 31 32 35 37 38 38 42 42 42 42 41 42 45 48 46 43 43 45 47 50 50 47 49 48 52 50 52 53 48 40 42 43 46 52 55
35 37 36 35 33 32 32 31 28 28 29 31 32 34 39 41 42 43 43 44 47 47 47 46 44 45 48 47 50 52 52 53 55 55 50 49 43 41 40 46 50 56 54
39 38 40 43 42 40 37 35 33 32 30 32 33 33 33 37 40 41 43 45 46 46 46 48 46 47 47 48 52 51 54 56 53 49 45 41 45 44 48 54 56 57 52
28 38 46 44 40 39 42 48 42 41 38 36 37 37 36 35 37 40 42 42 44 47 48 48 49 49 50 54 54 53 56 59 45 40 40 44 44 50 54 51 51 50 49
35 33 39 45 48 49 56 50 50 44 44 45 44 42 41 40 41 41 42 44 45 47 48 49 49 49 51 53 55 52 50 40 40 42 43 47 49 47 48 49 50 50 49
44 40 36 38 41 46 43 56 52 52 49 46 45 45 47 47 46 46 46 47 48 44 45 47 46 49 53 53 48 45 39 39 42 46 41 43 46 48 48 49 49 49 49
46 46 37 41 45 40 46 49 50 50 49 44 47 50 50 48 47 47 46 45 41 39 38 42 47 46 41 34 34 36 37 37 39 42 44 45 46 48 48 48 48 48 49
35 38 43 38 41 49 47 46 47 41 44 47 48 47 47 43 45 43 40 38 36 36 37 34 33 32 32 34 34 35 38 40 42 44 44 46 48 48 47 47 47 47 48
21 25 24 25 30 34 39 42 35 43 36 30 35 38 39 42 42 41 36 37 35 28 26 30 32 33 35 36 38 41 41 43 44 45 45 45 45 46 47 47 48 49 51
18 23 27 27 25 27 27 31 37 38 43 46 49 45 41 39 40 30 26 26 26 27 28 31 32 33 35 37 39 41 43 44 43 44 44 45 46 48 50 52 53 54 54
27 24 25 11 19 20 29 32 28 27 27 27 30 31 31 28 24 24 23 24 25 26 28 29 31 34 36 38 39 39 40 41 43 45 48 50 52 54 55 55 55 56 55
29 27 27 30 32 19 18 19 23 21 22 25 23 23 23 24 23 23 24 25 26 27 29 32 34 36 37 37 38 40 43 46 48 50 51 52 54 54 55 55 54 53 53
26 29 30 26 28 25 24 25 25 26 21 19 18 18 17 17 17 19 22 25 28 30 33 33 34 35 36 39 42 44 45 46 48 49 50 50 50 50 50 50 49 47 45
22 20 20 21 21 18 18 17 14 12 12 12 13 15 18 20 23 25 26 27 28 29 31 34 37 38 40 40 41 43 44 44 44 45 45 44 44 44 43 41 39 37 35
10 9 8 9 9 10 10 11 12 14 15 16 17 18 19 21 23 25 27 30 32 33 34 35 37 37 39 39 39 39 39 39 39 39 38 37 36 35 34 33 30 28 27
5 6 5 6 7 8 9 10 11 12 13 15 18 21 24 26 28 29 30 31 32 32 32 34 34 34 35 35 35 35 35 34 33 32 32 31 31 30 28 27 26 25 24
4 5 6 7 8 10 12 15 17 19 21 22 23 24 25 26 27 28 28 29 29 29 30 30 31 31 31 32 31 31 30 29 29 29 28 28 28 27 26 25 24 23 22
9 10 11 12 14 15 17 18 19 20 21 21 22 23 23 24 24 24 25 26 27 28 28 28 28 28 27 27 27 27 27 27 27 26 26 25 25 25 24 23 22 21 19
12 13 15 15 16 17 17 17 18 18 18 19 19 20 21 22 23 24 24 26 26 26 26 26 25 25 25 25 25 25 25 25 24 23 23 22 22 22 22 20 19 18 17

GFSGL_700_spd_087.txt.gz
Wind_Speed
15 14 12 9 7 6 5 5 5 8 8 11 16 21 23 23 22 29 27 33 42 35 37 38 33 38 40 39 37 36 35 38 40 42 41 35 35 38 36 39 40 42 38
16 16 15 14 12 11 9 8 10 11 13 13 14 16 17 21 26 29 31 32 38 45 41 43 42 44 44 43 41 41 42 42 43 45 42 39 34 37 37 33 40 35 35
18 18 18 17 16 14 13 13 13 13 14 16 18 19 20 20 22 23 27 30 32 35 38 39 36 38 38 39 40 42 41 41 45 46 46 49 44 38 36 29 26 29 33
20 19 19 20 20 19 19 19 18 18 19 19 19 20 21 22 23 24 25 25 27 28 31 32 31 34 35 36 38 39 40 41 44 50 53 53 48 41 35 31 38 41 35
24 21 20 22 23 24 25 24 25 25 25 24 25 25 25 26 27 27 28 29 30 31 33 34 35 36 33 37 40 39 39 40 44 47 52 45 44 45 39 40 44 47 44
16 20 29 28 28 29 31 32 32 32 33 32 31 29 31 31 29 29 30 31 32 34 34 35 36 35 39 35 36 36 40 40 48 42 45 48 39 40 45 48 49 51 53
19 17 19 25 31 31 29 28 28 29 32 33 34 36 33 33 32 33 33 35 36 36 36 36 38 38 39 40 40 39 41 42 45 46 46 47 46 46 46 53 52 54 51
28 24 22 23 25 27 33 30 29 29 30 32 32 34 35 32 32 33 35 39 40 40 41 41 42 42 42 42 43 46 45 48 51 51 49 55 51 55 53 56 59 56 57
27 31 30 29 29 28 30 30 33 35 33 31 32 34 35 33 35 35 36 40 43 44 46 45 46 47 46 46 47 50 53 54 56 52 52 54 62 54 57 56 59 62 58
28 30 33 35 34 34 32 28 31 41 38 36 35 35 35 37 35 36 38 42 44 45 47 48 47 48 51 51 52 52 54 55 54 51 55 56 57 59 59 57 61 55 53
27 26 33 38 38 38 35 34 35 34 35 38 41 40 46 39 43 41 38 42 43 46 49 49 49 46 49 48 44 45 50 54 56 59 64 61 52 54 52 47 39 36 37
24 26 31 33 35 40 41 38 37 35 31 31 32 41 48 48 52 51 48 47 47 48 51 53 54 57 52 49 47 47 59 62 60 53 59 48 45 42 36 34 32 32 33
25 26 30 31 35 42 44 44 47 47 46 41 43 40 45 45 49 47 49 50 47 48 57 58 61 59 64 61 59 59 59 64 53 50 39 50 32 29 30 31 32 35 38
27 28 30 29 33 36 43 44 43 44 42 41 46 51 51 53 48 48 46 55 66 60 62 60 61 62 63 57 56 53 42 29 29 25 26 28 27 30 33 34 37 40 42
32 32 30 27 30 31 37 37 40 43 41 48 51 54 61 61 47 55 53 57 58 62 60 66 55 47 37 37 27 22 20 19 19 19 22 25 29 32 34 37 41 43 44
27 27 28 27 23 23 30 27 29 29 40 47 43 50 50 56 48 47 47 47 49 44 42 33 26 23 22 17 12 12 14 17 20 22 26 28 31 34 37 40 42 43 45
27 26 25 25 23 26 22 20 22 32 31 29 22 20 25 30 27 22 22 18 12 14 12 11 11 11 11 13 15 17 20 23 26 29 31 32 34 35 37 39 40 41 42
27 27 26 24 24 25 21 25 23 19 20 16 17 14 12 12 13 15 10 7 6 7 6 9 9 12 15 17 19 22 25 27 30 31 32 32 33 34 35 37 38 39 40
23 21 24 25 22 23 23 20 17 15 14 13 10 9 8 5 4 4 4 6 7 9 11 12 13 16 17 20 22 24 26 27 28 29 30 30 31 32 33 35 36 37 38
23 22 20 20 18 16 15 13 10 9 9 8 7 5 4 3 3 5 7 10 11 13 14 16 18 20 22 23 24 25 25 25 26 28 29 30 31 32 32 33 34 34 33
11 11 11 10 9 9 8 8 8 9 8 8 8 8 8 7 8 9 10 12 14 16 18 19 20 20 20 21 22 22 24 25 27 28 29 29 30 30 31 31 31 30 30
7 4 4 4 4 5 6 6 6 6 7 7 8 9 11 12 14 16 17 18 18 17 16 17 18 18 19 20 22 23 24 25 26 27 28 28 29 29 28 28 28 27 27
4 3 3 3 3 3 4 6 8 9 11 12 13 14 15 16 16 16 17 18 18 17 17 17 19 20 21 23 24 25 25 25 25 26 26 26 25 25 24 23 23 23 22
5 6 7 8 8 9 10 12 13 14 15 16 17 17 17 17 17 17 16 16 18 18 19 20 21 22 22 23 23 23 24 24 24 23 23 22 23 22 21 20 19 19 19
8 9 11 11 12 13 14 15 15 16 17 17 18 18 17 16 18 18 18 18 19 19 20 20 21 21 22 23 23 24 23 23 22 21 21 20 19 18 18 17 17 18 19
11 12 12 13 13 14 14 15 15 16 16 16 17 18 17 18 19 19 20 20 20 20 20 20 21 21 21 21 21 20 19 19 19 18 18 18 18 17 16 17 18 18 17

GFSGL_700_spd_090.txt.gz
Wind_Speed
13 11 11 9 7 5 2 2 4 9 13 15 18 23 22 20 20 24 30 37 41 41 42 42 41 40 38 33 35 38 40 41 42 35 33 35 36 37 37 36 37 37 38
19 15 13 13 12 9 8 6 6 5 7 9 11 14 19 24 25 27 30 30 33 37 40 43 41 46 40 35 40 36 40 44 43 43 39 38 39 40 43 45 43 42 39
21 20 16 14 13 12 12 12 11 11 11 11 12 13 15 18 24 26 26 28 33 34 33 38 43 41 43 45 46 45 45 48 51 52 49 43 41 40 44 49 51 52 39
13 20 18 16 15 15 15 15 16 16 17 17 18 19 19 21 23 24 26 27 29 32 34 35 38 42 41 42 42 40 41 45 45 47 47 44 45 45 47 44 42 39 40
1 7 18 19 20 20 20 20 20 21 21 23 24 25 26 27 27 27 28 29 30 31 33 33 34 35 35 36 39 36 34 42 43 46 47 46 48 49 47 46 43 43 40
13 8 7 10 18 23 24 25 26 26 27 28 29 30 30 30 31 32 32 33 35 36 36 36 36 37 37 38 39 38 42 40 43 47 49 52 53 53 43 45 48 43 49
20 22 23 21 20 20 18 22 26 27 29 30 30 32 33 33 33 34 36 38 39 39 39 40 41 42 42 42 42 44 47 50 53 52 53 53 53 52 51 46 50 54 47
25 28 29 30 32 28 25 22 21 24 26 27 28 29 30 29 32 35 36 39 42 42 42 44 45 44 45 46 47 49 52 54 54 57 56 60 57 55 55 58 51 52 56
24 25 25 30 30 33 33 28 27 28 28 25 28 31 32 29 30 32 34 39 42 43 43 45 47 48 47 47 51 53 55 57 58 57 59 56 60 78 56 58 60 62 68
20 21 24 30 34 34 34 32 31 33 35 33 32 32 33 32 33 32 32 36 41 42 42 45 45 46 49 50 50 51 53 54 56 56 61 64 65 70 66 72 56 62 72
17 18 18 22 27 31 35 36 36 37 34 34 36 32 35 34 36 39 35 34 39 43 43 43 44 46 43 44 43 49 52 54 66 68 71 68 68 70 72 74 63 62 52
17 17 19 23 24 26 29 36 39 39 37 38 39 38 42 40 42 43 38 42 44 48 54 55 49 51 52 52 51 53 54 61 65 74 72 68 73 69 72 65 63 50 39
22 22 23 22 22 23 23 28 32 37 40 43 44 44 47 49 50 51 52 56 51 46 63 60 57 52 56 58 62 69 64 68 69 70 72 62 53 45 34 30 29 28 29
24 26 25 25 26 25 27 28 27 28 37 40 40 44 48 50 61 52 49 56 51 56 65 67 61 54 61 64 67 62 63 45 46 44 34 27 25 23 22 23 24 27 31
25 27 28 28 26 27 26 24 27 28 28 33 41 41 41 48 54 59 47 51 53 54 56 55 55 56 58 50 38 38 29 24 22 20 20 18 19 20 22 25 29 31 33
27 28 30 30 30 29 28 28 30 27 26 27 30 32 30 28 26 39 36 39 33 33 32 31 30 27 22 20 14 12 12 11 12 14 17 19 22 25 27 31 31 32 34
29 31 31 32 33 35 36 33 27 26 27 23 23 22 20 17 14 12 14 15 14 13 10 10 11 11 9 8 9 10 12 14 16 19 22 25 28 30 30 30 32 34 36
29 30 30 31 29 27 27 28 26 24 22 21 21 20 19 18 12 9 10 6 5 5 5 6 5 6 9 12 13 14 17 19 22 23 25 26 26 26 28 29 31 33 35
25 24 24 26 25 25 27 23 23 19 18 15 13 12 11 11 7 4 3 6 6 6 7 10 10 12 13 14 16 18 20 21 22 22 23 24 25 26 28 28 29 30 30
18 22 26 27 24 21 18 16 13 10 9 8 7 6 6 6 6 7 7 8 9 10 11 13 14 16 18 18 18 18 18 19 20 20 22 23 23 24 25 25 26 27 28
15 14 14 14 13 10 8 7 6 5 5 5 5 6 7 8 9 10 11 13 14 16 17 17 16 15 15 16 16 17 18 19 20 21 21 21 22 22 23 25 26 26 25
11 10 8 8 7 7 7 6 6 5 5 5 6 8 10 11 13 14 14 14 15 16 16 16 16 15 16 16 17 17 17 18 18 19 20 21 22 22 23 23 23 23 23
7 6 6 5 6 7 7 7 8 10 11 12 13 14 15 15 15 15 14 14 14 14 15 15 15 16 16 16 16 17 18 19 20 21 21 21 21 21 21 21 21 21 21
9 9 9 10 10 10 11 13 13 14 14 15 15 16 16 16 16 16 15 14 15 15 16 16 16 17 16 16 17 18 18 19 19 19 19 19 19 19 19 19 20 19 19
9 9 9 10 11 13 13 14 15 16 16 16 16 17 18 18 17 17 18 18 18 18 18 18 18 18 18 18 19 19 19 19 19 19 19 19 19 19 19 19 19 19 21
11 12 13 13 14 15 15 16 15 16 16 16 16 18 18 19 19 19 19 19 19 19 19 19 19 20 20 20 20 20 20 20 19 19 19 19 19 18 18 18 18 19 20

GFSGL_700_spd_093.txt.gz
Wind_Speed
15 12 12 11 10 6 5 2 2 8 13 17 15 18 18 17 19 26 31 42 46 40 43 41 40 40 41 40 42 41 39 37 41 39 40 35 37 35 36 41 36 34 39
17 16 13 14 13 11 8 6 4 3 7 12 15 15 19 21 22 24 25 27 34 42 44 41 39 41 43 43 42 45 40 41 42 41 37 41 39 36 37 38 40 41 43
14 18 19 16 16 14 12 11 10 8 8 9 10 11 15 18 20 19 20 24 28 31 34 35 37 40 43 44 46 48 47 44 44 43 44 44 44 42 42 43 45 43 45
14 15 20 20 18 17 16 16 15 14 14 15 15 15 16 18 18 20 22 23 25 27 30 33 35 39 41 43 46 45 44 47 49 50 51 46 45 46 46 45 46 45 47
8 12 17 23 23 22 21 20 21 22 21 22 22 22 22 23 23 24 25 26 28 30 31 34 38 38 38 41 44 44 48 52 53 55 55 51 49 51 49 47 51 49 51
13 15 15 14 19 21 22 23 24 25 26 27 28 29 29 29 28 29 32 33 34 35 35 36 37 39 38 40 42 42 44 45 47 48 50 53 53 52 52 51 51 52 55
19 24 24 20 20 19 20 19 20 23 26 28 31 32 33 33 34 35 36 39 41 42 41 42 43 43 42 43 44 46 48 50 51 51 55 56 56 54 56 59 57 56 58
20 21 23 27 27 30 29 29 26 25 26 25 25 21 23 27 34 37 39 41 45 45 45 46 48 48 47 48 49 52 53 53 54 53 56 60 63 61 59 60 60 62 59
20 22 23 24 24 26 30 31 30 35 29 26 28 26 26 26 26 28 31 36 43 46 48 49 51 53 53 53 55 56 58 58 58 61 61 63 65 65 65 62 64 64 68
16 14 14 20 25 27 28 30 31 30 30 33 36 31 32 41 36 33 33 31 38 40 42 46 48 52 52 54 56 58 61 62 61 63 63 64 65 66 66 65 64 67 69
14 15 14 14 17 20 25 29 31 32 32 33 34 35 38 39 38 38 41 48 46 45 42 44 50 49 46 48 48 50 53 57 55 56 61 62 62 63 66 69 68 79 80
17 18 18 19 19 19 20 23 26 30 33 37 37 37 40 41 41 40 39 40 41 47 52 53 60 59 55 58 58 57 58 63 60 62 61 67 67 71 78 76 75 70 54
17 18 20 21 22 23 23 21 19 19 21 27 34 36 39 43 47 49 47 46 48 49 55 59 57 66 63 63 62 66 69 73 70 69 78 72 73 62 54 48 41 36 32
18 19 19 19 20 21 21 22 24 24 24 24 25 26 29 38 44 48 50 55 56 60 57 53 58 63 64 57 61 65 60 62 64 59 43 39 38 36 31 28 26 25 24
21 21 22 24 24 25 26 24 25 25 27 29 28 28 30 29 33 40 47 49 55 49 54 49 46 46 42 52 46 35 35 30 24 23 22 23 21 20 19 19 21 23 26
22 23 24 26 27 27 29 30 27 27 28 26 25 26 27 24 25 26 30 34 32 30 27 23 22 22 22 20 18 14 13 13 13 13 13 14 16 19 21 23 26 29 30
24 25 26 27 28 29 30 32 34 32 26 26 25 23 22 23 21 20 20 20 20 19 16 12 10 8 7 7 7 7 9 10 12 14 16 18 21 23 24 25 26 27 27
26 26 27 27 27 27 28 31 33 32 29 28 27 25 23 20 18 16 14 13 11 10 9 10 9 8 8 9 11 12 14 15 17 19 21 22 23 22 22 23 25 26 27
24 24 23 23 23 24 26 27 28 28 25 22 19 17 15 13 9 8 7 8 8 9 10 11 12 14 16 16 17 18 20 21 21 21 20 20 21 22 23 24 25 25 26
21 21 21 20 20 20 21 20 18 16 15 14 12 11 9 9 9 9 9 9 10 11 13 15 16 18 20 21 21 19 18 18 17 18 19 20 21 22 22 23 23 24 23
17 17 17 16 16 15 13 13 13 12 11 11 11 10 11 10 10 10 12 13 15 17 17 17 16 16 16 17 17 17 17 18 18 19 19 19 19 20 21 21 22 22 23
16 15 14 14 13 12 12 11 10 9 10 10 10 11 13 15 16 17 17 17 17 17 17 17 17 17 17 17 17 18 17 17 17 17 17 18 19 19 20 20 20 20 20
13 12 11 11 10 11 11 11 12 13 14 14 14 15 16 16 16 17 17 17 17 17 17 18 18 19 18 18 18 18 17 17 17 17 17 18 18 18 18 19 19 19 19
11 12 12 12 12 12 12 12 12 13 15 16 17 18 18 18 17 17 17 16 16 16 17 17 18 18 18 18 18 18 18 18 19 18 18 18 18 18 18 17 17 16 16
11 11 11 11 11 12 12 13 14 16 17 18 19 19 18 18 19 19 19 19 19 19 18 18 18 18 18 18 18 18 18 18 17 17 16 16 15 15 15 16 16 17 17
11 11 11 12 13 15 16 16 16 17 18 19 19 19 19 19 19 19 19 19 20 20 20 19 20 20 20 19 19 19 18 18 17 17 17 16 16 16 16 16 17 17 18

GFSGL_700_spd_096.txt.gz
Wind_Speed
19 18 14 13 11 8 4 2 1 3 7 9 10 11 13 13 14 13 15 18 21 23 23 25 39 34 36 36 38 40 41 41 41 37 34 34 31 36 42 35 37 39 36
20 19 16 14 14 12 8 6 4 4 5 7 8 9 11 13 13 15 17 24 29 32 33 35 31 35 42 35 39 40 38 39 43 37 37 36 40 36 35 38 35 43 40
17 18 19 19 17 16 13 11 9 8 7 8 9 10 12 13 13 15 17 20 23 27 31 42 44 36 39 42 41 44 44 45 46 47 46 45 45 43 43 44 46 47 45
18 16 17 21 20 19 18 16 15 14 13 12 13 13 13 14 16 18 20 21 21 22 25 28 33 37 41 43 42 42 45 45 48 51 53 51 50 49 49 51 50 47 49
16 16 15 16 21 21 20 19 18 19 18 18 18 18 19 20 20 21 23 25 26 27 28 30 30 32 35 39 41 42 44 48 50 54 55 55 55 54 53 52 55 51 51
14 13 10 10 12 15 18 18 18 20 21 22 23 24 24 25 25 26 28 30 31 33 33 34 35 36 37 39 41 42 46 48 52 55 57 59 56 52 49 50 51 54 57
19 17 16 15 17 12 13 14 13 13 14 13 14 20 26 29 30 31 32 34 35 36 36 38 40 40 41 43 44 46 48 51 52 54 58 58 57 56 57 58 56 56 57
12 14 17 19 21 24 31 30 25 25 28 25 24 23 22 19 20 23 27 31 35 37 39 40 43 44 45 46 48 51 52 53 55 56 60 62 62 62 62 61 57 57 59
15 18 20 21 21 21 24 31 34 35 32 31 33 33 38 43 38 28 25 24 25 31 31 35 42 45 45 48 52 53 54 55 57 59 61 64 64 62 60 59 61 64 65
6 8 11 14 18 22 25 26 27 28 32 35 37 37 37 34 32 32 34 35 39 38 40 40 47 43 43 40 46 50 48 53 60 62 62 65 67 66 64 64 68 63 64
11 12 12 12 13 15 18 20 23 26 28 29 29 31 35 40 42 38 36 36 39 42 43 45 43 41 50 48 52 51 53 54 62 62 59 64 64 67 68 69 68 69 69
14 17 18 19 18 17 18 19 21 24 26 28 30 31 32 34 36 38 38 39 41 43 45 49 50 58 52 55 54 56 53 56 57 63 65 71 71 67 66 67 74 76 70
15 17 17 19 20 21 20 19 18 19 20 21 24 25 26 26 27 28 34 39 43 45 47 50 51 59 55 64 59 56 56 62 56 55 53 52 55 56 57 55 47 43 43
18 18 18 19 20 20 21 21 21 21 22 22 23 25 27 28 29 30 32 33 35 38 44 48 50 51 54 57 62 51 59 51 45 39 36 38 37 34 33 31 29 26 24
16 17 18 19 19 19 21 21 21 21 23 24 26 27 27 28 29 30 30 30 30 32 34 38 41 44 43 44 43 37 31 25 22 21 20 19 18 18 18 18 19 20 21
18 18 19 20 21 20 21 22 23 23 22 23 24 25 26 27 28 29 30 31 30 28 25 24 23 23 23 22 21 19 17 16 15 14 14 14 15 16 17 18 21 23 25
21 22 22 23 23 23 24 24 22 23 23 22 20 21 22 25 26 28 28 28 26 24 20 17 15 14 14 13 12 11 12 12 13 14 15 17 19 21 23 24 25 25 25
23 22 21 21 21 21 22 23 22 23 22 22 21 21 21 21 20 21 20 18 15 14 12 11 11 10 10 11 12 14 15 16 18 19 20 22 23 22 21 21 21 22 22
20 20 19 19 20 20 21 21 21 20 20 19 18 17 17 16 16 14 12 11 11 10 11 12 13 13 14 15 17 18 20 21 22 22 21 19 18 18 19 19 20 21 21
19 19 19 18 18 18 18 18 18 17 17 17 16 15 15 14 13 14 14 13 13 13 14 16 17 18 19 19 18 18 17 17 17 18 19 19 19 19 19 19 19 19 20
17 17 17 17 16 16 15 15 14 14 14 14 14 14 14 13 13 13 14 15 17 18 18 19 19 19 18 18 18 18 18 19 19 19 19 19 19 19 19 19 19 19 19
17 16 15 15 14 14 13 13 13 13 13 12 12 13 14 15 15 15 17 18 18 18 19 20 20 20 20 20 20 19 19 19 19 19 18 18 18 18 18 18 18 18 18
14 13 12 12 12 12 13 13 13 14 14 14 13 13 13 14 15 16 17 18 19 19 19 19 20 20 20 21 21 20 20 19 19 18 18 18 18 18 18 18 18 18 17
14 14 14 14 14 14 14 14 13 13 13 13 14 16 17 17 18 18 18 18 18 18 19 19 19 20 19 19 19 19 19 19 19 19 19 19 19 18 18 18 17 16 16
14 13 13 12 12 12 13 13 14 15 16 17 17 17 18 19 19 19 19 19 19 19 19 19 19 19 19 19 19 19 19 19 20 19 19 18 18 17 16 16 15 14 14
14 13 13 13 13 14 14 16 17 17 18 18 18 19 19 19 19 19 19 19 19 20 20 20 20 20 20 20 20 20 20 20 20 19 18 18 17 16 16 15 15 14 14

GFSGL_700_spd_099.txt.gz
Wind_Speed
26 22 20 20 17 14 10 6 3 4 7 9 10 10 10 9 13 17 19 14 16 18 19 16 15 18 24 29 30 28 33 35 41 37 38 34 35 33 29 36 35 38 38
29 25 21 22 19 16 13 10 6 5 6 9 10 10 10 9 9 8 9 10 9 10 13 20 15 21 29 31 33 34 32 31 36 39 39 41 37 34 37 32 39 41 38
30 25 24 24 21 19 17 14 11 8 7 7 7 8 8 7 8 8 8 10 10 15 22 25 29 26 30 30 33 31 39 32 34 41 44 42 40 41 43 41 45 46 47
27 26 24 26 24 21 20 18 15 14 12 10 9 9 9 10 10 11 13 14 14 16 17 24 28 35 38 40 43 35 38 46 43 43 45 47 47 47 48 49 51 50 51
26 22 21 20 23 23 21 19 18 17 15 15 14 13 14 15 15 15 17 18 18 19 21 23 24 25 26 27 34 40 45 46 49 47 49 49 49 50 52 52 56 55 56
25 24 23 19 17 18 19 18 17 17 16 15 16 16 18 19 21 22 22 22 22 23 24 26 27 28 29 30 32 33 37 40 42 47 50 52 50 52 52 55 56 58 60
22 23 24 17 14 15 15 15 14 14 14 14 15 16 15 15 17 22 25 26 26 26 28 30 32 32 34 36 37 38 40 43 46 47 53 54 55 53 54 56 57 58 60
21 21 22 20 21 22 19 17 15 14 14 16 17 19 19 25 21 18 20 21 23 25 26 26 29 29 33 36 38 40 42 44 48 50 55 58 61 62 61 62 62 62 63
9 7 14 20 21 21 21 25 26 28 32 37 40 32 30 34 37 37 38 37 34 32 17 23 28 35 29 35 33 36 37 40 46 47 51 54 54 54 55 59 60 58 60
2 5 7 9 9 13 17 20 22 25 30 36 38 39 38 38 37 33 28 32 34 32 32 36 36 37 36 43 45 41 48 46 55 57 61 57 64 62 61 60 63 60 62
8 8 8 8 11 12 14 15 16 19 21 24 26 28 32 36 38 37 39 40 40 41 43 43 45 44 44 45 46 49 50 48 53 55 57 63 58 58 54 58 61 59 62
10 10 11 13 14 16 17 18 20 21 22 23 24 25 26 27 27 28 30 33 36 40 40 42 43 41 47 46 49 51 47 47 53 56 53 53 58 58 53 60 61 61 55
14 15 15 15 15 16 16 17 19 21 23 23 25 27 26 26 26 26 26 27 27 29 32 36 39 44 46 50 55 58 55 53 50 46 47 47 47 47 48 49 48 46 43
14 15 16 17 16 17 18 18 19 19 21 22 23 25 26 28 29 30 30 30 31 32 34 35 37 39 40 40 39 39 39 37 33 31 31 32 33 32 31 29 27 25 24
14 14 15 17 17 18 20 20 21 21 22 22 23 23 25 27 27 27 27 28 29 30 31 33 35 37 38 38 37 34 29 25 21 20 20 19 19 19 18 18 18 19 20
16 16 17 19 19 20 21 22 23 23 24 25 26 26 26 26 26 26 28 28 30 31 32 32 33 32 32 30 28 24 20 16 14 13 12 13 14 16 17 19 21 23 24
18 18 19 20 21 22 22 22 22 22 23 23 23 23 24 25 26 27 28 28 29 30 29 28 27 24 22 20 19 18 16 15 14 15 16 17 18 19 20 21 22 23 23
19 20 20 21 21 21 20 21 21 21 21 20 20 20 19 19 19 20 21 22 22 22 21 20 19 18 18 18 18 17 17 18 19 20 21 21 21 20 20 19 19 19 19
20 20 20 19 19 19 19 19 19 18 17 17 17 16 16 15 15 15 15 16 17 17 18 17 17 17 17 17 18 19 20 20 20 20 19 19 18 18 19 19 19 19 19
20 20 19 18 18 18 18 17 18 18 17 16 15 14 13 13 13 14 14 14 14 15 15 16 17 17 17 16 16 17 18 20 20 20 19 19 19 19 19 19 19 20 20
20 19 19 18 18 18 17 17 16 15 14 13 12 12 12 12 12 12 13 14 15 15 15 15 15 16 17 18 19 19 19 20 20 20 19 19 19 19 19 19 19 19 19
18 18 17 17 17 16 15 14 13 13 12 12 13 13 14 15 14 14 14 14 15 16 17 17 17 17 18 18 18 19 19 19 19 19 20 19 19 19 19 19 19 19 19
16 15 14 14 14 14 14 14 14 15 15 15 15 15 15 15 15 16 17 17 17 18 18 18 18 19 19 19 20 20 20 20 20 20 19 19 20 20 20 19 19 18 18
14 14 15 15 16 16 17 16 15 15 14 14 15 16 16 17 17 17 17 18 18 18 18 19 18 18 18 19 19 19 19 19 20 20 20 21 21 21 21 20 20 19 18
14 14 15 15 15 14 14 14 14 14 15 15 16 17 17 17 18 18 18 18 18 18 18 18 18 18 18 19 19 20 20 20 21 21 21 21 21 21 21 20 19 18 17
15 15 14 14 14 14 14 14 15 15 16 17 17 18 18 18 18 18 17 17 17 17 18 18 19 19 19 20 21 21 22 22 22 22 22 22 22 21 21 20 19 18 17

GFSGL_700_spd_102.txt.gz
Wind_Speed
34 34 33 28 23 21 18 16 13 10 11 12 13 11 10 8 11 15 18 20 24 29 33 29 34 31 31 32 29 36 35 39 39 36 35 37 34 38 38 39 34 34 31
33 37 35 29 25 23 21 19 15 12 9 11 11 10 9 9 9 11 13 18 21 15 18 24 28 22 21 25 29 33 26 29 34 32 33 34 35 40 39 44 42 39 35
38 41 37 30 25 25 23 22 18 14 11 9 9 9 8 8 8 9 9 12 13 15 17 17 15 15 15 17 19 25 29 37 33 33 29 27 31 35 41 43 44 44 42
42 42 36 31 26 27 25 24 21 19 16 13 13 13 12 11 11 10 9 9 9 9 11 14 19 23 26 26 27 26 30 37 33 31 35 37 37 37 40 44 46 45 46
40 39 37 30 27 27 27 25 24 22 20 18 17 15 14 13 12 11 11 11 11 12 12 12 13 15 15 18 21 26 33 37 41 42 44 41 41 43 44 42 47 47 49
40 37 30 25 24 21 23 26 25 23 22 21 19 18 18 18 16 16 17 16 17 18 18 19 20 20 22 23 24 26 29 30 32 37 39 41 42 41 41 43 45 48 50
32 32 29 30 28 26 24 26 25 24 23 22 21 20 21 22 20 19 19 20 20 21 22 24 25 26 27 28 30 31 33 35 37 36 39 39 40 42 45 48 47 49 53
26 27 27 27 30 35 26 17 18 24 23 23 21 21 23 19 16 17 18 18 19 19 18 21 24 26 31 30 33 36 35 38 41 42 46 48 51 51 52 54 55 58 58
25 26 26 24 28 30 23 27 26 23 21 21 21 23 26 26 26 26 26 24 23 22 28 32 31 28 31 31 33 35 34 39 41 42 43 48 51 50 49 45 51 48 55
21 23 18 19 23 23 22 26 28 29 30 32 32 32 31 33 32 30 29 27 26 27 30 30 34 35 37 34 38 39 38 42 45 49 47 50 52 52 54 49 48 60 55
8 6 4 3 7 9 11 13 16 16 17 20 22 23 25 26 26 26 28 30 32 36 40 43 44 43 43 48 42 47 49 43 49 51 55 48 51 45 51 52 53 54 56
1 2 5 7 8 11 12 12 13 15 16 17 19 20 21 22 22 23 24 25 27 30 33 38 42 44 42 44 42 40 45 45 49 54 53 55 52 51 49 49 51 52 52
8 9 13 12 10 11 14 16 16 18 19 19 20 20 21 21 22 22 23 23 24 26 28 29 30 32 33 35 36 38 38 39 40 41 41 41 41 42 42 43 43 41 38
8 11 12 14 14 15 16 17 18 18 19 21 22 22 23 24 25 25 25 26 26 27 28 30 32 33 33 33 33 34 35 35 36 36 36 34 33 32 32 32 31 29 28
9 10 11 12 13 15 16 17 18 19 20 20 21 22 23 24 24 25 25 27 27 27 28 30 31 32 32 33 34 35 35 35 33 31 28 27 26 26 25 24 23 22 22
12 12 13 14 15 16 17 18 19 20 22 23 24 24 24 24 25 25 26 27 27 28 28 29 30 30 30 31 31 30 29 26 25 23 22 22 21 21 22 22 23 24 25
16 15 15 16 17 18 18 19 20 21 21 21 22 24 24 25 26 26 27 27 27 28 26 25 25 25 25 25 25 25 25 24 23 22 21 21 22 22 22 23 23 23 23
17 17 17 17 18 19 20 21 21 21 22 23 23 24 25 26 26 27 27 27 26 25 23 22 22 23 23 23 24 24 24 24 24 24 23 22 22 21 21 22 22 22 22
19 19 19 19 19 19 20 21 21 22 22 22 22 23 23 23 24 24 24 23 22 21 20 20 20 21 22 23 23 23 23 23 22 21 22 22 22 22 22 22 23 23 23
19 20 20 20 20 20 20 20 21 21 21 21 21 21 21 21 21 20 20 19 19 19 19 19 20 20 21 21 21 21 21 21 21 22 22 23 22 23 22 22 22 22 21
20 20 20 20 21 21 21 21 21 21 21 21 20 20 20 19 18 18 18 19 19 20 20 20 20 21 21 21 21 22 22 23 23 23 23 23 23 23 23 22 22 22 22
19 19 20 20 20 20 20 20 20 19 19 18 18 17 18 18 18 19 20 19 19 20 20 21 21 22 22 22 22 23 23 23 23 23 23 23 23 23 23 22 22 22 22
17 18 18 18 18 18 18 18 18 18 18 18 19 20 20 19 19 19 19 19 20 21 21 21 21 22 22 23 23 23 23 23 23 23 23 23 23 23 23 22 22 22 21
15 16 16 17 17 18 18 19 19 19 19 19 18 17 17 17 18 18 19 20 21 21 21 22 22 22 22 22 22 22 22 22 22 23 23 23 23 23 23 23 23 22 21
16 16 16 17 17 17 17 17 16 16 17 17 18 18 18 18 19 20 21 21 21 22 22 22 21 21 21 21 21 22 22 22 23 23 23 24 24 24 24 24 24 23 22
17 17 17 17 17 17 17 16 16 16 16 17 17 18 19 20 21 21 21 21 21 21 21 20 20 21 21 21 22 22 23 23 23 24 25 25 25 25 26 26 25 24 23

GFSGL_700_spd_105.txt.gz
Wind_Speed
38 42 41 40 39 33 29 24 22 19 15 13 15 14 15 17 19 21 24 25 30 33 31 30 34 31 31 29 31 29 32 30 38 29 31 31 34 30 29 33 36 40 41
36 38 38 42 39 35 30 26 23 20 16 12 14 15 13 12 11 12 15 17 17 19 20 23 27 30 32 33 34 38 38 34 35 32 28 33 36 36 31 29 29 33 40
33 34 41 43 41 38 31 28 25 22 18 14 14 15 14 11 9 8 10 11 14 17 18 19 21 25 28 31 28 34 34 34 33 34 27 26 30 28 32 36 34 37 36
26 25 42 45 41 38 32 29 26 24 21 18 16 16 16 13 11 8 8 7 7 9 9 9 12 14 14 15 17 16 19 24 28 31 32 33 30 28 33 33 34 36 41
31 38 44 43 43 40 34 29 27 27 25 21 20 19 17 15 14 12 12 10 10 10 10 11 12 13 15 16 18 20 22 26 31 31 33 35 36 38 38 35 40 38 44
34 43 42 43 42 38 31 30 28 28 28 26 24 23 22 20 18 18 17 16 15 15 15 16 15 16 17 18 19 22 24 25 26 30 32 33 32 34 34 36 39 39 40
29 34 41 44 42 37 31 30 29 28 29 30 29 27 27 23 23 21 21 20 19 20 21 21 21 22 23 24 25 26 28 29 32 32 34 34 35 35 36 37 40 43 44
31 32 34 38 35 33 30 29 28 32 41 31 31 32 30 27 25 24 23 21 21 24 23 22 22 24 24 23 25 27 32 32 34 35 37 43 45 45 46 48 51 55 57
32 35 35 34 33 33 33 31 28 32 36 31 30 31 30 28 25 24 24 23 25 26 26 26 25 26 25 28 26 35 33 31 34 31 39 43 42 43 43 45 45 46 47
26 15 25 29 28 28 29 28 35 37 28 27 28 30 28 27 27 27 27 28 29 31 31 30 29 31 29 29 32 32 35 38 39 44 44 43 45 47 45 48 55 55 49
11 5 9 15 24 22 26 25 19 18 25 29 25 31 32 32 33 34 32 33 35 35 35 37 36 34 34 37 40 42 42 43 42 45 44 42 44 46 45 48 51 51 51
8 6 10 9 6 4 4 0 2 6 9 10 14 15 15 17 19 19 20 22 25 28 30 32 33 33 34 35 38 39 40 43 45 44 41 42 41 42 41 42 42 43 44
9 8 8 4 5 8 4 7 9 11 12 14 15 15 17 18 19 20 20 22 24 25 25 25 26 28 29 31 33 34 34 35 35 34 35 36 36 36 37 37 37 37 36
9 9 8 9 10 9 12 13 15 16 15 14 16 18 18 19 21 21 22 24 26 27 28 28 29 29 30 29 29 29 29 30 30 31 31 31 32 32 31 32 31 31 31
8 9 9 9 9 11 13 16 16 17 18 18 20 20 21 22 22 22 22 23 24 25 26 28 29 30 30 30 30 30 29 29 29 29 28 29 28 28 29 29 29 29 28
10 11 12 12 12 12 13 13 14 16 18 20 21 21 22 23 23 23 23 24 25 26 26 28 29 29 30 30 29 29 29 29 27 27 26 26 26 27 27 27 28 28 28
14 13 13 14 15 15 16 16 16 17 18 19 20 21 21 22 23 23 24 24 25 25 25 25 26 26 26 26 26 26 25 25 25 25 25 26 26 26 25 25 25 25 26
17 16 16 16 16 17 17 18 18 19 20 20 21 22 22 23 24 24 24 24 23 23 22 22 22 22 22 23 23 23 23 23 23 24 24 24 24 24 24 24 24 25 25
20 20 19 18 18 19 19 20 20 21 21 21 21 22 22 22 23 23 23 22 22 22 22 22 22 22 22 22 23 23 23 23 24 24 24 24 24 24 25 25 25 26 26
23 22 22 22 21 21 21 21 21 21 22 22 22 22 22 23 23 23 23 23 23 23 23 23 23 23 22 23 23 23 23 23 24 24 24 24 25 26 26 26 26 25 25
21 22 23 23 22 22 22 22 22 22 21 21 22 22 23 23 23 23 23 23 23 23 24 24 23 23 23 23 22 23 23 24 24 25 25 26 26 26 26 25 25 25 24
19 20 21 21 22 21 21 21 22 22 22 22 22 22 23 23 23 23 23 24 24 24 23 23 23 23 23 23 24 24 24 24 25 25 25 26 26 25 25 25 24 24 24
19 19 18 19 20 21 21 22 22 22 22 22 22 23 23 24 24 24 24 23 23 23 23 23 24 24 24 24 25 25 26 26 26 26 25 25 25 25 25 25 25 25 25
19 19 19 19 19 19 20 21 22 22 23 23 23 23 23 22 22 22 22 22 22 23 23 24 24 25 25 25 25 25 25 25 24 24 24 25 25 25 26 26 26 26 26
18 18 19 19 20 20 20 20 20 20 20 19 20 20 21 21 21 21 22 22 23 23 24 24 24 24 24 24 24 24 24 24 24 24 25 25 25 26 26 27 26 27 27
18 17 17 18 18 18 18 19 19 19 20 20 20 20 20 21 21 22 22 23 23 23 23 23 23 23 23 23 23 24 24 24 24 25 25 25 25 26 26 26 27 27 28

GFSGL_700_spd_108.txt.gz
Wind_Speed
42 45 40 39 38 39 39 36 33 26 23 22 18 16 14 11 15 19 23 26 25 27 28 29 26 30 36 28 30 37 38 34 33 30 30 28 25 30 24 25 24 24 28
45 41 37 36 36 41 39 37 34 26 24 23 18 16 15 12 13 15 17 21 25 28 30 28 26 27 28 34 35 31 33 29 35 26 29 27 27 26 25 30 30 30 30
35 37 38 39 36 41 38 39 34 28 25 24 19 16 15 14 14 14 16 16 16 16 16 19 21 23 26 31 29 30 30 33 33 36 32 29 27 28 31 30 25 26 31
25 28 34 36 44 37 37 40 36 30 27 26 21 17 17 17 16 15 15 13 12 14 16 17 16 15 13 15 17 22 24 26 28 31 30 30 24 23 28 29 29 28 28
22 19 24 36 34 36 38 43 40 33 28 27 24 20 20 19 18 17 15 15 14 14 15 14 13 12 13 14 13 14 17 16 18 20 22 24 27 31 34 31 36 37 35
22 24 28 33 38 37 44 46 40 32 30 29 28 25 25 21 20 20 19 18 18 18 16 15 15 15 16 17 19 19 19 20 22 23 24 28 31 32 32 33 34 36 39
20 24 25 30 35 36 42 42 37 37 34 33 33 31 27 25 24 24 23 22 23 21 20 20 20 20 20 20 21 22 23 26 27 26 27 29 30 32 32 33 34 35 38
18 22 25 29 35 38 44 44 43 41 37 35 32 29 28 27 28 28 27 28 27 26 25 24 25 25 24 22 24 24 22 24 27 29 31 32 34 34 32 36 38 40 46
24 28 31 34 37 39 42 41 41 44 36 34 32 28 30 31 32 30 31 32 31 30 29 27 25 25 24 25 21 22 28 28 27 30 36 31 31 32 37 35 42 36 44
9 17 29 23 32 39 37 39 40 43 40 41 42 45 42 36 37 33 33 34 32 30 29 28 29 30 28 27 30 30 34 30 32 35 34 34 37 38 38 42 40 41 41
19 15 11 9 11 11 19 12 24 35 36 34 37 35 38 33 35 31 30 33 33 34 32 35 35 34 34 34 32 29 33 32 35 39 38 38 36 41 44 41 39 38 39
17 18 15 17 14 6 10 9 7 7 17 15 23 28 25 21 22 23 25 26 23 27 25 26 29 27 26 26 28 30 30 35 35 41 39 38 37 38 37 37 37 36 35
12 12 15 18 13 11 11 9 10 7 5 6 6 7 10 12 11 11 11 13 14 21 22 23 23 23 23 24 26 28 30 32 34 35 35 34 35 35 35 35 34 34 33
12 11 8 8 9 10 14 15 14 9 10 6 8 8 9 9 11 14 16 17 19 20 20 21 23 25 26 26 26 27 28 30 30 31 32 32 32 32 31 31 30 30 29
10 11 12 11 10 9 9 9 11 13 11 10 14 16 16 16 16 16 17 17 16 17 19 21 23 24 24 25 25 25 26 27 27 28 28 28 27 27 27 28 28 28 29
13 12 11 11 11 12 11 11 11 12 13 14 15 17 20 20 20 20 19 19 19 20 21 22 23 24 24 24 24 25 25 24 24 25 26 26 26 26 27 27 28 28 28
14 14 14 15 14 13 13 13 14 14 15 15 15 16 16 16 17 18 18 19 20 22 22 23 23 23 24 24 24 24 25 25 26 26 26 26 26 26 26 25 26 26 26
17 16 16 16 16 16 16 16 16 15 15 15 16 17 18 18 18 19 19 20 20 20 21 21 22 22 23 23 24 24 25 25 24 25 24 24 24 24 24 24 24 24 24
20 19 18 18 18 18 18 18 18 19 19 19 19 19 19 19 19 19 20 20 20 20 20 20 21 22 22 23 23 24 24 24 24 23 23 23 23 23 23 23 23 23 24
22 22 22 21 20 20 20 21 20 20 21 21 21 21 21 22 21 22 21 21 21 21 21 21 21 22 22 22 23 23 23 22 22 22 22 22 23 23 23 23 24 24 25
21 21 22 22 21 21 20 20 20 20 20 21 22 22 23 23 22 21 22 22 22 22 22 22 22 23 23 22 22 22 22 22 22 22 22 23 23 24 24 24 24 24 24
20 21 21 21 21 20 20 21 21 20 20 20 21 22 22 22 22 21 22 22 23 23 23 23 22 22 22 22 21 21 22 22 22 23 23 24 23 23 24 23 23 24 23
21 20 19 20 21 21 21 22 22 22 22 21 21 21 21 22 22 22 22 22 22 22 21 21 21 21 21 21 21 22 22 22 22 23 23 23 22 23 22 23 23 23 25
20 21 21 20 20 19 20 20 21 22 22 22 22 22 21 21 20 20 20 19 19 20 20 21 21 22 22 22 21 22 22 22 22 22 22 22 22 23 24 25 24 26 25
20 20 19 20 20 20 20 19 19 20 20 20 20 20 20 21 21 20 20 21 21 21 21 22 22 23 23 23 23 22 22 22 22 22 23 23 24 24 24 25 24 25 26
20 20 19 19 18 18 18 18 18 18 18 18 18 18 19 19 19 19 20 21 21 21 21 22 22 22 21 22 21 21 22 22 23 23 24 23 23 23 23 23 23 23 24

GFSGL_700_spd_111.txt.gz
Wind_Speed
34 34 35 38 41 36 35 38 35 31 35 27 25 21 20 19 17 17 17 20 24 27 27 30 23 32 29 30 35 33 31 33 31 28 28 29 27 29 27 31 25 22 22
25 33 37 40 39 34 34 37 34 33 34 28 24 20 20 19 17 16 17 17 23 24 28 27 30 26 32 34 29 32 31 30 32 30 33 27 21 26 22 25 28 26 22
30 31 35 38 32 33 33 34 32 34 32 30 24 21 20 20 17 17 18 19 22 25 29 27 31 31 28 28 30 31 36 36 34 32 36 33 32 27 25 25 24 24 27
30 35 36 35 34 33 33 35 34 36 35 31 24 22 21 21 18 17 19 21 20 20 21 21 20 23 24 26 28 31 32 33 32 33 32 36 31 28 31 29 29 27 27
26 28 33 35 35 33 35 36 38 36 34 31 28 24 23 22 20 20 20 20 19 20 20 20 22 22 23 21 20 21 25 28 30 29 26 28 27 27 31 30 31 26 28
23 24 23 30 30 29 29 37 37 36 31 30 31 28 26 25 23 21 21 22 22 21 19 20 20 21 20 20 19 19 18 19 20 22 22 22 21 22 25 28 30 32 35
17 17 23 28 23 38 34 35 33 32 28 34 38 35 31 29 26 26 26 26 25 24 24 24 24 23 23 23 24 24 23 23 24 22 21 23 23 22 23 23 25 27 31
19 19 21 27 27 29 35 37 33 31 28 33 35 41 39 34 30 30 30 29 28 27 27 28 27 27 26 26 26 26 26 26 24 23 21 24 25 26 28 30 28 31 31
4 19 22 25 27 33 36 38 35 40 39 38 42 45 44 39 31 30 30 30 30 30 31 31 30 29 29 30 29 31 28 26 21 23 24 28 29 29 32 30 33 33 35
12 19 6 23 26 31 31 36 36 41 39 41 43 41 43 38 32 32 33 37 29 34 35 35 35 35 33 32 29 29 29 26 31 31 33 28 33 34 30 31 32 38 39
16 14 15 8 12 14 7 25 25 18 37 41 39 40 40 37 38 36 39 46 49 40 38 38 36 31 30 31 32 33 35 41 38 39 39 32 33 33 35 36 36 38 40
15 17 18 16 13 14 16 10 8 7 4 6 14 22 29 36 41 43 39 38 39 40 38 40 42 38 40 37 32 36 39 29 25 29 33 29 35 31 35 34 34 34 33
12 12 11 13 16 16 14 12 8 8 8 8 5 7 7 5 2 6 14 26 24 21 28 18 18 20 23 24 24 23 27 30 30 31 29 31 32 31 31 31 31 31 31
13 12 10 9 9 8 7 7 11 12 8 8 8 6 9 9 6 6 5 5 3 6 9 15 13 17 21 22 23 23 25 25 26 27 27 27 28 29 30 30 30 30 29
12 12 13 12 10 10 9 9 8 8 12 10 9 8 10 12 11 8 7 10 10 11 12 15 16 19 21 22 22 24 24 26 26 26 27 27 27 28 28 28 29 29 28
12 13 13 12 13 12 11 11 11 10 10 10 13 15 18 20 19 17 17 17 17 16 19 22 24 26 26 26 23 23 23 24 24 25 26 25 25 25 27 28 28 28 28
15 15 15 16 15 13 13 13 12 12 12 13 12 12 11 12 12 13 14 16 17 16 17 18 18 19 19 20 21 22 22 22 23 23 23 23 23 23 24 25 26 27 27
19 17 17 17 18 18 16 15 15 14 14 14 14 14 14 14 14 14 14 15 15 15 16 16 17 18 19 19 20 20 20 20 20 22 22 22 23 23 24 24 25 25 25
20 22 22 20 19 19 19 18 18 18 18 18 17 16 15 15 15 15 15 15 15 16 16 16 17 18 18 19 19 19 19 19 21 22 23 22 22 22 22 23 23 24 24
21 20 21 22 22 22 21 20 20 20 20 20 19 18 18 17 17 16 16 16 15 16 17 18 19 19 19 19 19 20 20 19 20 21 22 21 21 22 23 23 22 23 23
24 22 21 22 21 21 21 20 19 20 21 21 20 19 18 18 18 18 18 18 18 17 18 19 19 18 18 19 17 19 19 19 19 20 21 21 21 22 22 22 23 22 22
20 22 23 22 21 22 22 22 20 18 19 19 20 19 19 19 19 19 19 19 19 18 18 19 18 18 17 18 19 19 19 19 20 21 22 21 22 22 22 22 22 22 21
19 17 20 22 21 20 21 21 21 20 20 19 18 19 19 18 18 18 18 19 18 18 18 18 18 17 18 19 19 19 20 21 21 22 22 22 22 22 22 21 21 22 22
19 19 17 18 19 22 20 21 21 20 20 19 19 17 17 16 16 16 16 17 17 17 18 18 18 18 18 20 20 20 20 20 21 21 21 20 21 20 21 21 22 22 22
19 18 17 17 17 17 18 20 20 19 18 18 18 18 17 16 16 17 17 16 16 17 17 18 18 18 19 19 19 19 19 19 19 19 19 20 21 21 21 22 21 23 23
19 19 18 17 17 17 17 16 16 17 17 18 18 17 16 16 15 16 17 17 17 18 18 19 18 18 19 19 19 18 18 19 19 20 20 21 21 21 21 20 20 21 21

GFSGL_700_spd_114.txt.gz
Wind_Speed
39 37 37 33 42 40 38 35 35 33 38 37 34 32 30 25 22 21 20 20 23 23 24 25 20 18 21 25 28 26 29 23 22 24 26 26 26 26 25 25 27 26 28
35 36 37 36 39 37 37 36 36 33 34 35 32 31 30 26 22 20 20 20 24 23 25 23 22 28 25 28 30 29 29 29 30 29 30 31 32 31 24 23 22 25 29
26 27 28 35 34 34 36 35 36 33 33 32 29 35 31 27 22 20 21 22 24 24 25 24 26 26 30 30 31 35 38 29 35 34 34 32 32 30 29 23 28 27 25
22 26 24 24 30 32 33 32 31 29 29 34 29 33 34 27 23 21 21 22 23 23 26 25 31 29 33 33 29 30 31 34 32 38 37 37 35 35 34 32 32 27 27
30 25 26 31 33 30 30 28 29 27 29 33 30 32 32 27 24 23 24 23 24 24 24 27 30 35 34 37 34 32 29 32 36 34 34 35 35 33 33 34 32 30 32
22 20 28 22 33 35 31 30 33 31 30 33 32 29 28 24 23 26 26 24 24 24 23 22 24 25 23 26 27 31 34 34 35 38 39 38 33 34 34 33 37 37 36
22 25 26 24 23 31 30 29 32 30 32 32 34 29 28 34 27 28 30 28 26 26 26 25 24 26 27 27 27 26 26 25 24 25 27 29 29 25 23 24 24 28 29
13 12 16 17 20 21 29 31 36 37 38 33 34 29 30 31 35 38 33 32 30 29 29 28 27 27 27 28 28 30 29 28 27 28 29 29 25 23 23 20 22 25 30
12 10 6 14 24 30 31 34 38 35 33 41 34 28 28 32 35 39 39 35 34 33 32 32 32 31 31 32 33 33 31 32 31 31 31 27 24 25 26 25 26 31 32
17 18 14 12 12 6 10 29 25 41 35 40 36 41 36 36 36 37 38 41 36 35 32 33 30 31 31 30 29 28 29 34 33 35 33 29 30 32 31 32 33 32 36
14 15 16 16 14 13 13 5 14 19 21 26 41 36 38 41 42 39 35 33 34 35 36 38 37 35 37 36 38 39 39 37 36 36 38 34 42 39 34 34 31 40 37
15 14 12 10 11 14 17 12 8 7 6 4 9 8 28 26 36 40 39 37 38 37 41 41 45 41 43 43 40 35 38 41 44 44 45 40 34 29 36 32 33 37 34
14 13 13 14 13 11 7 7 11 13 8 8 8 10 6 4 2 13 22 32 38 35 39 35 42 53 54 39 43 42 37 36 37 33 35 32 27 26 28 30 30 31 32
15 14 12 12 12 11 11 10 7 5 4 7 8 7 7 7 8 9 8 4 4 6 9 11 13 14 15 16 21 19 19 18 16 21 25 26 25 24 27 28 29 29 29
15 15 14 13 13 13 11 10 10 10 11 11 11 8 6 6 6 6 6 8 10 12 13 13 13 13 13 15 15 17 19 19 22 24 26 26 25 25 25 26 27 27 28
17 17 17 16 14 14 14 13 12 11 11 12 12 13 16 17 17 14 13 12 13 12 11 11 12 13 15 20 21 21 22 24 23 23 24 26 26 25 25 25 26 27 28
19 19 19 19 19 17 16 16 15 14 14 13 13 13 12 13 13 16 18 20 22 22 23 24 24 23 23 24 25 26 27 28 26 25 23 23 24 26 26 26 26 26 26
21 21 21 21 21 20 20 19 19 19 18 16 16 15 16 15 15 15 15 15 15 16 16 16 17 17 18 18 18 19 20 20 21 22 23 24 25 26 26 26 27 26 25
26 24 23 23 22 22 22 21 20 20 19 19 18 17 17 17 17 17 16 16 16 16 16 16 16 16 17 17 18 18 20 21 21 22 22 22 23 24 24 24 24 25 26
27 29 27 24 24 22 22 22 22 21 20 19 19 19 19 18 18 18 19 19 19 19 19 18 18 18 18 19 19 20 21 22 22 22 22 22 22 23 23 24 25 26 27
25 25 27 28 26 23 22 21 21 21 21 20 19 19 20 20 20 19 19 19 20 20 20 19 19 19 20 20 21 21 21 22 22 22 22 23 23 24 24 25 25 26 27
23 23 23 25 26 25 24 20 20 19 20 20 20 19 19 19 20 20 20 20 19 19 19 19 19 19 19 20 20 21 21 21 21 22 23 23 23 23 24 24 24 24 25
21 21 20 21 23 24 24 22 20 19 19 18 18 19 19 19 20 20 20 20 19 19 18 18 19 19 19 19 20 21 21 21 21 21 22 22 22 22 22 23 23 24 24
19 19 18 19 20 21 22 22 21 19 18 18 18 18 17 17 17 18 18 17 17 17 17 17 18 19 19 19 20 20 21 21 21 21 21 22 22 22 22 22 22 23 24
20 19 18 19 19 19 19 20 21 20 19 18 16 16 16 17 17 18 17 18 18 18 18 18 18 19 19 20 20 20 20 21 21 20 21 21 21 22 22 23 23 23 22
19 19 18 17 18 18 19 20 21 21 21 20 18 17 16 16 17 16 16 17 18 18 18 19 19 20 20 20 21 21 21 21 20 21 21 21 21 22 22 21 21 21 22

GFSGL_700_spd_117.txt.gz
Wind_Speed
39 41 42 41 43 43 44 44 43 39 37 33 33 35 39 35 36 36 31 29 26 24 23 21 22 22 18 20 23 30 26 31 30 27 23 22 26 30 39 40 34 23 24
30 32 31 27 32 31 34 36 39 40 40 37 35 34 39 37 36 36 32 29 26 24 23 22 25 27 23 18 19 26 32 30 24 22 21 24 25 25 25 28 26 24 23
24 22 24 21 26 32 35 35 35 37 38 38 35 34 34 37 36 36 31 29 27 25 24 24 25 26 27 25 22 23 30 28 27 26 26 30 31 31 30 29 32 24 24
21 22 23 22 20 20 26 31 31 33 35 34 34 32 29 34 36 36 32 30 28 25 24 26 27 30 28 28 26 26 27 31 31 35 32 33 33 34 36 35 34 34 30
19 25 24 17 20 20 21 24 27 28 31 31 33 33 31 34 39 37 33 30 29 25 24 24 25 29 27 26 31 31 30 31 30 33 34 34 39 32 35 32 33 32 36
16 16 25 30 30 28 25 29 30 29 29 33 36 41 39 34 39 37 32 29 27 26 25 25 26 30 30 33 34 32 38 37 35 30 31 33 28 35 34 34 30 29 35
11 11 18 24 23 30 22 27 32 35 39 39 38 37 33 34 34 34 28 24 24 26 27 28 27 28 28 34 36 37 40 39 42 39 39 40 40 39 39 37 38 39 40
19 17 11 8 14 22 24 25 26 35 40 38 35 33 38 36 30 33 29 24 25 24 28 32 30 27 32 32 32 31 34 31 31 33 33 32 32 30 34 35 29 25 28
21 16 15 16 15 11 23 21 24 33 31 35 42 31 28 33 33 34 32 33 38 43 34 32 33 32 33 31 32 35 33 32 32 31 31 29 27 28 31 27 25 27 28
16 19 21 20 18 14 14 12 15 21 32 37 43 42 41 37 36 34 33 35 38 42 42 41 37 37 34 33 32 33 33 32 31 29 31 30 29 28 28 31 33 36 36
18 17 16 15 14 17 16 13 12 13 8 10 21 28 36 37 33 33 32 33 37 36 41 41 43 40 36 33 31 32 32 33 31 30 29 36 38 38 34 37 41 40 44
17 17 17 16 16 13 11 12 13 11 10 10 8 11 16 24 28 35 43 43 43 42 43 36 38 42 41 36 34 34 31 34 37 41 44 44 43 41 42 46 50 45 43
17 17 16 17 16 15 14 12 8 8 10 10 9 9 8 10 11 10 12 13 21 34 43 39 36 45 45 40 38 36 33 39 43 37 41 42 45 47 45 45 40 38 38
19 19 19 17 17 17 16 14 13 12 11 11 11 8 7 5 7 8 6 7 10 6 6 14 21 17 21 25 31 40 43 54 55 47 43 42 37 32 25 25 26 27 27
21 20 21 21 20 19 19 18 16 15 14 14 13 12 13 12 9 6 6 6 7 8 9 9 10 13 14 11 11 11 14 15 18 20 20 21 22 22 21 22 23 24 25
22 23 23 23 23 22 21 21 19 18 17 16 16 16 16 16 17 18 17 15 13 11 11 10 10 11 12 13 15 19 18 15 15 17 18 20 22 25 25 26 28 29 28
26 25 24 24 25 25 24 23 22 21 21 19 18 18 18 18 18 18 18 20 22 22 22 22 22 22 20 18 19 20 19 19 20 22 24 23 23 24 25 27 28 27 27
30 30 30 28 26 26 27 26 24 23 24 23 22 20 20 21 20 19 19 19 18 19 20 20 21 22 23 24 26 26 26 26 27 27 27 27 26 26 25 25 25 25 26
32 32 32 31 29 28 26 26 26 24 24 24 24 23 22 21 21 21 21 21 20 20 20 20 19 19 20 21 22 22 22 21 22 22 22 22 23 23 24 24 24 24 25
33 32 32 32 30 29 27 26 26 26 25 24 24 24 24 23 22 22 22 22 22 21 21 20 20 20 21 21 21 21 21 21 21 21 21 22 22 23 23 24 24 25 25
35 33 31 30 30 28 27 25 24 24 24 24 24 23 23 24 23 23 23 23 22 22 22 22 22 22 22 22 22 22 22 22 22 21 21 21 22 22 23 24 25 25 25
33 32 30 28 26 26 26 25 23 22 22 22 23 23 23 23 23 23 23 23 23 23 23 23 22 23 23 23 22 22 22 22 22 21 22 22 22 23 24 24 25 26 27
29 29 28 27 26 25 24 24 23 22 21 20 21 21 21 22 22 22 22 22 21 22 22 22 22 22 22 22 22 22 22 22 22 22 22 23 23 24 24 25 25 26 26
27 26 26 26 25 24 24 24 24 23 21 20 19 19 20 20 20 20 20 20 19 19 19 19 20 20 20 21 21 21 22 22 22 23 23 23 24 24 24 24 24 25 25
26 25 24 24 25 25 25 24 24 25 24 22 19 18 19 19 19 19 19 19 19 20 20 20 21 21 20 20 21 21 22 22 23 23 24 24 24 24 24 24 24 24 24
24 24 23 23 23 23 23 24 23 24 24 24 23 21 19 19 19 19 19 18 19 19 19 19 20 20 21 21 21 22 22 22 22 22 22 22 22 23 22 22 22 22 22

GFSGL_700_spd_120.txt.gz
Wind_Speed
37 38 40 41 42 42 43 40 39 40 37 37 39 38 39 38 35 35 36 37 37 36 34 31 29 26 24 23 22 23 19 17 23 28 36 30 30 26 26 34 31 32 30
32 35 35 33 31 31 33 35 40 43 41 40 39 42 43 44 39 36 36 36 37 36 34 31 29 27 27 25 22 21 21 21 25 27 34 36 26 26 23 34 32 34 33
29 29 29 22 21 19 23 26 28 33 39 42 46 48 48 45 39 35 35 37 36 37 35 33 30 28 27 27 25 25 21 21 29 30 24 23 24 23 26 31 35 38 36
21 22 20 18 20 19 19 26 31 33 35 35 37 41 46 43 39 35 35 37 37 38 37 34 31 29 27 27 25 25 25 25 26 34 26 27 27 27 30 30 32 34 32
14 14 16 19 18 17 20 19 22 25 29 31 35 38 38 38 38 35 35 37 39 39 37 35 30 27 27 25 27 26 32 24 25 29 29 30 34 33 31 32 33 36 35
12 9 12 15 20 21 20 21 23 20 22 25 31 30 31 36 37 42 38 38 36 39 37 33 28 27 27 26 30 27 25 32 32 30 30 30 28 30 35 36 32 32 37
22 19 15 11 16 23 24 27 31 31 33 31 32 30 32 36 38 33 35 37 38 39 34 31 27 26 26 26 30 32 32 29 33 32 31 33 34 28 29 29 28 33 35
22 23 17 16 12 9 18 22 19 27 27 28 33 34 39 38 28 29 38 33 37 37 34 30 25 22 25 26 29 34 38 40 42 34 40 46 36 37 38 39 35 39 37
17 17 18 21 21 17 14 9 15 17 20 27 24 33 41 44 44 33 34 31 37 37 33 28 25 26 24 27 28 28 30 31 32 32 33 33 35 36 35 35 31 35 36
16 17 19 18 17 17 20 17 15 12 9 13 19 23 28 32 34 37 34 34 32 37 35 34 34 34 30 35 37 35 39 35 36 35 35 35 37 33 32 27 27 30 32
20 21 21 20 19 18 18 17 17 16 15 13 10 9 15 21 32 35 35 35 36 36 39 33 33 33 35 39 46 40 38 35 35 35 34 36 34 31 30 28 25 28 31
21 21 20 20 19 18 17 17 16 15 15 14 13 12 10 10 9 15 23 35 38 40 41 41 40 39 38 40 37 37 37 36 37 36 36 34 37 35 32 32 32 35 37
21 21 22 22 21 20 19 17 17 17 16 14 13 12 11 11 10 8 7 9 13 15 27 28 35 40 46 47 43 40 46 45 48 43 48 46 43 44 44 44 42 40 43
24 25 24 23 23 24 23 22 20 19 18 17 17 15 14 12 10 10 9 8 7 7 6 9 15 19 23 27 33 39 42 41 35 33 35 37 38 39 37 39 40 38 40
27 27 27 28 28 27 25 24 23 22 21 20 20 18 17 16 16 15 14 12 10 9 10 8 8 9 10 11 12 14 16 19 22 24 29 33 30 28 32 32 30 31 29
28 29 31 32 32 32 31 30 28 26 24 23 23 23 22 20 19 18 17 19 20 18 16 14 12 10 9 9 10 11 13 14 13 13 14 16 17 17 17 17 18 19 20
30 31 32 33 34 34 34 32 30 30 29 27 25 25 24 24 22 21 21 20 19 19 20 22 22 21 19 17 16 14 14 15 16 18 19 21 21 21 19 19 21 22 23
33 35 37 37 36 36 36 35 33 31 29 29 28 26 25 25 25 25 24 23 22 21 20 19 18 19 21 22 22 21 21 21 21 21 22 22 22 22 22 23 23 24 25
32 33 35 37 38 38 37 36 35 33 31 29 28 28 27 25 24 24 23 23 22 22 21 21 20 20 19 19 19 20 22 22 23 23 24 25 25 25 25 25 24 25 25
31 32 33 33 34 35 35 33 32 31 30 30 28 27 26 26 25 25 24 24 24 23 22 22 22 21 21 20 20 20 20 20 21 21 21 22 22 21 21 21 22 22 23
31 32 31 31 32 32 32 31 30 28 27 26 26 26 25 25 24 24 24 23 23 23 23 23 23 23 22 22 22 21 21 21 21 21 21 22 22 22 22 22 23 22 22
31 31 30 30 30 30 30 29 28 27 25 24 23 23 23 23 23 22 22 22 23 23 22 22 22 23 23 22 22 22 21 21 21 21 21 22 22 21 21 21 21 21 21
30 30 30 29 29 29 28 28 27 27 25 24 22 21 20 20 21 20 20 19 19 19 20 20 20 20 20 21 21 21 20 20 20 20 20 20 20 20 20 21 21 21 21
31 30 29 29 28 27 27 26 26 26 26 24 22 21 19 18 18 19 20 19 19 19 18 17 17 17 17 17 17 18 18 19 19 20 20 20 20 21 21 21 22 22 22
30 29 28 28 27 27 27 26 25 25 25 24 23 21 20 18 18 18 18 18 17 17 17 18 19 19 20 20 19 19 19 19 19 20 20 20 21 21 21 20 20 20 21
31 30 28 28 28 28 27 27 27 25 24 23 23 22 21 19 18 17 18 19 20 19 18 18 18 18 18 18 18 19 19 19 20 20 20 20 20 20 20 20 20 20 20

GFSGL_700_spd_123.txt.gz
Wind_Speed
24 25 28 29 32 37 41 39 39 40 39 39 38 41 40 41 40 42 41 37 35 35 39 38 34 35 33 31 30 28 27 26 25 26 25 25 20 36 36 35 37 43 40
22 23 27 32 38 38 35 37 38 41 44 41 42 43 42 44 45 45 44 42 40 38 39 40 37 36 35 32 31 29 28 27 27 23 23 19 33 32 37 32 32 31 35
22 24 27 27 28 27 26 29 31 33 37 44 42 42 45 47 47 47 47 46 43 39 41 38 36 37 37 33 31 31 29 27 25 27 24 26 25 34 35 33 30 31 33
14 17 19 21 21 18 18 20 24 29 31 33 36 40 43 44 47 51 50 47 44 42 40 39 38 39 37 34 32 31 34 31 26 24 26 30 27 23 27 30 28 30 35
8 7 9 13 16 19 18 16 22 23 30 34 35 36 38 42 47 49 49 47 43 42 40 40 39 39 38 35 33 32 33 30 28 30 26 34 37 31 27 28 28 31 35
18 14 10 6 12 16 21 21 20 21 22 22 28 36 39 43 45 45 44 44 45 44 41 40 40 39 38 35 33 32 31 32 32 33 28 29 26 31 33 29 33 32 34
21 23 19 17 14 10 11 20 23 27 29 27 31 27 36 29 29 31 45 41 42 43 42 39 37 39 37 34 33 30 29 35 34 32 32 33 30 33 29 29 31 40 41
19 19 17 19 20 18 15 11 17 22 24 26 28 34 37 37 39 27 29 33 40 34 29 38 37 34 36 34 32 30 32 29 34 31 35 32 31 31 32 34 31 29 27
16 16 17 18 19 17 16 17 16 15 11 14 17 25 31 28 30 31 28 33 38 29 37 38 47 39 38 33 34 31 30 33 36 37 43 40 39 35 37 38 41 38 39
16 18 20 20 19 18 18 18 18 18 17 16 15 14 17 25 23 22 26 30 33 38 42 40 43 43 40 31 34 32 27 27 27 30 34 30 31 34 34 36 35 36 41
21 20 19 19 19 19 20 20 19 19 20 18 16 15 16 15 14 18 25 36 34 34 34 37 35 35 37 39 41 38 35 40 36 35 42 40 39 40 35 38 42 39 36
21 21 21 21 22 22 22 22 22 21 20 21 20 18 17 16 15 14 13 13 19 30 39 38 41 45 44 44 46 44 40 41 39 44 45 40 38 38 38 37 36 34 32
21 21 22 23 23 24 24 24 24 25 24 23 22 21 20 18 17 16 14 13 13 12 12 14 24 34 40 47 49 47 48 48 49 39 43 41 40 39 38 42 39 41 42
22 22 23 23 24 25 25 24 25 26 27 27 27 26 25 22 20 18 17 15 13 13 12 13 13 11 12 18 26 30 37 44 45 46 47 45 45 46 46 49 48 51 52
23 24 25 26 28 29 29 30 31 30 29 29 30 29 28 27 26 23 20 19 18 18 16 14 13 13 11 10 10 11 15 20 23 29 30 34 35 36 36 36 36 36 37
25 26 27 28 29 31 33 35 36 37 36 34 31 32 33 32 30 28 25 24 21 19 19 20 19 17 15 12 11 11 11 11 11 12 13 14 15 17 20 22 23 24 25
27 27 27 27 28 29 30 31 33 36 38 40 37 32 31 33 31 30 30 27 25 23 20 19 19 19 20 20 18 16 15 15 14 14 14 14 15 16 16 17 18 19 21
29 29 30 30 30 31 31 31 31 32 34 36 37 35 31 29 30 29 27 27 24 22 22 20 19 18 18 18 18 19 19 19 18 18 18 17 17 18 19 19 20 20 21
30 31 32 32 33 33 33 33 34 34 33 33 33 33 33 30 26 26 25 25 24 23 22 20 19 18 17 17 18 18 18 19 19 20 20 20 20 20 21 21 21 22 22
33 33 33 32 32 32 32 32 32 32 32 31 30 28 28 27 25 23 22 22 22 22 21 21 20 19 18 18 18 18 18 18 19 19 18 18 19 19 19 19 19 19 19
32 32 32 32 32 32 31 31 31 30 29 29 28 26 24 23 22 21 20 19 19 19 19 19 18 19 19 19 18 18 18 18 18 18 18 18 19 18 18 18 18 18 18
34 34 33 32 31 31 30 30 29 29 28 27 26 25 22 21 20 20 19 17 17 16 16 16 16 17 17 17 17 17 17 18 18 18 18 18 18 18 18 18 18 18 18
35 34 33 32 31 31 30 29 28 27 27 26 25 23 22 20 19 18 18 17 16 15 15 14 14 14 14 14 14 15 15 15 15 16 16 16 16 17 17 17 17 18 18
35 35 34 33 32 31 29 28 28 27 26 25 24 23 21 20 18 18 18 17 16 15 14 14 14 14 14 13 13 13 14 14 14 14 15 15 16 16 17 17 17 18 18
35 35 34 33 31 30 29 28 27 26 25 25 24 23 21 19 18 17 17 18 18 17 15 14 14 14 14 14 14 14 15 15 15 16 16 16 17 17 17 17 17 17 17
35 34 33 32 30 29 28 28 27 26 25 24 23 21 20 19 18 17 16 16 17 18 18 17 16 15 15 15 15 15 15 15 15 15 16 16 17 17 16 17 17 17 16

GFSGL_700_spd_126.txt.gz
Wind_Speed
29 36 35 31 31 36 40 42 40 38 44 45 45 44 42 41 39 42 42 45 43 40 43 40 37 38 39 39 37 38 36 35 35 31 29 25 25 30 26 25 33 43 38
22 25 24 36 38 28 30 33 30 27 39 45 46 47 45 46 43 45 42 45 46 46 46 46 41 38 40 43 40 38 37 35 34 33 32 26 25 25 27 26 36 41 45
21 21 19 17 19 18 20 29 33 39 45 46 48 49 48 49 49 48 48 48 49 47 50 48 44 41 39 43 44 40 39 36 35 35 32 28 29 27 23 23 34 38 41
13 19 24 25 25 28 31 32 34 34 33 36 37 39 43 48 49 51 52 50 53 52 51 50 45 44 43 43 44 43 39 38 37 36 34 31 29 29 28 30 33 36 37
11 4 4 11 15 17 15 23 24 23 26 24 27 28 32 36 41 45 47 48 50 51 52 52 49 48 47 44 46 43 41 39 39 37 37 35 32 31 31 28 30 29 33
23 19 17 11 4 12 15 16 21 21 20 22 23 26 32 35 38 40 42 43 45 46 49 52 52 48 45 47 49 43 43 39 39 40 39 36 34 31 27 34 35 32 35
20 18 17 18 17 14 11 8 13 23 24 23 24 28 34 30 40 37 41 39 48 43 42 51 49 48 49 52 46 47 43 41 39 39 39 39 34 32 29 34 39 34 35
18 18 18 18 17 17 16 16 16 13 12 16 20 25 30 33 35 35 33 39 35 37 43 46 41 47 45 45 38 44 41 40 38 38 41 39 38 34 35 34 30 36 35
16 16 16 17 18 18 17 17 17 16 16 15 15 15 15 16 22 26 30 32 31 35 33 35 40 40 38 33 41 46 43 40 37 35 36 43 44 36 39 36 35 35 34
17 18 19 19 18 18 18 18 19 19 20 21 21 21 21 20 17 16 18 24 27 26 33 37 40 38 35 41 46 38 37 38 40 40 37 39 42 43 40 41 38 37 42
19 19 18 18 19 19 19 19 20 21 23 24 24 25 24 24 23 22 20 19 20 25 30 33 34 42 47 42 42 40 40 39 41 43 39 41 41 39 42 42 43 41 42
17 17 17 17 18 18 19 20 21 22 22 23 25 27 27 27 26 25 24 23 21 20 20 20 25 33 40 39 42 46 46 43 49 48 46 45 45 47 42 42 45 43 45
17 17 18 18 18 18 18 19 19 20 22 25 27 28 28 29 30 29 27 26 24 23 21 20 19 18 21 30 39 41 47 49 47 52 53 47 49 49 46 43 47 49 48
20 21 22 23 23 24 25 24 24 24 23 23 24 25 28 32 33 32 31 29 28 26 25 24 21 19 19 19 18 20 26 38 36 43 46 50 51 49 49 49 45 45 44
22 23 25 26 28 30 30 30 31 31 31 31 32 32 32 32 34 37 36 33 30 28 27 25 24 23 20 17 17 17 18 17 19 22 26 34 41 42 44 46 47 51 53
25 26 28 29 30 31 32 34 33 34 33 33 34 35 36 37 36 35 36 40 37 33 29 27 25 24 24 23 19 17 16 15 15 14 15 18 19 22 24 27 30 31 33
27 28 29 30 31 32 33 33 34 34 34 34 34 33 33 34 35 36 36 35 38 36 31 27 25 25 24 22 22 21 20 17 16 15 15 14 13 13 14 15 16 18 20
31 31 31 32 32 33 34 34 34 35 34 33 33 31 31 32 33 34 34 34 33 33 31 27 25 23 23 22 21 20 20 20 19 18 18 17 16 16 16 16 17 17 18
30 31 32 33 34 35 36 37 37 37 37 36 34 32 31 30 29 29 30 30 30 29 28 25 24 23 21 21 21 21 20 20 20 20 20 19 19 19 19 19 19 19 20
34 34 35 36 37 37 38 38 38 37 36 36 34 32 30 28 26 25 25 25 25 24 24 23 21 20 20 20 19 19 20 20 20 20 19 20 20 20 20 20 21 22 22
36 37 38 38 38 38 39 39 38 37 36 35 34 31 29 27 24 23 22 21 20 20 20 19 19 18 17 18 18 18 18 19 19 19 19 18 18 18 18 18 18 17 18
38 38 39 39 39 38 37 36 35 35 34 33 32 30 27 26 24 22 21 20 19 18 18 17 16 16 16 15 16 16 16 16 16 17 17 18 17 17 17 17 17 17 16
39 40 40 40 38 38 36 34 33 32 32 31 30 29 27 25 23 22 20 20 19 17 16 16 15 14 13 13 13 13 14 14 14 15 15 15 16 16 16 16 17 17 17
40 39 39 38 37 35 33 32 31 31 30 29 29 28 26 24 22 21 20 19 19 18 17 15 15 14 14 14 13 13 12 12 13 13 14 14 15 15 16 16 17 17 18
39 38 37 36 35 33 31 30 29 29 29 28 27 26 25 24 22 21 20 19 19 18 17 16 16 15 15 14 13 13 13 14 14 15 15 15 15 16 16 16 17 17 17
38 36 36 34 32 31 30 29 29 28 28 27 26 25 24 22 21 20 20 19 19 18 17 17 16 16 16 16 15 15 15 14 14 14 15 15 15 15 16 16 16 17 17

GFSGL_700_spd_129.txt.gz
Wind_Speed
20 18 9 11 19 24 23 27 29 32 35 37 41 42 40 43 35 39 41 41 41 44 45 46 48 53 42 42 43 44 43 43 44 37 41 38 34 29 28 31 33 31 35
35 24 22 22 21 19 19 25 27 28 34 37 38 39 43 46 49 42 46 45 44 44 46 42 49 42 47 45 44 42 42 41 44 43 40 39 35 33 30 33 35 31 33
21 15 18 20 23 25 25 23 21 22 28 37 43 44 40 41 46 46 49 50 49 46 46 47 48 48 51 48 44 45 43 42 46 48 44 42 37 34 33 31 32 30 31
17 17 16 18 18 17 19 20 21 23 23 24 30 30 37 44 46 50 50 49 50 52 51 51 50 51 52 49 48 49 46 45 47 47 46 44 39 35 36 34 35 35 29
9 6 8 12 15 19 19 20 27 31 20 30 38 34 36 38 36 36 37 37 44 48 50 51 49 50 53 51 51 50 49 48 50 52 51 47 41 38 37 34 34 31 28
25 25 17 9 2 5 1 13 19 10 23 20 21 20 33 24 28 29 23 37 33 37 41 48 51 51 54 53 52 51 52 53 52 49 54 49 41 39 37 38 32 31 34
23 20 19 18 16 15 15 15 11 8 9 16 24 26 27 30 29 34 30 39 33 32 41 44 48 49 47 52 52 52 54 52 49 58 56 48 43 41 40 38 36 35 34
19 20 19 18 17 16 15 14 13 12 12 12 12 12 11 14 18 20 23 25 33 38 40 40 45 40 51 55 49 47 54 49 50 51 48 45 45 42 39 37 33 32 31
17 18 17 17 16 16 15 15 15 15 15 14 15 15 15 15 15 17 17 18 19 24 28 34 36 37 46 50 46 48 45 47 50 45 49 44 40 41 33 39 39 38 39
17 17 17 16 15 15 15 16 17 17 18 19 19 19 20 21 22 22 21 21 23 22 22 25 30 35 39 37 34 39 39 46 43 43 47 43 43 39 34 39 41 41 43
17 16 16 17 17 17 17 18 19 21 22 22 23 24 24 25 25 25 25 25 26 26 26 26 26 28 30 32 39 41 44 49 46 40 46 52 50 47 45 46 44 42 46
16 17 17 17 17 18 18 19 19 20 20 21 23 26 27 28 29 30 31 33 33 31 30 30 30 29 27 28 29 31 37 47 48 50 52 53 50 47 46 49 48 47 49
18 18 19 20 20 20 21 21 22 23 24 25 26 27 28 29 31 33 35 37 37 37 37 34 33 32 31 29 28 27 28 30 38 41 47 52 52 52 54 52 54 49 57
20 21 22 23 25 25 26 28 28 30 30 31 32 33 33 35 35 34 35 36 37 38 37 38 37 34 33 32 30 28 26 25 25 28 32 44 52 53 52 56 58 58 53
23 24 25 27 28 31 33 32 35 36 37 37 37 38 39 39 39 40 41 40 38 39 39 38 37 37 35 34 32 30 27 25 23 22 21 22 27 32 38 43 46 48 53
26 28 29 31 32 33 34 36 38 36 36 37 39 40 40 41 41 41 41 40 40 39 38 38 40 38 35 35 33 31 28 26 23 21 19 18 16 19 23 27 30 34 36
29 30 31 32 33 34 35 36 37 37 39 41 40 41 42 42 41 40 39 40 39 38 38 38 37 38 36 34 33 30 28 26 24 22 20 18 17 15 15 17 19 20 21
31 33 34 34 35 35 36 38 40 42 44 44 45 43 43 43 41 38 36 36 36 36 36 35 35 34 34 32 31 29 27 25 24 23 21 20 18 17 16 15 15 15 16
35 38 39 39 39 40 41 43 45 46 47 48 48 43 40 40 38 37 35 34 33 33 33 33 31 30 29 29 28 28 27 25 24 24 23 22 20 19 19 18 17 17 17
37 39 40 41 41 41 43 45 46 47 48 47 45 41 38 37 36 34 32 30 29 29 28 29 28 26 26 25 25 25 25 24 23 23 23 22 22 21 21 21 20 20 19
38 41 42 41 41 43 44 45 45 44 43 42 40 40 37 35 34 33 31 29 27 26 25 24 24 23 22 22 23 23 23 22 21 20 20 20 20 19 19 19 20 20 20
38 41 43 42 43 43 42 42 42 40 38 37 37 36 35 34 32 31 29 28 27 26 24 23 22 21 20 19 19 19 20 19 18 18 17 17 17 18 18 18 17 17 17
39 42 43 43 42 40 40 40 38 36 35 34 34 34 33 32 31 29 28 27 26 25 24 23 21 20 19 18 17 16 16 16 16 16 16 16 15 15 15 15 16 16 16
41 43 43 42 40 40 39 37 35 34 33 32 32 32 31 31 30 29 28 26 26 25 24 22 21 20 19 18 17 16 16 15 14 14 14 15 15 15 15 15 15 15 15
42 43 43 41 40 39 37 35 33 32 32 32 31 31 31 30 29 28 28 26 25 24 23 22 21 20 19 19 18 17 16 15 15 15 16 16 16 16 16 15 16 16 16
43 43 41 40 39 37 35 34 33 32 32 32 31 31 31 30 29 28 27 26 25 24 23 22 21 20 19 18 18 17 17 16 16 15 15 15 15 15 15 16 16 16 16

GFSGL_700_spd_132.txt.gz
Wind_Speed
25 24 25 31 18 22 13 23 11 12 25 27 31 30 28 29 31 33 34 31 32 34 35 35 37 41 44 43 46 47 48 39 37 34 33 33 40 40 39 36 33 36 33
26 19 19 16 11 8 17 16 17 17 19 17 16 21 27 28 30 32 34 34 31 32 32 38 39 42 45 45 46 48 44 37 39 41 39 32 36 40 45 40 34 38 35
14 10 7 6 8 9 10 11 10 16 16 20 20 28 27 27 30 33 34 36 38 40 42 41 42 46 45 48 49 48 44 38 47 50 43 36 36 43 46 44 39 39 37
18 12 10 6 8 9 6 4 9 16 16 20 24 28 29 33 36 35 37 38 41 43 47 48 46 49 50 50 51 47 47 48 48 54 47 38 42 41 46 44 41 40 38
28 27 23 20 9 3 3 5 5 10 11 14 20 29 29 33 32 34 39 43 37 35 42 39 43 49 46 50 51 49 47 50 58 58 47 40 43 45 47 44 43 43 40
30 32 31 29 27 20 14 13 10 7 11 9 16 21 25 28 15 36 25 34 34 28 36 33 38 41 45 48 49 51 51 50 54 51 54 48 49 51 51 46 41 44 44
26 26 26 26 24 22 21 18 16 15 14 13 13 13 14 14 12 13 15 17 20 22 36 37 33 36 41 49 49 48 40 45 49 50 53 47 52 53 53 55 40 46 44
22 22 22 22 21 20 18 16 15 14 14 14 14 14 15 16 16 16 17 18 18 18 18 20 28 33 40 41 43 43 43 42 45 49 48 55 51 45 43 50 42 42 47
17 17 19 19 19 19 17 17 16 16 16 15 16 17 17 18 18 19 21 22 23 24 24 23 20 21 25 30 35 40 44 44 45 49 47 50 54 63 58 58 50 45 51
18 19 20 20 19 18 17 17 17 16 16 16 17 17 18 19 20 20 21 22 25 25 27 28 28 28 26 25 26 28 33 44 46 48 47 48 47 52 50 39 40 46 45
18 17 17 17 19 19 20 20 21 22 22 22 22 22 23 23 24 25 27 29 29 29 30 30 31 32 33 32 32 30 30 28 32 43 43 46 49 49 53 45 48 43 46
15 15 15 15 16 16 17 17 17 18 19 20 21 23 24 26 28 30 31 33 34 34 35 36 36 36 36 36 35 35 33 31 31 30 35 44 47 51 48 49 54 51 52
18 19 20 21 21 20 20 21 22 23 25 26 26 27 28 29 30 32 34 35 36 37 38 38 39 39 40 39 39 38 36 35 33 33 32 30 34 39 50 61 52 57 54
20 22 23 24 26 26 27 28 28 29 30 31 31 32 34 36 38 39 40 41 40 41 41 40 41 41 41 41 39 39 38 37 35 34 33 31 29 31 34 40 45 49 56
21 23 25 26 27 28 29 30 31 33 33 35 38 42 44 46 48 50 52 52 51 49 48 45 43 42 41 39 38 37 36 35 35 35 33 32 30 27 28 30 33 36 42
24 27 29 31 33 33 34 36 39 41 41 41 42 44 47 50 51 50 49 49 48 45 45 44 42 41 40 39 37 37 35 33 33 33 32 31 30 28 25 24 25 26 29
27 28 30 32 34 34 35 35 35 35 38 42 45 45 48 49 47 44 41 39 40 38 38 39 39 39 39 38 35 34 33 31 31 30 30 29 28 27 25 22 20 20 21
29 31 33 35 37 37 37 37 38 40 43 45 46 48 43 43 41 38 35 34 33 33 33 34 34 34 34 34 33 31 30 28 28 28 28 27 26 25 24 22 20 18 17
32 34 36 38 40 41 39 39 41 43 46 48 48 43 38 36 37 37 36 34 33 33 31 31 32 32 31 30 29 28 28 26 26 26 25 25 24 23 22 21 19 18 16
35 36 38 39 42 41 41 41 43 45 46 45 44 43 37 34 33 33 34 33 32 32 31 31 31 31 29 28 27 26 25 24 24 24 23 23 23 23 22 21 19 18 17
37 39 39 40 43 42 42 43 44 45 44 42 40 39 38 37 35 34 34 33 32 31 30 30 30 29 27 27 25 24 24 22 21 19 19 20 20 20 20 21 21 21 19
39 40 40 42 43 43 42 43 43 43 41 39 37 35 35 35 35 34 33 32 30 30 30 29 28 27 26 25 23 22 21 20 20 19 17 15 15 16 16 16 16 16 16
41 41 41 43 42 43 42 42 42 40 38 36 35 34 34 34 34 34 33 32 30 29 29 28 27 26 24 23 23 21 19 19 17 16 16 15 14 14 13 13 12 12 12
42 41 43 42 43 43 42 41 39 37 36 35 35 34 34 34 34 33 32 31 30 28 28 28 27 25 24 22 22 21 19 18 17 17 16 14 13 13 12 11 10 10 10
42 43 43 43 43 43 41 39 37 36 36 36 36 35 35 35 34 33 32 31 30 28 27 27 26 24 23 21 20 20 19 18 17 17 17 15 14 14 12 12 10 10 10
42 42 43 44 43 42 40 39 38 38 37 37 36 36 36 35 34 33 32 31 29 28 27 26 26 25 23 20 19 18 18 18 17 17 16 16 15 15 13 13 13 11 11